<?xml version='1.0' encoding='UTF-8'?><gpx version="1.1" creator="JPX - https://github.com/jenetics/jpx" xmlns="http://www.topografix.com/GPX/1/1"><trk><trkseg><trkpt lat="44.35438573606136" lon="10.749274850493359"><ele>581.0</ele><time>2026-04-18T16:40:51.999Z</time></trkpt><trkpt lat="44.35435583423117" lon="10.749190450526903"><ele>581.0</ele><time>2026-04-18T16:40:52.999Z</time></trkpt><trkpt lat="44.35432251247401" lon="10.74907587043319"><ele>581.0</ele><time>2026-04-18T16:40:53.999Z</time></trkpt><trkpt lat="44.354270379326564" lon="10.748913738765813"><ele>581.0</ele><time>2026-04-18T16:40:54.999Z</time></trkpt><trkpt lat="44.35425413188898" lon="10.748777364723923"><ele>581.0</ele><time>2026-04-18T16:40:55.999Z</time></trkpt><trkpt lat="44.35421694851276" lon="10.748649736501788"><ele>581.75</ele><time>2026-04-18T16:40:56.999Z</time></trkpt><trkpt lat="44.354168252269396" lon="10.748477684144982"><ele>582.5</ele><time>2026-04-18T16:40:57.999Z</time></trkpt><trkpt lat="44.35411602408568" lon="10.748290636189681"><ele>583.25</ele><time>2026-04-18T16:40:58.999Z</time></trkpt><trkpt lat="44.35405450099825" lon="10.748070299885537"><ele>584.0</ele><time>2026-04-18T16:40:59.999Z</time></trkpt><trkpt lat="44.35399452140144" lon="10.747855491286026"><ele>584.75</ele><time>2026-04-18T16:41:00.999Z</time></trkpt><trkpt lat="44.35391759998652" lon="10.747646076497537"><ele>585.5</ele><time>2026-04-18T16:41:01.999Z</time></trkpt><trkpt lat="44.35387106021421" lon="10.747480764533929"><ele>586.25</ele><time>2026-04-18T16:41:02.999Z</time></trkpt><trkpt lat="44.35382745193487" lon="10.747322719773475"><ele>587.0</ele><time>2026-04-18T16:41:03.999Z</time></trkpt><trkpt lat="44.353784039363816" lon="10.747176056373451"><ele>590.2</ele><time>2026-04-18T16:41:04.999Z</time></trkpt><trkpt lat="44.353754056797975" lon="10.747075050286574"><ele>593.4000000000001</ele><time>2026-04-18T16:41:05.999Z</time></trkpt><trkpt lat="44.35369725112179" lon="10.746924658128137"><ele>596.5999999999999</ele><time>2026-04-18T16:41:07.999Z</time></trkpt><trkpt lat="44.3535956734141" lon="10.746824443223439"><ele>599.8</ele><time>2026-04-18T16:41:09.998Z</time></trkpt><trkpt lat="44.35347366130895" lon="10.746809696404494"><ele>603.0</ele><time>2026-04-18T16:41:11.998Z</time></trkpt><trkpt lat="44.35335192425485" lon="10.746872881955523"><ele>603.0</ele><time>2026-04-18T16:41:14Z</time></trkpt><trkpt lat="44.353280214092564" lon="10.74687840213376"><ele>603.0</ele><time>2026-04-18T16:41:15Z</time></trkpt><trkpt lat="44.35318090370759" lon="10.746807369154373"><ele>603.0</ele><time>2026-04-18T16:41:17Z</time></trkpt><trkpt lat="44.353092468104755" lon="10.746707581551622"><ele>603.0</ele><time>2026-04-18T16:41:19Z</time></trkpt><trkpt lat="44.35303408278064" lon="10.746554546439999"><ele>603.0</ele><time>2026-04-18T16:41:21Z</time></trkpt><trkpt lat="44.353018607784044" lon="10.746445239130766"><ele>605.6</ele><time>2026-04-18T16:41:22Z</time></trkpt><trkpt lat="44.35300472197975" lon="10.746305962332604"><ele>608.1999999999999</ele><time>2026-04-18T16:41:23Z</time></trkpt><trkpt lat="44.352971218396384" lon="10.746167888226989"><ele>610.8</ele><time>2026-04-18T16:41:24Z</time></trkpt><trkpt lat="44.35295469060013" lon="10.746006024555632"><ele>613.4</ele><time>2026-04-18T16:41:25Z</time></trkpt><trkpt lat="44.35292071877815" lon="10.745843422689555"><ele>616.0</ele><time>2026-04-18T16:41:26Z</time></trkpt><trkpt lat="44.35289789362112" lon="10.74569118308712"><ele>617.0</ele><time>2026-04-18T16:41:27Z</time></trkpt><trkpt lat="44.35286265641425" lon="10.745557069931602"><ele>618.0</ele><time>2026-04-18T16:41:28Z</time></trkpt><trkpt lat="44.35280821992233" lon="10.745407710462427"><ele>619.0</ele><time>2026-04-18T16:41:29Z</time></trkpt><trkpt lat="44.352755765664696" lon="10.745260575798051"><ele>620.0</ele><time>2026-04-18T16:41:30Z</time></trkpt><trkpt lat="44.35268992164978" lon="10.745123509025715"><ele>621.4</ele><time>2026-04-18T16:41:31Z</time></trkpt><trkpt lat="44.352658375480964" lon="10.744961361879486"><ele>622.8</ele><time>2026-04-18T16:41:32Z</time></trkpt><trkpt lat="44.352620668611124" lon="10.744809608611872"><ele>624.2</ele><time>2026-04-18T16:41:33Z</time></trkpt><trkpt lat="44.35259166320111" lon="10.744689931795989"><ele>625.6</ele><time>2026-04-18T16:41:34Z</time></trkpt><trkpt lat="44.35256472660035" lon="10.744575224003057"><ele>627.0</ele><time>2026-04-18T16:41:35Z</time></trkpt><trkpt lat="44.352521793860426" lon="10.744442178109368"><ele>627.6666666666666</ele><time>2026-04-18T16:41:36Z</time></trkpt><trkpt lat="44.35252826378835" lon="10.744314360985221"><ele>628.3333333333334</ele><time>2026-04-18T16:41:37Z</time></trkpt><trkpt lat="44.352532076814036" lon="10.744184080082562"><ele>629.0</ele><time>2026-04-18T16:41:38Z</time></trkpt><trkpt lat="44.35254511346551" lon="10.74406014045068"><ele>629.6666666666667</ele><time>2026-04-18T16:41:39Z</time></trkpt><trkpt lat="44.352555593180156" lon="10.743954357666935"><ele>630.3333333333334</ele><time>2026-04-18T16:41:40Z</time></trkpt><trkpt lat="44.352554916956954" lon="10.743843924133436"><ele>631.0</ele><time>2026-04-18T16:41:41Z</time></trkpt><trkpt lat="44.35256275756007" lon="10.74374751270773"><ele>630.2</ele><time>2026-04-18T16:41:42Z</time></trkpt><trkpt lat="44.35255209005437" lon="10.743538263123193"><ele>629.4000000000001</ele><time>2026-04-18T16:41:44Z</time></trkpt><trkpt lat="44.35250871539455" lon="10.743448772904117"><ele>628.6</ele><time>2026-04-18T16:41:45Z</time></trkpt><trkpt lat="44.35245683367523" lon="10.743349438182383"><ele>627.8000000000001</ele><time>2026-04-18T16:41:46Z</time></trkpt><trkpt lat="44.3523856250529" lon="10.743231368463817"><ele>627.0</ele><time>2026-04-18T16:41:47Z</time></trkpt><trkpt lat="44.352321721085595" lon="10.743132207166665"><ele>627.0</ele><time>2026-04-18T16:41:48Z</time></trkpt><trkpt lat="44.35226730043842" lon="10.743045702408198"><ele>627.0</ele><time>2026-04-18T16:41:49Z</time></trkpt><trkpt lat="44.35220375078151" lon="10.742939107549654"><ele>627.0</ele><time>2026-04-18T16:41:50Z</time></trkpt><trkpt lat="44.352165932984434" lon="10.742820838238565"><ele>627.0</ele><time>2026-04-18T16:41:51Z</time></trkpt><trkpt lat="44.352096776381025" lon="10.742719514796912"><ele>627.0</ele><time>2026-04-18T16:41:52Z</time></trkpt><trkpt lat="44.35205085728477" lon="10.742613898035009"><ele>628.6</ele><time>2026-04-18T16:41:53Z</time></trkpt><trkpt lat="44.35199398655333" lon="10.74248890789625"><ele>630.2</ele><time>2026-04-18T16:41:53.999Z</time></trkpt><trkpt lat="44.35194292746091" lon="10.742386878532963"><ele>631.8</ele><time>2026-04-18T16:41:54.999Z</time></trkpt><trkpt lat="44.351894911315746" lon="10.742317101490322"><ele>633.4</ele><time>2026-04-18T16:41:55.999Z</time></trkpt><trkpt lat="44.35182085184632" lon="10.742272061077196"><ele>635.0</ele><time>2026-04-18T16:41:56.999Z</time></trkpt><trkpt lat="44.351719552372465" lon="10.742225544225875"><ele>635.0</ele><time>2026-04-18T16:41:57.999Z</time></trkpt><trkpt lat="44.3516174530295" lon="10.74216887457165"><ele>635.0</ele><time>2026-04-18T16:41:58.999Z</time></trkpt><trkpt lat="44.35150962767195" lon="10.74211847330468"><ele>635.0</ele><time>2026-04-18T16:41:59.999Z</time></trkpt><trkpt lat="44.35139014937694" lon="10.742050591507708"><ele>635.0</ele><time>2026-04-18T16:42:00.999Z</time></trkpt><trkpt lat="44.35123816812674" lon="10.741942082906965"><ele>633.75</ele><time>2026-04-18T16:42:01.999Z</time></trkpt><trkpt lat="44.351099220519075" lon="10.7418240682587"><ele>632.5</ele><time>2026-04-18T16:42:02.999Z</time></trkpt><trkpt lat="44.35097711742461" lon="10.741716503783325"><ele>631.25</ele><time>2026-04-18T16:42:03.999Z</time></trkpt><trkpt lat="44.350867305068334" lon="10.741656967422914"><ele>630.0</ele><time>2026-04-18T16:42:04.999Z</time></trkpt><trkpt lat="44.350767853777185" lon="10.741550059691514"><ele>630.0</ele><time>2026-04-18T16:42:05.999Z</time></trkpt><trkpt lat="44.35069900820437" lon="10.741387019416134"><ele>630.0</ele><time>2026-04-18T16:42:06.999Z</time></trkpt><trkpt lat="44.35059374593005" lon="10.7412445782745"><ele>630.0</ele><time>2026-04-18T16:42:07.999Z</time></trkpt><trkpt lat="44.350465315886744" lon="10.741121642059314"><ele>630.0</ele><time>2026-04-18T16:42:08.999Z</time></trkpt><trkpt lat="44.350330795691896" lon="10.741023050624577"><ele>630.0</ele><time>2026-04-18T16:42:09.999Z</time></trkpt><trkpt lat="44.35021043972363" lon="10.740938174389958"><ele>630.0</ele><time>2026-04-18T16:42:10.999Z</time></trkpt><trkpt lat="44.35009991548855" lon="10.74083720417717"><ele>630.0</ele><time>2026-04-18T16:42:11.999Z</time></trkpt><trkpt lat="44.34999126724767" lon="10.74070103472706"><ele>630.0</ele><time>2026-04-18T16:42:12.999Z</time></trkpt><trkpt lat="44.34988107539791" lon="10.740601657102628"><ele>630.0</ele><time>2026-04-18T16:42:13.999Z</time></trkpt><trkpt lat="44.34975555050599" lon="10.740527659996225"><ele>630.0</ele><time>2026-04-18T16:42:14.999Z</time></trkpt><trkpt lat="44.34964910261611" lon="10.740441964130037"><ele>630.0</ele><time>2026-04-18T16:42:15.999Z</time></trkpt><trkpt lat="44.34952971568368" lon="10.740403517053627"><ele>630.0</ele><time>2026-04-18T16:42:16.999Z</time></trkpt><trkpt lat="44.349386518654896" lon="10.740437649231906"><ele>627.6666666666666</ele><time>2026-04-18T16:42:17.999Z</time></trkpt><trkpt lat="44.34922700402723" lon="10.740463311384596"><ele>625.3333333333333</ele><time>2026-04-18T16:42:18.999Z</time></trkpt><trkpt lat="44.349087477560936" lon="10.740450798228455"><ele>623.0</ele><time>2026-04-18T16:42:19.999Z</time></trkpt><trkpt lat="44.34893160704152" lon="10.740465504262685"><ele>624.6666666666666</ele><time>2026-04-18T16:42:20.999Z</time></trkpt><trkpt lat="44.34875833922865" lon="10.740481851712515"><ele>626.3333333333334</ele><time>2026-04-18T16:42:21.999Z</time></trkpt><trkpt lat="44.34857914151862" lon="10.740494370568157"><ele>628.0</ele><time>2026-04-18T16:42:22.999Z</time></trkpt><trkpt lat="44.34845576880214" lon="10.74048688424705"><ele>628.0</ele><time>2026-04-18T16:42:23.999Z</time></trkpt><trkpt lat="44.34831236735233" lon="10.740455570466237"><ele>628.0</ele><time>2026-04-18T16:42:24.999Z</time></trkpt><trkpt lat="44.34816798429498" lon="10.740425551579733"><ele>628.0</ele><time>2026-04-18T16:42:25.999Z</time></trkpt><trkpt lat="44.348013775779265" lon="10.740410275447532"><ele>628.0</ele><time>2026-04-18T16:42:26.999Z</time></trkpt><trkpt lat="44.34786736627613" lon="10.740359257493452"><ele>627.0</ele><time>2026-04-18T16:42:27.999Z</time></trkpt><trkpt lat="44.34771748973481" lon="10.740347959031434"><ele>626.0</ele><time>2026-04-18T16:42:28.999Z</time></trkpt><trkpt lat="44.34755218979432" lon="10.740282001158725"><ele>625.0</ele><time>2026-04-18T16:42:29.999Z</time></trkpt><trkpt lat="44.347380555028586" lon="10.740279035802072"><ele>625.0</ele><time>2026-04-18T16:42:30.999Z</time></trkpt><trkpt lat="44.34722234471924" lon="10.740272250921644"><ele>625.0</ele><time>2026-04-18T16:42:31.999Z</time></trkpt><trkpt lat="44.347075377973596" lon="10.740251001230481"><ele>625.0</ele><time>2026-04-18T16:42:32.999Z</time></trkpt><trkpt lat="44.34693363439352" lon="10.740243611759164"><ele>625.0</ele><time>2026-04-18T16:42:33.999Z</time></trkpt><trkpt lat="44.34677974934841" lon="10.74024935236464"><ele>625.5</ele><time>2026-04-18T16:42:34.999Z</time></trkpt><trkpt lat="44.346629090959986" lon="10.740245806361354"><ele>626.0</ele><time>2026-04-18T16:42:35.999Z</time></trkpt><trkpt lat="44.34649241191143" lon="10.740241049700613"><ele>626.5</ele><time>2026-04-18T16:42:36.999Z</time></trkpt><trkpt lat="44.34638942649959" lon="10.740226433427306"><ele>627.0</ele><time>2026-04-18T16:42:37.999Z</time></trkpt><trkpt lat="44.34629978880203" lon="10.74017419422951"><ele>630.5</ele><time>2026-04-18T16:42:38.999Z</time></trkpt><trkpt lat="44.346197303313794" lon="10.740112667076179"><ele>634.0</ele><time>2026-04-18T16:42:39.999Z</time></trkpt><trkpt lat="44.34606974462452" lon="10.740037046976529"><ele>637.5</ele><time>2026-04-18T16:42:40.999Z</time></trkpt><trkpt lat="44.34594799720787" lon="10.739940788185674"><ele>641.0</ele><time>2026-04-18T16:42:41.999Z</time></trkpt><trkpt lat="44.345827326567516" lon="10.739847304108306"><ele>641.0</ele><time>2026-04-18T16:42:42.999Z</time></trkpt><trkpt lat="44.345719167264804" lon="10.739757524592367"><ele>641.0</ele><time>2026-04-18T16:42:43.999Z</time></trkpt><trkpt lat="44.34561778078963" lon="10.739678404836528"><ele>641.0</ele><time>2026-04-18T16:42:44.999Z</time></trkpt><trkpt lat="44.345520658301716" lon="10.739608850297532"><ele>641.0</ele><time>2026-04-18T16:42:45.999Z</time></trkpt><trkpt lat="44.345422133658346" lon="10.739537779583694"><ele>640.75</ele><time>2026-04-18T16:42:46.999Z</time></trkpt><trkpt lat="44.34532302468183" lon="10.739469181764465"><ele>640.5</ele><time>2026-04-18T16:42:47.999Z</time></trkpt><trkpt lat="44.34521708666139" lon="10.739396329301297"><ele>640.25</ele><time>2026-04-18T16:42:48.999Z</time></trkpt><trkpt lat="44.34510702496355" lon="10.739313842443822"><ele>640.0</ele><time>2026-04-18T16:42:49.999Z</time></trkpt><trkpt lat="44.34500508475405" lon="10.739224854807793"><ele>640.0</ele><time>2026-04-18T16:42:50.999Z</time></trkpt><trkpt lat="44.34491559837592" lon="10.739121389756253"><ele>640.0</ele><time>2026-04-18T16:42:51.999Z</time></trkpt><trkpt lat="44.34482948120291" lon="10.739011296051741"><ele>640.0</ele><time>2026-04-18T16:42:52.999Z</time></trkpt><trkpt lat="44.344734669609934" lon="10.73891002913615"><ele>640.0</ele><time>2026-04-18T16:42:53.999Z</time></trkpt><trkpt lat="44.34463934528966" lon="10.738795916959477"><ele>637.0</ele><time>2026-04-18T16:42:54.999Z</time></trkpt><trkpt lat="44.34454886784184" lon="10.73869241477025"><ele>634.0</ele><time>2026-04-18T16:42:55.999Z</time></trkpt><trkpt lat="44.344448406656014" lon="10.738597807956923"><ele>631.0</ele><time>2026-04-18T16:42:56.999Z</time></trkpt><trkpt lat="44.34434715333057" lon="10.738521510036875"><ele>628.0</ele><time>2026-04-18T16:42:57.999Z</time></trkpt><trkpt lat="44.34424176758348" lon="10.738467946986086"><ele>628.0</ele><time>2026-04-18T16:42:58.999Z</time></trkpt><trkpt lat="44.34414577226087" lon="10.73843620626412"><ele>628.0</ele><time>2026-04-18T16:42:59.999Z</time></trkpt><trkpt lat="44.34404729419611" lon="10.738412006986996"><ele>628.0</ele><time>2026-04-18T16:43:00.999Z</time></trkpt><trkpt lat="44.34395714759054" lon="10.73838051243204"><ele>628.0</ele><time>2026-04-18T16:43:01.999Z</time></trkpt><trkpt lat="44.343896338318075" lon="10.738356773289697"><ele>628.0</ele><time>2026-04-18T16:43:02.999Z</time></trkpt><trkpt lat="44.343780791595314" lon="10.73832064854954"><ele>629.0</ele><time>2026-04-18T16:43:04.999Z</time></trkpt><trkpt lat="44.34368816542343" lon="10.738385476777523"><ele>630.0</ele><time>2026-04-18T16:43:06.999Z</time></trkpt><trkpt lat="44.343574877756275" lon="10.738438768868944"><ele>631.0</ele><time>2026-04-18T16:43:08.999Z</time></trkpt><trkpt lat="44.34348184414097" lon="10.738560916209904"><ele>632.0</ele><time>2026-04-18T16:43:10.999Z</time></trkpt><trkpt lat="44.34339507190038" lon="10.738697704688226"><ele>629.4</ele><time>2026-04-18T16:43:12.999Z</time></trkpt><trkpt lat="44.34332065962618" lon="10.738776661467272"><ele>626.8000000000001</ele><time>2026-04-18T16:43:14.998Z</time></trkpt><trkpt lat="44.34323423061322" lon="10.73882440924655"><ele>624.2</ele><time>2026-04-18T16:43:17.998Z</time></trkpt><trkpt lat="44.343158949303806" lon="10.73885439820474"><ele>621.6</ele><time>2026-04-18T16:43:20Z</time></trkpt><trkpt lat="44.34308715933503" lon="10.738832902017638"><ele>619.0</ele><time>2026-04-18T16:43:22Z</time></trkpt><trkpt lat="44.34296069297214" lon="10.738810625794597"><ele>618.6666666666667</ele><time>2026-04-18T16:43:24Z</time></trkpt><trkpt lat="44.34287612572695" lon="10.738788695946779"><ele>618.3333333333334</ele><time>2026-04-18T16:43:25Z</time></trkpt><trkpt lat="44.34281070998694" lon="10.73875602678687"><ele>618.0</ele><time>2026-04-18T16:43:26Z</time></trkpt><trkpt lat="44.3427166873274" lon="10.739234705367382"><ele>615.6</ele><time>2026-04-18T16:43:29Z</time></trkpt><trkpt lat="44.34265393714263" lon="10.739399460558108"><ele>613.1999999999999</ele><time>2026-04-18T16:43:31Z</time></trkpt><trkpt lat="44.342619633369694" lon="10.739511919318897"><ele>610.8</ele><time>2026-04-18T16:43:33Z</time></trkpt><trkpt lat="44.342576749955924" lon="10.739600719557151"><ele>608.4</ele><time>2026-04-18T16:43:35Z</time></trkpt><trkpt lat="44.34248946333999" lon="10.739637667585349"><ele>606.0</ele><time>2026-04-18T16:43:37Z</time></trkpt><trkpt lat="44.3423912640962" lon="10.739662777207739"><ele>606.0</ele><time>2026-04-18T16:43:39Z</time></trkpt><trkpt lat="44.342311148345026" lon="10.739661638768343"><ele>606.0</ele><time>2026-04-18T16:43:41Z</time></trkpt><trkpt lat="44.34222502353958" lon="10.7396788690253"><ele>606.0</ele><time>2026-04-18T16:43:43Z</time></trkpt><trkpt lat="44.342140467233634" lon="10.73969055223965"><ele>606.0</ele><time>2026-04-18T16:43:45Z</time></trkpt><trkpt lat="44.342062202382046" lon="10.739713788665771"><ele>606.0</ele><time>2026-04-18T16:43:47Z</time></trkpt><trkpt lat="44.341996425491004" lon="10.739747605434404"><ele>606.0</ele><time>2026-04-18T16:43:49Z</time></trkpt><trkpt lat="44.34183390200205" lon="10.739789112906793"><ele>604.8333333333334</ele><time>2026-04-18T16:43:52.999Z</time></trkpt><trkpt lat="44.34174081142079" lon="10.739833708590968"><ele>603.6666666666666</ele><time>2026-04-18T16:43:54.999Z</time></trkpt><trkpt lat="44.341665344570416" lon="10.73985846125571"><ele>602.5</ele><time>2026-04-18T16:43:56.999Z</time></trkpt><trkpt lat="44.34156814776641" lon="10.739835327765169"><ele>601.3333333333333</ele><time>2026-04-18T16:43:58.999Z</time></trkpt><trkpt lat="44.341497550087865" lon="10.739806337343344"><ele>600.1666666666666</ele><time>2026-04-18T16:44:00.999Z</time></trkpt><trkpt lat="44.34140681268751" lon="10.739786198220193"><ele>599.0</ele><time>2026-04-18T16:44:02.999Z</time></trkpt><trkpt lat="44.341327677229444" lon="10.739759482279966"><ele>597.0</ele><time>2026-04-18T16:44:04.999Z</time></trkpt><trkpt lat="44.34125717056105" lon="10.739747619332832"><ele>595.0</ele><time>2026-04-18T16:44:05.999Z</time></trkpt><trkpt lat="44.34116379420142" lon="10.739765097730906"><ele>593.0</ele><time>2026-04-18T16:44:07.999Z</time></trkpt><trkpt lat="44.34109102497701" lon="10.739759928521552"><ele>591.0</ele><time>2026-04-18T16:44:08.999Z</time></trkpt><trkpt lat="44.34100171264191" lon="10.73971837616468"><ele>589.0</ele><time>2026-04-18T16:44:10.999Z</time></trkpt><trkpt lat="44.34088482589252" lon="10.739742679398027"><ele>589.0</ele><time>2026-04-18T16:44:12.999Z</time></trkpt><trkpt lat="44.34081139502965" lon="10.73974186649236"><ele>589.0</ele><time>2026-04-18T16:44:13.999Z</time></trkpt><trkpt lat="44.34072368287321" lon="10.739738773625696"><ele>589.0</ele><time>2026-04-18T16:44:14.999Z</time></trkpt><trkpt lat="44.34061746695445" lon="10.73975732948308"><ele>589.0</ele><time>2026-04-18T16:44:15.999Z</time></trkpt><trkpt lat="44.34053456391343" lon="10.739697676729087"><ele>589.0</ele><time>2026-04-18T16:44:18.999Z</time></trkpt><trkpt lat="44.34045629452085" lon="10.739682311022321"><ele>589.0</ele><time>2026-04-18T16:44:20.999Z</time></trkpt><trkpt lat="44.34032464374897" lon="10.73964362994632"><ele>586.4</ele><time>2026-04-18T16:44:22.999Z</time></trkpt><trkpt lat="44.340257754295884" lon="10.739632889665224"><ele>583.8</ele><time>2026-04-18T16:44:23.999Z</time></trkpt><trkpt lat="44.340194118544304" lon="10.739605004424789"><ele>581.2</ele><time>2026-04-18T16:44:24.999Z</time></trkpt><trkpt lat="44.34006615224718" lon="10.739590455350704"><ele>578.6</ele><time>2026-04-18T16:44:26.999Z</time></trkpt><trkpt lat="44.339958511914254" lon="10.739560872061341"><ele>576.0</ele><time>2026-04-18T16:44:28.999Z</time></trkpt><trkpt lat="44.33986281476875" lon="10.739490252964677"><ele>576.0</ele><time>2026-04-18T16:44:30.999Z</time></trkpt><trkpt lat="44.33978136503383" lon="10.739402783640806"><ele>576.0</ele><time>2026-04-18T16:44:32.999Z</time></trkpt><trkpt lat="44.33972716587088" lon="10.739355072756688"><ele>576.0</ele><time>2026-04-18T16:44:33.999Z</time></trkpt><trkpt lat="44.33961839059033" lon="10.739329711596975"><ele>576.0</ele><time>2026-04-18T16:44:35.999Z</time></trkpt><trkpt lat="44.33956288739537" lon="10.739282140121793"><ele>576.0</ele><time>2026-04-18T16:44:36.999Z</time></trkpt><trkpt lat="44.339508132076745" lon="10.73923108357068"><ele>576.0</ele><time>2026-04-18T16:44:37.999Z</time></trkpt><trkpt lat="44.33943031222805" lon="10.739198813957344"><ele>577.6</ele><time>2026-04-18T16:44:39.999Z</time></trkpt><trkpt lat="44.3393057473858" lon="10.739215596587563"><ele>579.2</ele><time>2026-04-18T16:44:41.999Z</time></trkpt><trkpt lat="44.3392471704052" lon="10.739250320770081"><ele>580.8</ele><time>2026-04-18T16:44:42.999Z</time></trkpt><trkpt lat="44.33917032251089" lon="10.73926785988963"><ele>582.4</ele><time>2026-04-18T16:44:43.999Z</time></trkpt><trkpt lat="44.33904670619827" lon="10.739254884101348"><ele>584.0</ele><time>2026-04-18T16:44:45.999Z</time></trkpt><trkpt lat="44.338920986289274" lon="10.739268722509475"><ele>582.5</ele><time>2026-04-18T16:44:47.999Z</time></trkpt><trkpt lat="44.33885560842264" lon="10.739272844941635"><ele>581.0</ele><time>2026-04-18T16:44:48.999Z</time></trkpt><trkpt lat="44.33879283708264" lon="10.739260241357671"><ele>579.5</ele><time>2026-04-18T16:44:49.999Z</time></trkpt><trkpt lat="44.338727673892635" lon="10.73924947545804"><ele>578.0</ele><time>2026-04-18T16:44:50.999Z</time></trkpt><trkpt lat="44.33861946092818" lon="10.739212845888197"><ele>576.5</ele><time>2026-04-18T16:44:52.999Z</time></trkpt><trkpt lat="44.33849911910898" lon="10.739218748851552"><ele>575.0</ele><time>2026-04-18T16:44:54.999Z</time></trkpt><trkpt lat="44.33837127076989" lon="10.739244930285807"><ele>575.0</ele><time>2026-04-18T16:44:56.999Z</time></trkpt><trkpt lat="44.338297279593164" lon="10.739252673506343"><ele>575.0</ele><time>2026-04-18T16:44:57.999Z</time></trkpt><trkpt lat="44.338229754420404" lon="10.739257749475794"><ele>575.0</ele><time>2026-04-18T16:44:58.999Z</time></trkpt><trkpt lat="44.33810568578715" lon="10.739279678733771"><ele>575.0</ele><time>2026-04-18T16:45:00.999Z</time></trkpt><trkpt lat="44.33804263285953" lon="10.739287160583894"><ele>575.0</ele><time>2026-04-18T16:45:01.999Z</time></trkpt><trkpt lat="44.337917195154816" lon="10.73926607893486"><ele>571.6666666666666</ele><time>2026-04-18T16:45:03.999Z</time></trkpt><trkpt lat="44.33783420495987" lon="10.739210508379538"><ele>568.3333333333333</ele><time>2026-04-18T16:45:05.999Z</time></trkpt><trkpt lat="44.33775214318877" lon="10.73920497014209"><ele>565.0</ele><time>2026-04-18T16:45:08.999Z</time></trkpt><trkpt lat="44.33779634852579" lon="10.739362326948292"><ele>561.6666666666666</ele><time>2026-04-18T16:45:11.999Z</time></trkpt><trkpt lat="44.337837782132546" lon="10.739466045633844"><ele>558.3333333333334</ele><time>2026-04-18T16:45:12.999Z</time></trkpt><trkpt lat="44.33786192593759" lon="10.739553455454557"><ele>555.0</ele><time>2026-04-18T16:45:13.999Z</time></trkpt><trkpt lat="44.33781013293367" lon="10.73961774372386"><ele>555.0</ele><time>2026-04-18T16:45:17.999Z</time></trkpt><trkpt lat="44.337765397227905" lon="10.73955301795198"><ele>555.0</ele><time>2026-04-18T16:45:19.998Z</time></trkpt><trkpt lat="44.33770292380404" lon="10.739490577969722"><ele>555.0</ele><time>2026-04-18T16:45:21.998Z</time></trkpt><trkpt lat="44.337646439761016" lon="10.739432173633366"><ele>555.0</ele><time>2026-04-18T16:45:22.998Z</time></trkpt><trkpt lat="44.33756641436579" lon="10.739333810770537"><ele>555.0</ele><time>2026-04-18T16:45:23.998Z</time></trkpt><trkpt lat="44.33745847836694" lon="10.739212067181864"><ele>555.0</ele><time>2026-04-18T16:45:24.999Z</time></trkpt><trkpt lat="44.33737999471416" lon="10.739082749595779"><ele>555.0</ele><time>2026-04-18T16:45:26Z</time></trkpt><trkpt lat="44.33728744362416" lon="10.73897372615492"><ele>555.0</ele><time>2026-04-18T16:45:27Z</time></trkpt><trkpt lat="44.33715053198559" lon="10.738972132666161"><ele>555.0</ele><time>2026-04-18T16:45:29Z</time></trkpt><trkpt lat="44.33708391348406" lon="10.739030986693"><ele>553.75</ele><time>2026-04-18T16:45:30Z</time></trkpt><trkpt lat="44.337022184879224" lon="10.73914901305577"><ele>552.5</ele><time>2026-04-18T16:45:31Z</time></trkpt><trkpt lat="44.33695197623518" lon="10.739290225882211"><ele>551.25</ele><time>2026-04-18T16:45:32Z</time></trkpt><trkpt lat="44.336862976099646" lon="10.739446188549763"><ele>550.0</ele><time>2026-04-18T16:45:33Z</time></trkpt><trkpt lat="44.33675780368717" lon="10.739603501214942"><ele>550.0</ele><time>2026-04-18T16:45:34Z</time></trkpt><trkpt lat="44.33666999884735" lon="10.739738836485586"><ele>550.0</ele><time>2026-04-18T16:45:35Z</time></trkpt><trkpt lat="44.336600099023215" lon="10.739867153167578"><ele>550.0</ele><time>2026-04-18T16:45:36Z</time></trkpt><trkpt lat="44.3365668896275" lon="10.740012490453232"><ele>550.0</ele><time>2026-04-18T16:45:37Z</time></trkpt><trkpt lat="44.33656695085771" lon="10.740165068188983"><ele>552.5</ele><time>2026-04-18T16:45:38Z</time></trkpt><trkpt lat="44.33660039842844" lon="10.740330527279434"><ele>555.0</ele><time>2026-04-18T16:45:39Z</time></trkpt><trkpt lat="44.33665596733031" lon="10.740511598852583"><ele>557.5</ele><time>2026-04-18T16:45:40Z</time></trkpt><trkpt lat="44.33671933579387" lon="10.740681485498687"><ele>560.0</ele><time>2026-04-18T16:45:41Z</time></trkpt><trkpt lat="44.33678608747792" lon="10.740809821615198"><ele>560.0</ele><time>2026-04-18T16:45:42Z</time></trkpt><trkpt lat="44.3368428897795" lon="10.740912353113382"><ele>560.0</ele><time>2026-04-18T16:45:43Z</time></trkpt><trkpt lat="44.336895029985136" lon="10.740998502716847"><ele>560.0</ele><time>2026-04-18T16:45:44Z</time></trkpt><trkpt lat="44.33693105691403" lon="10.741090752294047"><ele>560.0</ele><time>2026-04-18T16:45:46Z</time></trkpt><trkpt lat="44.33686625981661" lon="10.74106095283444"><ele>560.0</ele><time>2026-04-18T16:45:48Z</time></trkpt><trkpt lat="44.33671919228374" lon="10.740994635136985"><ele>560.0</ele><time>2026-04-18T16:45:50Z</time></trkpt><trkpt lat="44.33662923727198" lon="10.740950743094134"><ele>560.0</ele><time>2026-04-18T16:45:51Z</time></trkpt><trkpt lat="44.336518236883734" lon="10.740884500951484"><ele>560.0</ele><time>2026-04-18T16:45:52Z</time></trkpt><trkpt lat="44.336421156296396" lon="10.740822824261702"><ele>560.0</ele><time>2026-04-18T16:45:53Z</time></trkpt><trkpt lat="44.336354014802424" lon="10.74075613821229"><ele>560.0</ele><time>2026-04-18T16:45:54Z</time></trkpt><trkpt lat="44.336266622528015" lon="10.740700621760762"><ele>561.3333333333333</ele><time>2026-04-18T16:45:56Z</time></trkpt><trkpt lat="44.336199640647095" lon="10.740785912865418"><ele>562.6666666666666</ele><time>2026-04-18T16:45:58Z</time></trkpt><trkpt lat="44.33618056405207" lon="10.740892501971846"><ele>564.0</ele><time>2026-04-18T16:45:59Z</time></trkpt><trkpt lat="44.33616178772487" lon="10.741009237128628"><ele>565.3333333333334</ele><time>2026-04-18T16:46:00Z</time></trkpt><trkpt lat="44.33614600768344" lon="10.741119452033885"><ele>566.6666666666667</ele><time>2026-04-18T16:46:01Z</time></trkpt><trkpt lat="44.336146214223355" lon="10.741269220921241"><ele>568.0</ele><time>2026-04-18T16:46:02Z</time></trkpt><trkpt lat="44.33613008793094" lon="10.74141418495933"><ele>569.4</ele><time>2026-04-18T16:46:03Z</time></trkpt><trkpt lat="44.3361230070017" lon="10.741556467220821"><ele>570.8</ele><time>2026-04-18T16:46:04Z</time></trkpt><trkpt lat="44.33610316800364" lon="10.74171935489184"><ele>572.2</ele><time>2026-04-18T16:46:06Z</time></trkpt><trkpt lat="44.33607377178026" lon="10.741823168106304"><ele>573.6</ele><time>2026-04-18T16:46:07Z</time></trkpt><trkpt lat="44.33606240690992" lon="10.741972721564128"><ele>575.0</ele><time>2026-04-18T16:46:08Z</time></trkpt><trkpt lat="44.336052248161025" lon="10.742108229875948"><ele>576.6666666666666</ele><time>2026-04-18T16:46:09Z</time></trkpt><trkpt lat="44.33604561371402" lon="10.742234725738326"><ele>578.3333333333333</ele><time>2026-04-18T16:46:10Z</time></trkpt><trkpt lat="44.33602949028134" lon="10.742354700104702"><ele>580.0</ele><time>2026-04-18T16:46:11Z</time></trkpt><trkpt lat="44.3360252766923" lon="10.742480303298894"><ele>581.6666666666666</ele><time>2026-04-18T16:46:12Z</time></trkpt><trkpt lat="44.33601576791444" lon="10.742592602482409"><ele>583.3333333333334</ele><time>2026-04-18T16:46:13Z</time></trkpt><trkpt lat="44.33599223584694" lon="10.742692662234548"><ele>585.0</ele><time>2026-04-18T16:46:14Z</time></trkpt><trkpt lat="44.335981849270965" lon="10.742800319348824"><ele>586.8333333333334</ele><time>2026-04-18T16:46:14.999Z</time></trkpt><trkpt lat="44.33597430192056" lon="10.742906835458045"><ele>588.6666666666666</ele><time>2026-04-18T16:46:15.999Z</time></trkpt><trkpt lat="44.33596938735818" lon="10.743012383124903"><ele>590.5</ele><time>2026-04-18T16:46:16.999Z</time></trkpt><trkpt lat="44.33597253506169" lon="10.74312552870282"><ele>592.3333333333333</ele><time>2026-04-18T16:46:17.999Z</time></trkpt><trkpt lat="44.33603453241175" lon="10.743247147527146"><ele>594.1666666666666</ele><time>2026-04-18T16:46:19.999Z</time></trkpt><trkpt lat="44.336101391004355" lon="10.743297994934315"><ele>596.0</ele><time>2026-04-18T16:46:20.999Z</time></trkpt><trkpt lat="44.336180444338765" lon="10.743330117593413"><ele>596.0</ele><time>2026-04-18T16:46:21.999Z</time></trkpt><trkpt lat="44.33627771559356" lon="10.743379702888891"><ele>596.0</ele><time>2026-04-18T16:46:23.999Z</time></trkpt><trkpt lat="44.336386224827685" lon="10.743418627942944"><ele>596.0</ele><time>2026-04-18T16:46:25.999Z</time></trkpt><trkpt lat="44.33646118052169" lon="10.74342776451917"><ele>596.0</ele><time>2026-04-18T16:46:26.999Z</time></trkpt><trkpt lat="44.336526492479585" lon="10.743435363798941"><ele>596.0</ele><time>2026-04-18T16:46:27.999Z</time></trkpt><trkpt lat="44.336639301343865" lon="10.743409159945482"><ele>596.6666666666666</ele><time>2026-04-18T16:46:29.999Z</time></trkpt><trkpt lat="44.33675221454983" lon="10.74343241660694"><ele>597.3333333333333</ele><time>2026-04-18T16:46:31.999Z</time></trkpt><trkpt lat="44.33682923459187" lon="10.743526298958617"><ele>598.0</ele><time>2026-04-18T16:46:33.999Z</time></trkpt><trkpt lat="44.336885977831486" lon="10.743587837449441"><ele>598.6666666666666</ele><time>2026-04-18T16:46:34.999Z</time></trkpt><trkpt lat="44.33693415281492" lon="10.74365044954716"><ele>599.3333333333334</ele><time>2026-04-18T16:46:35.999Z</time></trkpt><trkpt lat="44.33697549605032" lon="10.743718579579193"><ele>600.0</ele><time>2026-04-18T16:46:36.999Z</time></trkpt><trkpt lat="44.33704161869351" lon="10.743857757011755"><ele>603.2</ele><time>2026-04-18T16:46:38.999Z</time></trkpt><trkpt lat="44.33712419393195" lon="10.744054927844035"><ele>606.4</ele><time>2026-04-18T16:46:40.999Z</time></trkpt><trkpt lat="44.33714267546117" lon="10.74415609294055"><ele>609.6</ele><time>2026-04-18T16:46:41.999Z</time></trkpt><trkpt lat="44.33717258030739" lon="10.74425913074465"><ele>612.8</ele><time>2026-04-18T16:46:43.999Z</time></trkpt><trkpt lat="44.33708113259474" lon="10.74435839316824"><ele>616.0</ele><time>2026-04-18T16:46:45.999Z</time></trkpt><trkpt lat="44.33701648027641" lon="10.744399791357898"><ele>618.6</ele><time>2026-04-18T16:46:46.999Z</time></trkpt><trkpt lat="44.336965290697336" lon="10.744463853591315"><ele>621.2</ele><time>2026-04-18T16:46:47.999Z</time></trkpt><trkpt lat="44.336934975778874" lon="10.744566124793291"><ele>623.8</ele><time>2026-04-18T16:46:49.999Z</time></trkpt><trkpt lat="44.33696940178551" lon="10.744764582031971"><ele>626.4</ele><time>2026-04-18T16:46:51.999Z</time></trkpt><trkpt lat="44.33695138590566" lon="10.744896098969827"><ele>629.0</ele><time>2026-04-18T16:46:53.999Z</time></trkpt><trkpt lat="44.33691985061649" lon="10.745083583211352"><ele>629.0</ele><time>2026-04-18T16:46:55.999Z</time></trkpt><trkpt lat="44.336909512348576" lon="10.745203785324511"><ele>629.0</ele><time>2026-04-18T16:46:56.999Z</time></trkpt><trkpt lat="44.33687783831073" lon="10.745369260223812"><ele>629.0</ele><time>2026-04-18T16:46:58.999Z</time></trkpt><trkpt lat="44.33688448879529" lon="10.745476396138363"><ele>629.0</ele><time>2026-04-18T16:46:59.999Z</time></trkpt><trkpt lat="44.336905573115125" lon="10.745577941195386"><ele>629.0</ele><time>2026-04-18T16:47:00.999Z</time></trkpt><trkpt lat="44.336932386136944" lon="10.745692810444638"><ele>629.0</ele><time>2026-04-18T16:47:01.999Z</time></trkpt><trkpt lat="44.3369552930229" lon="10.745780266756412"><ele>631.4</ele><time>2026-04-18T16:47:02.999Z</time></trkpt><trkpt lat="44.33700306429049" lon="10.745929556864095"><ele>633.8</ele><time>2026-04-18T16:47:03.999Z</time></trkpt><trkpt lat="44.337081819980554" lon="10.746041577821574"><ele>636.1999999999999</ele><time>2026-04-18T16:47:04.999Z</time></trkpt><trkpt lat="44.33710320712696" lon="10.746170413303583"><ele>638.5999999999999</ele><time>2026-04-18T16:47:06.999Z</time></trkpt><trkpt lat="44.33712999632231" lon="10.74633213592176"><ele>641.0</ele><time>2026-04-18T16:47:08.999Z</time></trkpt><trkpt lat="44.337156906271765" lon="10.746418313079452"><ele>642.5</ele><time>2026-04-18T16:47:09.999Z</time></trkpt><trkpt lat="44.33717246121895" lon="10.74660461301761"><ele>644.0</ele><time>2026-04-18T16:47:11.999Z</time></trkpt><trkpt lat="44.33722061837612" lon="10.74671573531531"><ele>645.5</ele><time>2026-04-18T16:47:12.999Z</time></trkpt><trkpt lat="44.33732815567501" lon="10.746844883475887"><ele>647.0</ele><time>2026-04-18T16:47:14.999Z</time></trkpt><trkpt lat="44.33739135203349" lon="10.74693642788778"><ele>650.0</ele><time>2026-04-18T16:47:15.999Z</time></trkpt><trkpt lat="44.3374338575894" lon="10.747035782796416"><ele>653.0</ele><time>2026-04-18T16:47:17.999Z</time></trkpt><trkpt lat="44.3374337525368" lon="10.747164596075807"><ele>656.0</ele><time>2026-04-18T16:47:19.999Z</time></trkpt><trkpt lat="44.33740569076973" lon="10.747266711262894"><ele>659.0</ele><time>2026-04-18T16:47:20.999Z</time></trkpt><trkpt lat="44.3373804969284" lon="10.747367392200541"><ele>662.0</ele><time>2026-04-18T16:47:21.999Z</time></trkpt><trkpt lat="44.33736878867533" lon="10.747485260166851"><ele>665.0</ele><time>2026-04-18T16:47:22.999Z</time></trkpt><trkpt lat="44.337377922534394" lon="10.747585888963155"><ele>667.8</ele><time>2026-04-18T16:47:23.999Z</time></trkpt><trkpt lat="44.337440453028904" lon="10.747782717557735"><ele>670.6</ele><time>2026-04-18T16:47:25.999Z</time></trkpt><trkpt lat="44.337489588868706" lon="10.747839520943451"><ele>673.4000000000001</ele><time>2026-04-18T16:47:26.999Z</time></trkpt><trkpt lat="44.337559294584494" lon="10.747878011839076"><ele>676.2</ele><time>2026-04-18T16:47:27.999Z</time></trkpt><trkpt lat="44.337614041827656" lon="10.74792331138267"><ele>679.0</ele><time>2026-04-18T16:47:28.999Z</time></trkpt><trkpt lat="44.33768235407801" lon="10.748067892340542"><ele>679.0</ele><time>2026-04-18T16:47:30.999Z</time></trkpt><trkpt lat="44.33766879443077" lon="10.748214633118883"><ele>679.0</ele><time>2026-04-18T16:47:33Z</time></trkpt><trkpt lat="44.33765055505807" lon="10.748303238938107"><ele>679.0</ele><time>2026-04-18T16:47:34Z</time></trkpt><trkpt lat="44.337602699248905" lon="10.748410217721615"><ele>679.0</ele><time>2026-04-18T16:47:35Z</time></trkpt><trkpt lat="44.33755763457322" lon="10.748534937175533"><ele>679.0</ele><time>2026-04-18T16:47:36Z</time></trkpt><trkpt lat="44.33751793110624" lon="10.748628309710645"><ele>679.0</ele><time>2026-04-18T16:47:37Z</time></trkpt><trkpt lat="44.33747498815153" lon="10.748745729909698"><ele>678.8333333333334</ele><time>2026-04-18T16:47:38Z</time></trkpt><trkpt lat="44.337436282445125" lon="10.748837610991194"><ele>678.6666666666667</ele><time>2026-04-18T16:47:39Z</time></trkpt><trkpt lat="44.3373890671424" lon="10.748912853741912"><ele>678.5</ele><time>2026-04-18T16:47:40Z</time></trkpt><trkpt lat="44.337305506826176" lon="10.749068463940931"><ele>678.3333333333334</ele><time>2026-04-18T16:47:41Z</time></trkpt><trkpt lat="44.33727758483465" lon="10.74915724504327"><ele>678.1666666666666</ele><time>2026-04-18T16:47:42Z</time></trkpt><trkpt lat="44.33726413205109" lon="10.749263180217719"><ele>678.0</ele><time>2026-04-18T16:47:43Z</time></trkpt><trkpt lat="44.33724866616843" lon="10.74938998769885"><ele>680.0</ele><time>2026-04-18T16:47:44Z</time></trkpt><trkpt lat="44.33721784523198" lon="10.749502003382512"><ele>682.0</ele><time>2026-04-18T16:47:46Z</time></trkpt><trkpt lat="44.33712505170053" lon="10.74956233708816"><ele>684.0</ele><time>2026-04-18T16:47:49Z</time></trkpt><trkpt lat="44.33702050401801" lon="10.749579217421093"><ele>686.0</ele><time>2026-04-18T16:47:52Z</time></trkpt><trkpt lat="44.336920539179566" lon="10.74959744395634"><ele>688.0</ele><time>2026-04-18T16:47:54Z</time></trkpt><trkpt lat="44.33683425657779" lon="10.7496743523629"><ele>688.0</ele><time>2026-04-18T16:47:56Z</time></trkpt><trkpt lat="44.33674892520531" lon="10.749751395170158"><ele>688.0</ele><time>2026-04-18T16:47:58Z</time></trkpt><trkpt lat="44.336636570736545" lon="10.749699664929484"><ele>688.0</ele><time>2026-04-18T16:48:00Z</time></trkpt><trkpt lat="44.3365458592451" lon="10.749681158957552"><ele>688.0</ele><time>2026-04-18T16:48:02Z</time></trkpt><trkpt lat="44.33648269985472" lon="10.749707770813554"><ele>688.0</ele><time>2026-04-18T16:48:03Z</time></trkpt><trkpt lat="44.336421914387614" lon="10.74975516806303"><ele>688.0</ele><time>2026-04-18T16:48:06Z</time></trkpt><trkpt lat="44.33640908646918" lon="10.749863794003238"><ele>691.1666666666667</ele><time>2026-04-18T16:48:08Z</time></trkpt><trkpt lat="44.33636876444372" lon="10.7499519529328"><ele>694.3333333333334</ele><time>2026-04-18T16:48:11Z</time></trkpt><trkpt lat="44.336341491238564" lon="10.750061368428886"><ele>697.5</ele><time>2026-04-18T16:48:14Z</time></trkpt><trkpt lat="44.336294451280125" lon="10.750170164677666"><ele>700.6666666666666</ele><time>2026-04-18T16:48:17Z</time></trkpt><trkpt lat="44.336249568597374" lon="10.750307421624624"><ele>703.8333333333333</ele><time>2026-04-18T16:48:19Z</time></trkpt><trkpt lat="44.33620595302975" lon="10.750402579739918"><ele>707.0</ele><time>2026-04-18T16:48:21Z</time></trkpt><trkpt lat="44.336102595460325" lon="10.750527872219767"><ele>707.0</ele><time>2026-04-18T16:48:23Z</time></trkpt><trkpt lat="44.33602042140474" lon="10.750592994020298"><ele>707.0</ele><time>2026-04-18T16:48:24Z</time></trkpt><trkpt lat="44.33594398493178" lon="10.750685081889133"><ele>707.0</ele><time>2026-04-18T16:48:25.999Z</time></trkpt><trkpt lat="44.335899026182716" lon="10.750751826401498"><ele>707.0</ele><time>2026-04-18T16:48:26.999Z</time></trkpt><trkpt lat="44.3358650690556" lon="10.750829337049831"><ele>707.0</ele><time>2026-04-18T16:48:27.999Z</time></trkpt><trkpt lat="44.33583192945298" lon="10.750930710948259"><ele>707.0</ele><time>2026-04-18T16:48:28.999Z</time></trkpt><trkpt lat="44.33581310343486" lon="10.751036534316087"><ele>705.2</ele><time>2026-04-18T16:48:30.999Z</time></trkpt><trkpt lat="44.33577872665659" lon="10.751144729811967"><ele>703.4000000000001</ele><time>2026-04-18T16:48:34.999Z</time></trkpt><trkpt lat="44.33578951406823" lon="10.751313387205435"><ele>701.5999999999999</ele><time>2026-04-18T16:48:36.999Z</time></trkpt><trkpt lat="44.33579549255908" lon="10.751404410490776"><ele>699.8</ele><time>2026-04-18T16:48:37.999Z</time></trkpt><trkpt lat="44.335830380268476" lon="10.751528079263798"><ele>698.0</ele><time>2026-04-18T16:49:00.999Z</time></trkpt><trkpt lat="44.33580999737782" lon="10.751656341721022"><ele>698.0</ele><time>2026-04-18T16:49:02.999Z</time></trkpt><trkpt lat="44.33580983479096" lon="10.751749355349938"><ele>698.0</ele><time>2026-04-18T16:49:03.999Z</time></trkpt><trkpt lat="44.335806213633404" lon="10.751887066249381"><ele>698.0</ele><time>2026-04-18T16:49:05.999Z</time></trkpt><trkpt lat="44.33581334425647" lon="10.752007021842777"><ele>698.0</ele><time>2026-04-18T16:49:06.999Z</time></trkpt><trkpt lat="44.33579480608082" lon="10.75209754698998"><ele>698.0</ele><time>2026-04-18T16:49:07.999Z</time></trkpt><trkpt lat="44.33576823778846" lon="10.752217073084813"><ele>698.0</ele><time>2026-04-18T16:49:09.999Z</time></trkpt><trkpt lat="44.33574371441815" lon="10.752343533310848"><ele>696.8333333333333</ele><time>2026-04-18T16:49:12.999Z</time></trkpt><trkpt lat="44.33576719150088" lon="10.752487433534773"><ele>695.6666666666666</ele><time>2026-04-18T16:49:14.999Z</time></trkpt><trkpt lat="44.33580612144469" lon="10.752592344925453"><ele>694.5</ele><time>2026-04-18T16:49:16.999Z</time></trkpt><trkpt lat="44.335866714994715" lon="10.75265038987216"><ele>693.3333333333334</ele><time>2026-04-18T16:49:19.999Z</time></trkpt><trkpt lat="44.3358401058671" lon="10.752730556337884"><ele>692.1666666666667</ele><time>2026-04-18T16:49:21.999Z</time></trkpt><trkpt lat="44.335862258726195" lon="10.75281479601375"><ele>691.0</ele><time>2026-04-18T16:49:23.999Z</time></trkpt><trkpt lat="44.335915315602" lon="10.75286504574587"><ele>694.5999999999999</ele><time>2026-04-18T16:49:25.999Z</time></trkpt><trkpt lat="44.335983297797" lon="10.752909826487269"><ele>698.2</ele><time>2026-04-18T16:49:27.999Z</time></trkpt><trkpt lat="44.336073722540675" lon="10.752957905021967"><ele>701.8</ele><time>2026-04-18T16:49:29.999Z</time></trkpt><trkpt lat="44.33613628454689" lon="10.753033269285963"><ele>705.4000000000001</ele><time>2026-04-18T16:49:31.999Z</time></trkpt><trkpt lat="44.33620494476738" lon="10.75313905801953"><ele>709.0</ele><time>2026-04-18T16:49:33.999Z</time></trkpt><trkpt lat="44.33626013486607" lon="10.753285378027265"><ele>709.0</ele><time>2026-04-18T16:49:35.999Z</time></trkpt><trkpt lat="44.336353898792964" lon="10.753342902854442"><ele>709.0</ele><time>2026-04-18T16:49:38Z</time></trkpt><trkpt lat="44.336422123707585" lon="10.753489119806549"><ele>709.0</ele><time>2026-04-18T16:49:40Z</time></trkpt><trkpt lat="44.33649210778856" lon="10.753513698073977"><ele>709.0</ele><time>2026-04-18T16:49:43Z</time></trkpt><trkpt lat="44.33651851965935" lon="10.753604276837018"><ele>709.0</ele><time>2026-04-18T16:49:45Z</time></trkpt><trkpt lat="44.336557302528924" lon="10.753677880131843"><ele>709.0</ele><time>2026-04-18T16:49:47Z</time></trkpt><trkpt lat="44.33656838940454" lon="10.753774354918816"><ele>709.8333333333334</ele><time>2026-04-18T16:49:49Z</time></trkpt><trkpt lat="44.33663478351796" lon="10.75384231344133"><ele>710.6666666666667</ele><time>2026-04-18T16:49:51Z</time></trkpt><trkpt lat="44.336707302512224" lon="10.75392290150201"><ele>711.5</ele><time>2026-04-18T16:49:53Z</time></trkpt><trkpt lat="44.33677702486482" lon="10.753989199024582"><ele>712.3333333333334</ele><time>2026-04-18T16:49:55Z</time></trkpt><trkpt lat="44.33686106122453" lon="10.75404321776479"><ele>713.1666666666666</ele><time>2026-04-18T16:49:57Z</time></trkpt><trkpt lat="44.33692058494141" lon="10.754117276427726"><ele>714.0</ele><time>2026-04-18T16:49:59Z</time></trkpt><trkpt lat="44.33696318944375" lon="10.75421350649153"><ele>714.0</ele><time>2026-04-18T16:50:01Z</time></trkpt><trkpt lat="44.337044128800976" lon="10.754312727286786"><ele>714.0</ele><time>2026-04-18T16:50:03Z</time></trkpt><trkpt lat="44.33710727935957" lon="10.754376750808204"><ele>714.0</ele><time>2026-04-18T16:50:05Z</time></trkpt><trkpt lat="44.3371082605357" lon="10.754518191125218"><ele>714.0</ele><time>2026-04-18T16:50:08Z</time></trkpt><trkpt lat="44.33714313742748" lon="10.75464754331645"><ele>714.0</ele><time>2026-04-18T16:50:10Z</time></trkpt><trkpt lat="44.337162543194395" lon="10.754800234476987"><ele>715.4000000000001</ele><time>2026-04-18T16:50:12Z</time></trkpt><trkpt lat="44.337184220977136" lon="10.754912430588812"><ele>716.8</ele><time>2026-04-18T16:50:14Z</time></trkpt><trkpt lat="44.33726279537281" lon="10.755050061222626"><ele>718.2</ele><time>2026-04-18T16:50:16Z</time></trkpt><trkpt lat="44.33731045881547" lon="10.755110508208144"><ele>719.5999999999999</ele><time>2026-04-18T16:50:17Z</time></trkpt><trkpt lat="44.33742004427352" lon="10.755197066580456"><ele>721.0</ele><time>2026-04-18T16:50:19Z</time></trkpt><trkpt lat="44.33750171243333" lon="10.755214912577086"><ele>723.8571428571429</ele><time>2026-04-18T16:50:21Z</time></trkpt><trkpt lat="44.33756348196314" lon="10.755291035998242"><ele>726.7142857142858</ele><time>2026-04-18T16:50:23Z</time></trkpt><trkpt lat="44.337546491215676" lon="10.755419986418394"><ele>729.5714285714286</ele><time>2026-04-18T16:50:25Z</time></trkpt><trkpt lat="44.337560428448114" lon="10.755512845379139"><ele>732.4285714285714</ele><time>2026-04-18T16:50:26Z</time></trkpt><trkpt lat="44.337579260381794" lon="10.75561069784299"><ele>735.2857142857143</ele><time>2026-04-18T16:50:27Z</time></trkpt><trkpt lat="44.33760971924146" lon="10.755691132462378"><ele>738.1428571428571</ele><time>2026-04-18T16:50:28Z</time></trkpt><trkpt lat="44.33764710290442" lon="10.755762867925068"><ele>741.0</ele><time>2026-04-18T16:50:29Z</time></trkpt><trkpt lat="44.337691449159315" lon="10.755902139916564"><ele>741.0</ele><time>2026-04-18T16:50:30.999Z</time></trkpt><trkpt lat="44.33771747196048" lon="10.756015012740889"><ele>741.0</ele><time>2026-04-18T16:50:32.999Z</time></trkpt><trkpt lat="44.337776776580945" lon="10.756067729446428"><ele>741.0</ele><time>2026-04-18T16:50:34.999Z</time></trkpt><trkpt lat="44.33783982558578" lon="10.756086422642918"><ele>741.0</ele><time>2026-04-18T16:50:37.999Z</time></trkpt><trkpt lat="44.33790348476984" lon="10.756135948033448"><ele>741.0</ele><time>2026-04-18T16:50:40.999Z</time></trkpt><trkpt lat="44.33794809539632" lon="10.756250003351512"><ele>741.0</ele><time>2026-04-18T16:50:42.999Z</time></trkpt><trkpt lat="44.337982206227366" lon="10.756354506436637"><ele>745.5</ele><time>2026-04-18T16:50:44.999Z</time></trkpt><trkpt lat="44.33803013758866" lon="10.756496054500724"><ele>750.0</ele><time>2026-04-18T16:50:46.999Z</time></trkpt><trkpt lat="44.33806321186598" lon="10.756632548937281"><ele>754.5</ele><time>2026-04-18T16:50:48.999Z</time></trkpt><trkpt lat="44.33808076575141" lon="10.756823882984364"><ele>759.0</ele><time>2026-04-18T16:50:50.999Z</time></trkpt><trkpt lat="44.33815316658369" lon="10.756941190953533"><ele>761.0</ele><time>2026-04-18T16:50:52.999Z</time></trkpt><trkpt lat="44.33820141686915" lon="10.757024508438082"><ele>763.0</ele><time>2026-04-18T16:50:55.999Z</time></trkpt><trkpt lat="44.33820060447496" lon="10.757129201501696"><ele>765.0</ele><time>2026-04-18T16:50:57.999Z</time></trkpt><trkpt lat="44.33813586820273" lon="10.757249520799691"><ele>767.0</ele><time>2026-04-18T16:51:00.999Z</time></trkpt><trkpt lat="44.33811914379467" lon="10.757374454627579"><ele>769.0</ele><time>2026-04-18T16:51:02.999Z</time></trkpt><trkpt lat="44.338105539232984" lon="10.757466564992033"><ele>771.0</ele><time>2026-04-18T16:51:03.999Z</time></trkpt><trkpt lat="44.3381654694787" lon="10.757579987657692"><ele>771.0</ele><time>2026-04-18T16:51:05.999Z</time></trkpt><trkpt lat="44.3382635506275" lon="10.757634045800128"><ele>771.0</ele><time>2026-04-18T16:51:07.999Z</time></trkpt><trkpt lat="44.338330260061916" lon="10.757695001759313"><ele>771.0</ele><time>2026-04-18T16:51:09.999Z</time></trkpt><trkpt lat="44.33838346253875" lon="10.757797903024196"><ele>771.0</ele><time>2026-04-18T16:51:12.999Z</time></trkpt><trkpt lat="44.33840668045296" lon="10.75791548249446"><ele>771.0</ele><time>2026-04-18T16:51:14.999Z</time></trkpt><trkpt lat="44.33841660749299" lon="10.758066336012531"><ele>773.4</ele><time>2026-04-18T16:51:16.999Z</time></trkpt><trkpt lat="44.33844525547786" lon="10.758193868713782"><ele>775.8</ele><time>2026-04-18T16:51:18.999Z</time></trkpt><trkpt lat="44.33846841638981" lon="10.758324838027"><ele>778.1999999999999</ele><time>2026-04-18T16:51:20.999Z</time></trkpt><trkpt lat="44.33852653667977" lon="10.758426597809711"><ele>780.5999999999999</ele><time>2026-04-18T16:51:22.999Z</time></trkpt><trkpt lat="44.338558971891885" lon="10.758525316863905"><ele>783.0</ele><time>2026-04-18T16:51:24.999Z</time></trkpt><trkpt lat="44.338552992572744" lon="10.758669690388734"><ele>786.5999999999999</ele><time>2026-04-18T16:51:26.999Z</time></trkpt><trkpt lat="44.338545299513505" lon="10.758758838248813"><ele>790.1999999999999</ele><time>2026-04-18T16:51:52Z</time></trkpt><trkpt lat="44.33853669474597" lon="10.758852805662224"><ele>793.8</ele><time>2026-04-18T16:51:54Z</time></trkpt><trkpt lat="44.33848985908655" lon="10.75900066231913"><ele>797.4</ele><time>2026-04-18T16:51:57Z</time></trkpt><trkpt lat="44.3384605440991" lon="10.759149948159408"><ele>801.0</ele><time>2026-04-18T16:51:59Z</time></trkpt><trkpt lat="44.338444519889926" lon="10.759284773008146"><ele>802.4</ele><time>2026-04-18T16:52:01Z</time></trkpt><trkpt lat="44.33847824271243" lon="10.759424807774638"><ele>803.8</ele><time>2026-04-18T16:52:03Z</time></trkpt><trkpt lat="44.33851248041549" lon="10.7595342976989"><ele>805.1999999999999</ele><time>2026-04-18T16:52:05Z</time></trkpt><trkpt lat="44.3385139376521" lon="10.759707010286503"><ele>806.5999999999999</ele><time>2026-04-18T16:52:07Z</time></trkpt><trkpt lat="44.338445411344395" lon="10.759857165198088"><ele>808.0</ele><time>2026-04-18T16:52:09Z</time></trkpt><trkpt lat="44.33837247253352" lon="10.759952635281058"><ele>808.0</ele><time>2026-04-18T16:52:11Z</time></trkpt><trkpt lat="44.338272582495385" lon="10.759998668517355"><ele>808.0</ele><time>2026-04-18T16:52:13Z</time></trkpt><trkpt lat="44.33820371866396" lon="10.759991709296084"><ele>808.0</ele><time>2026-04-18T16:52:32.999Z</time></trkpt><trkpt lat="44.33808498303299" lon="10.759949328618688"><ele>808.0</ele><time>2026-04-18T16:52:34.999Z</time></trkpt><trkpt lat="44.337980515760535" lon="10.759908987440772"><ele>808.0</ele><time>2026-04-18T16:52:36.999Z</time></trkpt><trkpt lat="44.33792418914518" lon="10.759868555275427"><ele>811.4999999999999</ele><time>2026-04-18T16:52:38.999Z</time></trkpt><trkpt lat="44.33788273994414" lon="10.759778922327786"><ele>815.0</ele><time>2026-04-18T16:52:40.999Z</time></trkpt><trkpt lat="44.33782971835616" lon="10.759710442010428"><ele>818.5</ele><time>2026-04-18T16:52:41.999Z</time></trkpt><trkpt lat="44.33773554872402" lon="10.759699677534945"><ele>822.0</ele><time>2026-04-18T16:52:43.999Z</time></trkpt><trkpt lat="44.33766426549742" lon="10.75973634766836"><ele>825.4999999999999</ele><time>2026-04-18T16:52:44.999Z</time></trkpt><trkpt lat="44.33756875598936" lon="10.75973923076296"><ele>829.0</ele><time>2026-04-18T16:52:46.999Z</time></trkpt><trkpt lat="44.33749365066381" lon="10.75977407913114"><ele>828.9999999999999</ele><time>2026-04-18T16:52:47.999Z</time></trkpt><trkpt lat="44.337411354073225" lon="10.759843401250532"><ele>829.0</ele><time>2026-04-18T16:52:48.999Z</time></trkpt><trkpt lat="44.33733156289993" lon="10.759920266593403"><ele>829.0</ele><time>2026-04-18T16:52:49.999Z</time></trkpt><trkpt lat="44.3372887597958" lon="10.759987497044746"><ele>829.0</ele><time>2026-04-18T16:52:50.999Z</time></trkpt><trkpt lat="44.337226368964664" lon="10.760091640017277"><ele>828.9999999999999</ele><time>2026-04-18T16:52:52.999Z</time></trkpt><trkpt lat="44.33717038424275" lon="10.760160600795752"><ele>829.0</ele><time>2026-04-18T16:53:04.999Z</time></trkpt><trkpt lat="44.3371014126778" lon="10.760281871203327"><ele>833.0</ele><time>2026-04-18T16:53:06.999Z</time></trkpt><trkpt lat="44.3370167991024" lon="10.760478627522957"><ele>837.0</ele><time>2026-04-18T16:53:08.999Z</time></trkpt><trkpt lat="44.336978339779506" lon="10.760602554046232"><ele>841.0</ele><time>2026-04-18T16:53:09.999Z</time></trkpt><trkpt lat="44.33694127361046" lon="10.760708451552723"><ele>845.0</ele><time>2026-04-18T16:53:10.999Z</time></trkpt><trkpt lat="44.336900673271415" lon="10.760786932734117"><ele>849.0</ele><time>2026-04-18T16:53:11.999Z</time></trkpt><trkpt lat="44.33684471444621" lon="10.760885227603424"><ele>849.0</ele><time>2026-04-18T16:53:12.999Z</time></trkpt><trkpt lat="44.336755894869775" lon="10.760971132265155"><ele>849.0</ele><time>2026-04-18T16:53:14.999Z</time></trkpt><trkpt lat="44.336692135090026" lon="10.761021137716744"><ele>849.0</ele><time>2026-04-18T16:53:15.999Z</time></trkpt><trkpt lat="44.33659799940207" lon="10.761054245617762"><ele>849.0</ele><time>2026-04-18T16:53:16.999Z</time></trkpt><trkpt lat="44.33649956364242" lon="10.761093617759018"><ele>849.0</ele><time>2026-04-18T16:53:17.999Z</time></trkpt><trkpt lat="44.33640211118102" lon="10.76114917440227"><ele>850.0</ele><time>2026-04-18T16:53:18.999Z</time></trkpt><trkpt lat="44.33630075618073" lon="10.76118236429779"><ele>851.0</ele><time>2026-04-18T16:53:19.999Z</time></trkpt><trkpt lat="44.3362304877504" lon="10.761222935350169"><ele>852.0</ele><time>2026-04-18T16:53:20.999Z</time></trkpt><trkpt lat="44.33616666080675" lon="10.761267747477932"><ele>853.0</ele><time>2026-04-18T16:53:21.999Z</time></trkpt><trkpt lat="44.336064216407685" lon="10.76134170851688"><ele>854.0</ele><time>2026-04-18T16:53:23.999Z</time></trkpt><trkpt lat="44.3360075043006" lon="10.76139390940286"><ele>855.0</ele><time>2026-04-18T16:53:24.999Z</time></trkpt><trkpt lat="44.3358940748491" lon="10.761450752343311"><ele>855.0</ele><time>2026-04-18T16:53:26.999Z</time></trkpt><trkpt lat="44.335766329791475" lon="10.761487014295058"><ele>855.0</ele><time>2026-04-18T16:53:28.999Z</time></trkpt><trkpt lat="44.3356774507272" lon="10.761575949156372"><ele>855.0</ele><time>2026-04-18T16:53:30.999Z</time></trkpt><trkpt lat="44.335600730407805" lon="10.76175281606218"><ele>855.0</ele><time>2026-04-18T16:53:32.999Z</time></trkpt><trkpt lat="44.335552601658684" lon="10.76183354611682"><ele>854.8333333333334</ele><time>2026-04-18T16:53:33.999Z</time></trkpt><trkpt lat="44.33550980051445" lon="10.761926484330921"><ele>854.6666666666667</ele><time>2026-04-18T16:53:34.999Z</time></trkpt><trkpt lat="44.33545626138717" lon="10.762023723307852"><ele>854.5</ele><time>2026-04-18T16:53:35.999Z</time></trkpt><trkpt lat="44.33541058770114" lon="10.762095885169247"><ele>854.3333333333334</ele><time>2026-04-18T16:53:36.999Z</time></trkpt><trkpt lat="44.335323899333005" lon="10.762196664674542"><ele>854.1666666666667</ele><time>2026-04-18T16:53:38.999Z</time></trkpt><trkpt lat="44.33526484254306" lon="10.76227346579879"><ele>854.0</ele><time>2026-04-18T16:53:39.999Z</time></trkpt><trkpt lat="44.335210178344646" lon="10.76234902834968"><ele>854.0000000000001</ele><time>2026-04-18T16:53:40.999Z</time></trkpt><trkpt lat="44.33515969206784" lon="10.762448547051784"><ele>854.0</ele><time>2026-04-18T16:53:41.999Z</time></trkpt><trkpt lat="44.335109095628276" lon="10.762531492817088"><ele>854.0</ele><time>2026-04-18T16:53:42.999Z</time></trkpt><trkpt lat="44.335051740237" lon="10.762591282900898"><ele>854.0</ele><time>2026-04-18T16:53:43.999Z</time></trkpt><trkpt lat="44.334995246533126" lon="10.762645767856668"><ele>854.0000000000001</ele><time>2026-04-18T16:53:44.999Z</time></trkpt><trkpt lat="44.33492168701888" lon="10.762690138256707"><ele>854.0</ele><time>2026-04-18T16:53:45.999Z</time></trkpt><trkpt lat="44.33483377740045" lon="10.76272587297096"><ele>853.1666666666667</ele><time>2026-04-18T16:53:46.998Z</time></trkpt><trkpt lat="44.33473853898237" lon="10.762756494700831"><ele>852.3333333333334</ele><time>2026-04-18T16:53:47.998Z</time></trkpt><trkpt lat="44.33466176296453" lon="10.762782624801511"><ele>851.5</ele><time>2026-04-18T16:53:48.998Z</time></trkpt><trkpt lat="44.33459680794561" lon="10.76280622023791"><ele>850.6666666666667</ele><time>2026-04-18T16:53:50Z</time></trkpt><trkpt lat="44.33452552961502" lon="10.762818906569585"><ele>849.8333333333334</ele><time>2026-04-18T16:53:51Z</time></trkpt><trkpt lat="44.33444953622474" lon="10.762842262865382"><ele>849.0</ele><time>2026-04-18T16:53:52Z</time></trkpt><trkpt lat="44.33438539049768" lon="10.762869170138543"><ele>849.0</ele><time>2026-04-18T16:53:53Z</time></trkpt><trkpt lat="44.334310789184265" lon="10.76290436655182"><ele>849.0</ele><time>2026-04-18T16:53:54Z</time></trkpt><trkpt lat="44.3342105924457" lon="10.762948656112336"><ele>849.0</ele><time>2026-04-18T16:53:55Z</time></trkpt><trkpt lat="44.33414071055443" lon="10.762989246220867"><ele>849.0</ele><time>2026-04-18T16:53:56Z</time></trkpt><trkpt lat="44.334074596962324" lon="10.76302468081151"><ele>849.0</ele><time>2026-04-18T16:53:57Z</time></trkpt><trkpt lat="44.333995026951165" lon="10.763038847217876"><ele>849.0</ele><time>2026-04-18T16:53:58Z</time></trkpt><trkpt lat="44.333925162263384" lon="10.76303430005029"><ele>849.6666666666666</ele><time>2026-04-18T16:53:59Z</time></trkpt><trkpt lat="44.33384919945797" lon="10.763023034908063"><ele>850.3333333333333</ele><time>2026-04-18T16:54:00Z</time></trkpt><trkpt lat="44.33379080257489" lon="10.762983900009548"><ele>851.0</ele><time>2026-04-18T16:54:01Z</time></trkpt><trkpt lat="44.333723945218445" lon="10.762914347454897"><ele>851.6666666666666</ele><time>2026-04-18T16:54:03Z</time></trkpt><trkpt lat="44.33363991380299" lon="10.762882517389862"><ele>852.3333333333333</ele><time>2026-04-18T16:54:09Z</time></trkpt><trkpt lat="44.333565621562144" lon="10.76284221735305"><ele>853.0</ele><time>2026-04-18T16:54:13Z</time></trkpt><trkpt lat="44.33348664081474" lon="10.762711885988088"><ele>852.0</ele><time>2026-04-18T16:54:16Z</time></trkpt><trkpt lat="44.333395593471664" lon="10.762602660440015"><ele>851.0</ele><time>2026-04-18T16:54:18Z</time></trkpt><trkpt lat="44.33333739976227" lon="10.762535873374226"><ele>850.0</ele><time>2026-04-18T16:54:19Z</time></trkpt><trkpt lat="44.3332233082793" lon="10.762456225484012"><ele>849.0</ele><time>2026-04-18T16:54:21Z</time></trkpt><trkpt lat="44.333159047662484" lon="10.762414850796976"><ele>848.0</ele><time>2026-04-18T16:54:22Z</time></trkpt><trkpt lat="44.33308277870514" lon="10.762356599179693"><ele>847.8</ele><time>2026-04-18T16:54:23Z</time></trkpt><trkpt lat="44.33300942983443" lon="10.762305409480637"><ele>847.5999999999999</ele><time>2026-04-18T16:54:24Z</time></trkpt><trkpt lat="44.33289395140378" lon="10.76227092384739"><ele>847.4000000000001</ele><time>2026-04-18T16:54:26Z</time></trkpt><trkpt lat="44.33280355184542" lon="10.762236047625995"><ele>847.2</ele><time>2026-04-18T16:54:28Z</time></trkpt><trkpt lat="44.33272913576722" lon="10.762224070456615"><ele>847.0</ele><time>2026-04-18T16:54:30Z</time></trkpt><trkpt lat="44.332635475347665" lon="10.762224681513986"><ele>846.9999999999999</ele><time>2026-04-18T16:54:31Z</time></trkpt><trkpt lat="44.33253414560225" lon="10.76222945837293"><ele>847.0</ele><time>2026-04-18T16:54:31.999Z</time></trkpt><trkpt lat="44.33246652379831" lon="10.76223763511806"><ele>847.0</ele><time>2026-04-18T16:54:32.999Z</time></trkpt><trkpt lat="44.33236776766438" lon="10.762233076036852"><ele>847.0</ele><time>2026-04-18T16:54:34.999Z</time></trkpt><trkpt lat="44.332292885679045" lon="10.762223097532782"><ele>846.9999999999999</ele><time>2026-04-18T16:54:35.999Z</time></trkpt><trkpt lat="44.33220086148686" lon="10.762177896032767"><ele>847.0</ele><time>2026-04-18T16:54:36.999Z</time></trkpt><trkpt lat="44.332094809729114" lon="10.762108821057799"><ele>847.0</ele><time>2026-04-18T16:54:38.999Z</time></trkpt><trkpt lat="44.33195840860328" lon="10.762082042391597"><ele>847.0</ele><time>2026-04-18T16:54:40.999Z</time></trkpt><trkpt lat="44.331875103344146" lon="10.762057067792243"><ele>847.0</ele><time>2026-04-18T16:54:41.999Z</time></trkpt><trkpt lat="44.33178699204047" lon="10.76204380909532"><ele>847.0</ele><time>2026-04-18T16:54:42.999Z</time></trkpt><trkpt lat="44.33171862717175" lon="10.762034001467772"><ele>847.0</ele><time>2026-04-18T16:54:43.999Z</time></trkpt><trkpt lat="44.331579774257705" lon="10.76197091350095"><ele>847.0</ele><time>2026-04-18T16:54:44.999Z</time></trkpt><trkpt lat="44.33148216177982" lon="10.761943385782843"><ele>847.0</ele><time>2026-04-18T16:54:45.999Z</time></trkpt><trkpt lat="44.3313515214314" lon="10.761908833106911"><ele>847.0</ele><time>2026-04-18T16:54:46.999Z</time></trkpt><trkpt lat="44.33124583226935" lon="10.761877912128352"><ele>847.0</ele><time>2026-04-18T16:54:47.999Z</time></trkpt><trkpt lat="44.3311483190406" lon="10.761844617804233"><ele>847.0</ele><time>2026-04-18T16:54:48.999Z</time></trkpt><trkpt lat="44.331047517393074" lon="10.761829252738043"><ele>849.4999999999999</ele><time>2026-04-18T16:54:49.999Z</time></trkpt><trkpt lat="44.330942711010216" lon="10.761829144547264"><ele>852.0</ele><time>2026-04-18T16:54:50.999Z</time></trkpt><trkpt lat="44.33084267969513" lon="10.761840382072537"><ele>854.5</ele><time>2026-04-18T16:54:51.999Z</time></trkpt><trkpt lat="44.33076875233858" lon="10.761842896076237"><ele>857.0</ele><time>2026-04-18T16:54:52.999Z</time></trkpt><trkpt lat="44.330689704166836" lon="10.761853675714788"><ele>859.4999999999999</ele><time>2026-04-18T16:54:53.999Z</time></trkpt><trkpt lat="44.330614921066" lon="10.761837864859926"><ele>862.0</ele><time>2026-04-18T16:54:54.999Z</time></trkpt><trkpt lat="44.33054737061002" lon="10.761824649487489"><ele>862.4000000000001</ele><time>2026-04-18T16:54:55.999Z</time></trkpt><trkpt lat="44.33045582975812" lon="10.76181162911441"><ele>862.8000000000001</ele><time>2026-04-18T16:54:56.999Z</time></trkpt><trkpt lat="44.33038170272379" lon="10.761805035469944"><ele>863.2</ele><time>2026-04-18T16:54:57.999Z</time></trkpt><trkpt lat="44.33024306388014" lon="10.761760887470325"><ele>863.6</ele><time>2026-04-18T16:54:59.999Z</time></trkpt><trkpt lat="44.33016368096527" lon="10.761740647524293"><ele>864.0</ele><time>2026-04-18T16:55:00.999Z</time></trkpt><trkpt lat="44.33008549929158" lon="10.761723737973725"><ele>864.0</ele><time>2026-04-18T16:55:01.999Z</time></trkpt><trkpt lat="44.33002166875141" lon="10.761675915678191"><ele>864.0</ele><time>2026-04-18T16:55:02.999Z</time></trkpt><trkpt lat="44.32996237434953" lon="10.761641229177853"><ele>864.0</ele><time>2026-04-18T16:55:03.999Z</time></trkpt><trkpt lat="44.32989138867131" lon="10.761593173324139"><ele>864.0</ele><time>2026-04-18T16:55:04.999Z</time></trkpt><trkpt lat="44.32981203417716" lon="10.761564366203174"><ele>864.0</ele><time>2026-04-18T16:55:05.999Z</time></trkpt><trkpt lat="44.329722706123356" lon="10.76150973496791"><ele>864.0</ele><time>2026-04-18T16:55:06.999Z</time></trkpt><trkpt lat="44.329643331897664" lon="10.761477068588013"><ele>865.0</ele><time>2026-04-18T16:55:07.999Z</time></trkpt><trkpt lat="44.32957210004406" lon="10.761456852694215"><ele>866.0</ele><time>2026-04-18T16:55:08.999Z</time></trkpt><trkpt lat="44.32951271912039" lon="10.761403127195216"><ele>867.0</ele><time>2026-04-18T16:55:09.999Z</time></trkpt><trkpt lat="44.32944922241089" lon="10.761349186957325"><ele>868.0</ele><time>2026-04-18T16:55:10.999Z</time></trkpt><trkpt lat="44.32938831701918" lon="10.761278753692077"><ele>869.0</ele><time>2026-04-18T16:55:11.999Z</time></trkpt><trkpt lat="44.32932478884524" lon="10.761217741878646"><ele>870.0</ele><time>2026-04-18T16:55:12.999Z</time></trkpt><trkpt lat="44.32925036537295" lon="10.761180268681004"><ele>870.0</ele><time>2026-04-18T16:55:13.999Z</time></trkpt><trkpt lat="44.32917553418728" lon="10.761163623391402"><ele>870.0</ele><time>2026-04-18T16:55:14.999Z</time></trkpt><trkpt lat="44.329125909875025" lon="10.761105521207085"><ele>870.0</ele><time>2026-04-18T16:55:15.999Z</time></trkpt><trkpt lat="44.329068807861255" lon="10.761031105851782"><ele>870.0</ele><time>2026-04-18T16:55:16.999Z</time></trkpt><trkpt lat="44.32900009426297" lon="10.761002067649974"><ele>870.0</ele><time>2026-04-18T16:55:17.999Z</time></trkpt><trkpt lat="44.32885301547145" lon="10.760908619215792"><ele>870.3333333333334</ele><time>2026-04-18T16:55:19.999Z</time></trkpt><trkpt lat="44.328777264232826" lon="10.760864741109211"><ele>870.6666666666667</ele><time>2026-04-18T16:55:20.999Z</time></trkpt><trkpt lat="44.32870134701317" lon="10.760877256591085"><ele>871.0</ele><time>2026-04-18T16:55:21.999Z</time></trkpt><trkpt lat="44.328605147969746" lon="10.760883339188283"><ele>871.3333333333334</ele><time>2026-04-18T16:55:22.999Z</time></trkpt><trkpt lat="44.32853927587852" lon="10.760852619980607"><ele>871.6666666666667</ele><time>2026-04-18T16:55:23.999Z</time></trkpt><trkpt lat="44.32844400516593" lon="10.760865386871224"><ele>872.0</ele><time>2026-04-18T16:55:33.999Z</time></trkpt><trkpt lat="44.328367204257276" lon="10.760846273762171"><ele>872.0000000000001</ele><time>2026-04-18T16:55:34.999Z</time></trkpt><trkpt lat="44.328294044202735" lon="10.76084038253501"><ele>872.0</ele><time>2026-04-18T16:55:35.999Z</time></trkpt><trkpt lat="44.32822800469883" lon="10.760849465337575"><ele>872.0</ele><time>2026-04-18T16:55:36.999Z</time></trkpt><trkpt lat="44.32816296973416" lon="10.760854638086183"><ele>872.0</ele><time>2026-04-18T16:55:37.999Z</time></trkpt><trkpt lat="44.32805365891661" lon="10.760899137236484"><ele>872.0000000000001</ele><time>2026-04-18T16:55:39.999Z</time></trkpt><trkpt lat="44.32797592804794" lon="10.760918219936883"><ele>872.0</ele><time>2026-04-18T16:55:41.999Z</time></trkpt><trkpt lat="44.32788316480045" lon="10.760989126775693"><ele>875.6666666666667</ele><time>2026-04-18T16:55:44.999Z</time></trkpt><trkpt lat="44.327817644829054" lon="10.761052193165137"><ele>879.3333333333334</ele><time>2026-04-18T16:55:45.999Z</time></trkpt><trkpt lat="44.32771429226774" lon="10.761118307821658"><ele>883.0</ele><time>2026-04-18T16:55:46.998Z</time></trkpt><trkpt lat="44.32764933772685" lon="10.761156621436912"><ele>886.6666666666667</ele><time>2026-04-18T16:55:47.998Z</time></trkpt><trkpt lat="44.327570127864" lon="10.76127128073909"><ele>890.3333333333334</ele><time>2026-04-18T16:55:49.998Z</time></trkpt><trkpt lat="44.3275368615614" lon="10.761354202687302"><ele>894.0</ele><time>2026-04-18T16:55:50.998Z</time></trkpt><trkpt lat="44.32749673826344" lon="10.76143895388782"><ele>894.0</ele><time>2026-04-18T16:55:51.998Z</time></trkpt><trkpt lat="44.32744603910439" lon="10.761517803222349"><ele>894.0</ele><time>2026-04-18T16:55:52.998Z</time></trkpt><trkpt lat="44.32739347736965" lon="10.761574473666046"><ele>894.0</ele><time>2026-04-18T16:55:53.998Z</time></trkpt><trkpt lat="44.32729555118968" lon="10.761607360982108"><ele>894.0</ele><time>2026-04-18T16:55:57Z</time></trkpt><trkpt lat="44.327217368812725" lon="10.761605306506667"><ele>894.0</ele><time>2026-04-18T16:55:59Z</time></trkpt><trkpt lat="44.327142864453876" lon="10.761552001872127"><ele>894.0</ele><time>2026-04-18T16:56:02Z</time></trkpt><trkpt lat="44.32716387759248" lon="10.761423335794927"><ele>898.0</ele><time>2026-04-18T16:56:05Z</time></trkpt><trkpt lat="44.32717587123257" lon="10.76128025902233"><ele>902.0000000000001</ele><time>2026-04-18T16:56:07Z</time></trkpt><trkpt lat="44.327116957103854" lon="10.76119640464371"><ele>906.0000000000001</ele><time>2026-04-18T16:56:09Z</time></trkpt><trkpt lat="44.32702527280978" lon="10.761228607611411"><ele>910.0</ele><time>2026-04-18T16:56:11Z</time></trkpt><trkpt lat="44.326965049285526" lon="10.761327155631815"><ele>914.0</ele><time>2026-04-18T16:56:13Z</time></trkpt><trkpt lat="44.326949996705345" lon="10.761442747281627"><ele>914.0000000000001</ele><time>2026-04-18T16:56:15Z</time></trkpt><trkpt lat="44.326937644202815" lon="10.761554176584822"><ele>914.0</ele><time>2026-04-18T16:56:17Z</time></trkpt><trkpt lat="44.326927106466115" lon="10.761664341422776"><ele>914.0</ele><time>2026-04-18T16:56:19Z</time></trkpt><trkpt lat="44.32692056477976" lon="10.761754900661813"><ele>914.0</ele><time>2026-04-18T16:56:21Z</time></trkpt><trkpt lat="44.32690790799399" lon="10.761843056062842"><ele>914.0000000000001</ele><time>2026-04-18T16:56:24Z</time></trkpt><trkpt lat="44.32687996633156" lon="10.762055883933852"><ele>914.0</ele><time>2026-04-18T16:58:14Z</time></trkpt><trkpt lat="44.32684741625063" lon="10.762245638342229"><ele>913.2</ele><time>2026-04-18T16:58:15.999Z</time></trkpt><trkpt lat="44.32685119750358" lon="10.762350704230496"><ele>912.4000000000001</ele><time>2026-04-18T16:58:16.999Z</time></trkpt><trkpt lat="44.326820566486475" lon="10.76244809047763"><ele>911.6</ele><time>2026-04-18T16:58:18.999Z</time></trkpt><trkpt lat="44.32676154943972" lon="10.762570303592708"><ele>910.8</ele><time>2026-04-18T16:58:20.999Z</time></trkpt><trkpt lat="44.326726122563166" lon="10.762650226819797"><ele>910.0</ele><time>2026-04-18T16:58:21.999Z</time></trkpt><trkpt lat="44.3265976104725" lon="10.762737637508419"><ele>910.8</ele><time>2026-04-18T16:58:23.999Z</time></trkpt><trkpt lat="44.326527486144435" lon="10.76279111788086"><ele>911.6</ele><time>2026-04-18T16:58:24.999Z</time></trkpt><trkpt lat="44.326467854770954" lon="10.762835781303327"><ele>912.4000000000001</ele><time>2026-04-18T16:58:26.999Z</time></trkpt><trkpt lat="44.326346036663296" lon="10.762947138600968"><ele>913.2</ele><time>2026-04-18T16:58:27.999Z</time></trkpt><trkpt lat="44.32627434958524" lon="10.76300778796551"><ele>914.0</ele><time>2026-04-18T16:58:28.999Z</time></trkpt><trkpt lat="44.32621277558743" lon="10.763086622363849"><ele>914.0</ele><time>2026-04-18T16:58:29.999Z</time></trkpt><trkpt lat="44.32614433320765" lon="10.763188505905367"><ele>914.0000000000001</ele><time>2026-04-18T16:58:30.999Z</time></trkpt><trkpt lat="44.32609414611316" lon="10.763278602400364"><ele>914.0000000000001</ele><time>2026-04-18T16:58:31.999Z</time></trkpt><trkpt lat="44.326054946509096" lon="10.763431520604499"><ele>914.0</ele><time>2026-04-18T16:58:33.999Z</time></trkpt><trkpt lat="44.32603007588951" lon="10.763563628787388"><ele>914.0</ele><time>2026-04-18T16:58:35.999Z</time></trkpt><trkpt lat="44.326028709017386" lon="10.763726255980943"><ele>912.5000000000001</ele><time>2026-04-18T16:58:37.999Z</time></trkpt><trkpt lat="44.326055254332324" lon="10.763887872477392"><ele>911.0</ele><time>2026-04-18T16:58:39.999Z</time></trkpt><trkpt lat="44.32607860640918" lon="10.763970893942231"><ele>909.5</ele><time>2026-04-18T16:58:40.999Z</time></trkpt><trkpt lat="44.32608700407443" lon="10.764067771277958"><ele>908.0</ele><time>2026-04-18T16:58:41.999Z</time></trkpt><trkpt lat="44.326096831359315" lon="10.76415477671015"><ele>906.5000000000001</ele><time>2026-04-18T16:58:42.999Z</time></trkpt><trkpt lat="44.32610214001271" lon="10.764297940604502"><ele>905.0</ele><time>2026-04-18T16:58:44.999Z</time></trkpt><trkpt lat="44.32610396050901" lon="10.764389565165924"><ele>902.8</ele><time>2026-04-18T16:58:45.999Z</time></trkpt><trkpt lat="44.326102893264995" lon="10.76450452312828"><ele>900.6</ele><time>2026-04-18T16:58:46.999Z</time></trkpt><trkpt lat="44.3260693932048" lon="10.764652356820267"><ele>898.4000000000001</ele><time>2026-04-18T16:58:48.999Z</time></trkpt><trkpt lat="44.32597019131197" lon="10.764766234468004"><ele>896.2</ele><time>2026-04-18T16:58:50.999Z</time></trkpt><trkpt lat="44.3258993265191" lon="10.764805162042842"><ele>894.0</ele><time>2026-04-18T16:58:51.999Z</time></trkpt><trkpt lat="44.325835184062896" lon="10.764819514254617"><ele>894.0</ele><time>2026-04-18T16:58:52.999Z</time></trkpt><trkpt lat="44.325722544885856" lon="10.764872436630352"><ele>894.0000000000001</ele><time>2026-04-18T16:58:54.999Z</time></trkpt><trkpt lat="44.325602779834504" lon="10.764978781521666"><ele>894.0000000000001</ele><time>2026-04-18T16:58:56.999Z</time></trkpt><trkpt lat="44.325546940941656" lon="10.765021704104088"><ele>894.0</ele><time>2026-04-18T16:58:57.999Z</time></trkpt><trkpt lat="44.32544255767358" lon="10.765063527829216"><ele>894.0</ele><time>2026-04-18T16:58:59.999Z</time></trkpt><trkpt lat="44.325341185402614" lon="10.765181362615607"><ele>890.4000000000001</ele><time>2026-04-18T16:59:01.999Z</time></trkpt><trkpt lat="44.325290987773236" lon="10.765234565985157"><ele>886.8000000000001</ele><time>2026-04-18T16:59:02.999Z</time></trkpt><trkpt lat="44.32517736730639" lon="10.765291569151168"><ele>883.1999999999999</ele><time>2026-04-18T16:59:04.999Z</time></trkpt><trkpt lat="44.32511248843046" lon="10.765317808543967"><ele>879.5999999999999</ele><time>2026-04-18T16:59:05.999Z</time></trkpt><trkpt lat="44.32498673463828" lon="10.76541091193212"><ele>876.0</ele><time>2026-04-18T16:59:07.999Z</time></trkpt><trkpt lat="44.3249087370662" lon="10.765483766504932"><ele>876.0</ele><time>2026-04-18T16:59:08.999Z</time></trkpt><trkpt lat="44.324850704188265" lon="10.765529070656438"><ele>876.0</ele><time>2026-04-18T16:59:09.999Z</time></trkpt><trkpt lat="44.32473487973318" lon="10.76558224222021"><ele>876.0</ele><time>2026-04-18T16:59:11.999Z</time></trkpt><trkpt lat="44.3246736957049" lon="10.765604953852604"><ele>876.0</ele><time>2026-04-18T16:59:12.999Z</time></trkpt><trkpt lat="44.32461232448689" lon="10.765627064426948"><ele>876.0</ele><time>2026-04-18T16:59:13.999Z</time></trkpt><trkpt lat="44.32454227151649" lon="10.76567040452019"><ele>876.0</ele><time>2026-04-18T16:59:14.999Z</time></trkpt><trkpt lat="44.32448853315416" lon="10.76572665243027"><ele>876.8333333333334</ele><time>2026-04-18T16:59:15.999Z</time></trkpt><trkpt lat="44.32443116160671" lon="10.765782467842028"><ele>877.6666666666667</ele><time>2026-04-18T16:59:16.999Z</time></trkpt><trkpt lat="44.32436059210084" lon="10.765850480074862"><ele>878.5</ele><time>2026-04-18T16:59:17.999Z</time></trkpt><trkpt lat="44.32430146507979" lon="10.765887715209047"><ele>879.3333333333334</ele><time>2026-04-18T16:59:18.999Z</time></trkpt><trkpt lat="44.32423602477631" lon="10.765928288029281"><ele>880.1666666666667</ele><time>2026-04-18T16:59:19.999Z</time></trkpt><trkpt lat="44.32417088206238" lon="10.76596352112331"><ele>881.0</ele><time>2026-04-18T16:59:20.999Z</time></trkpt><trkpt lat="44.324071530503986" lon="10.765975674192006"><ele>881.0</ele><time>2026-04-18T16:59:22.999Z</time></trkpt><trkpt lat="44.32396483994662" lon="10.765973252449752"><ele>880.9999999999999</ele><time>2026-04-18T16:59:24.999Z</time></trkpt><trkpt lat="44.32389343233186" lon="10.76600361551825"><ele>880.9999999999999</ele><time>2026-04-18T16:59:25.999Z</time></trkpt><trkpt lat="44.32373939346224" lon="10.766004718341502"><ele>881.0</ele><time>2026-04-18T16:59:27.999Z</time></trkpt><trkpt lat="44.323651179018505" lon="10.76599721773158"><ele>881.0</ele><time>2026-04-18T16:59:28.999Z</time></trkpt><trkpt lat="44.323556481589215" lon="10.765973263537632"><ele>879.8</ele><time>2026-04-18T16:59:29.999Z</time></trkpt><trkpt lat="44.323420227515015" lon="10.765918547419405"><ele>878.5999999999999</ele><time>2026-04-18T16:59:30.999Z</time></trkpt><trkpt lat="44.32332963700063" lon="10.765885364292611"><ele>877.4</ele><time>2026-04-18T16:59:31.999Z</time></trkpt><trkpt lat="44.323257950269365" lon="10.765852939377762"><ele>876.2</ele><time>2026-04-18T16:59:32.999Z</time></trkpt><trkpt lat="44.32317702845962" lon="10.76582979794203"><ele>875.0</ele><time>2026-04-18T16:59:34.999Z</time></trkpt><trkpt lat="44.32311635610919" lon="10.765929794242894"><ele>874.0</ele><time>2026-04-18T16:59:37.998Z</time></trkpt><trkpt lat="44.3232119464859" lon="10.766088688296325"><ele>873.0</ele><time>2026-04-18T16:59:39.998Z</time></trkpt><trkpt lat="44.3232649495604" lon="10.766242216922375"><ele>872.0</ele><time>2026-04-18T16:59:41.998Z</time></trkpt><trkpt lat="44.32328584088232" lon="10.766370510628688"><ele>871.0</ele><time>2026-04-18T16:59:43.998Z</time></trkpt><trkpt lat="44.3233958018128" lon="10.766414404370645"><ele>871.0</ele><time>2026-04-18T16:59:46.998Z</time></trkpt><trkpt lat="44.323472485594586" lon="10.766440203492637"><ele>870.9999999999999</ele><time>2026-04-18T16:59:48.998Z</time></trkpt><trkpt lat="44.32356766153208" lon="10.766451112495412"><ele>870.9999999999999</ele><time>2026-04-18T16:59:50.998Z</time></trkpt><trkpt lat="44.32367038363857" lon="10.766415124503636"><ele>871.0</ele><time>2026-04-18T16:59:52.998Z</time></trkpt><trkpt lat="44.323764745638584" lon="10.76640245170651"><ele>871.0</ele><time>2026-04-18T16:59:54.998Z</time></trkpt><trkpt lat="44.323897034834744" lon="10.766469341238798"><ele>869.9999999999999</ele><time>2026-04-18T16:59:56.998Z</time></trkpt><trkpt lat="44.32396395269831" lon="10.76649727932895"><ele>869.0</ele><time>2026-04-18T16:59:57.998Z</time></trkpt><trkpt lat="44.32403013592956" lon="10.76650792387244"><ele>868.0</ele><time>2026-04-18T16:59:58.998Z</time></trkpt><trkpt lat="44.32409663953728" lon="10.76651494450158"><ele>867.0</ele><time>2026-04-18T16:59:59.998Z</time></trkpt><trkpt lat="44.32422310172293" lon="10.766544116584965"><ele>865.9999999999999</ele><time>2026-04-18T17:00:01.998Z</time></trkpt><trkpt lat="44.32429165618238" lon="10.766531879815997"><ele>865.0</ele><time>2026-04-18T17:00:02.998Z</time></trkpt><trkpt lat="44.32435962168617" lon="10.766499392953207"><ele>865.0</ele><time>2026-04-18T17:00:03.998Z</time></trkpt><trkpt lat="44.32442556409222" lon="10.766457923376"><ele>865.0</ele><time>2026-04-18T17:00:04.998Z</time></trkpt><trkpt lat="44.324496784819374" lon="10.766419915710394"><ele>865.0</ele><time>2026-04-18T17:00:05.998Z</time></trkpt><trkpt lat="44.32462192687739" lon="10.766385230230204"><ele>865.0</ele><time>2026-04-18T17:00:08Z</time></trkpt><trkpt lat="44.32468759540873" lon="10.766402759907502"><ele>865.0</ele><time>2026-04-18T17:00:09Z</time></trkpt><trkpt lat="44.32478175433989" lon="10.766544722200768"><ele>863.4</ele><time>2026-04-18T17:00:11Z</time></trkpt><trkpt lat="44.324852871670764" lon="10.76661901772969"><ele>861.8</ele><time>2026-04-18T17:00:12Z</time></trkpt><trkpt lat="44.3249991464126" lon="10.76662861338072"><ele>860.2</ele><time>2026-04-18T17:00:14Z</time></trkpt><trkpt lat="44.32506949022954" lon="10.766631260102299"><ele>858.6</ele><time>2026-04-18T17:00:15Z</time></trkpt><trkpt lat="44.32513576674331" lon="10.76666925727694"><ele>857.0</ele><time>2026-04-18T17:00:16Z</time></trkpt><trkpt lat="44.32521065282525" lon="10.766725673644526"><ele>857.0</ele><time>2026-04-18T17:00:17Z</time></trkpt><trkpt lat="44.32534134839518" lon="10.766821532868068"><ele>857.0</ele><time>2026-04-18T17:00:19Z</time></trkpt><trkpt lat="44.32540765991417" lon="10.766870407796453"><ele>857.0</ele><time>2026-04-18T17:00:20Z</time></trkpt><trkpt lat="44.3254882360187" lon="10.76695088275875"><ele>857.0</ele><time>2026-04-18T17:00:21Z</time></trkpt><trkpt lat="44.32554261502775" lon="10.76703693625787"><ele>857.0</ele><time>2026-04-18T17:00:22Z</time></trkpt><trkpt lat="44.32558638744496" lon="10.767123896604822"><ele>856.6666666666667</ele><time>2026-04-18T17:00:23Z</time></trkpt><trkpt lat="44.32562843626145" lon="10.767199058739308"><ele>856.3333333333334</ele><time>2026-04-18T17:00:24Z</time></trkpt><trkpt lat="44.32566921582143" lon="10.767286025023854"><ele>856.0</ele><time>2026-04-18T17:00:24.999Z</time></trkpt><trkpt lat="44.32569397748489" lon="10.767387160887147"><ele>855.6666666666667</ele><time>2026-04-18T17:00:25.999Z</time></trkpt><trkpt lat="44.32571464612485" lon="10.767512382281456"><ele>855.3333333333334</ele><time>2026-04-18T17:00:26.999Z</time></trkpt><trkpt lat="44.32574949231511" lon="10.767668551664487"><ele>855.0</ele><time>2026-04-18T17:00:27.999Z</time></trkpt><trkpt lat="44.325788127799136" lon="10.767819744832845"><ele>855.0</ele><time>2026-04-18T17:00:28.999Z</time></trkpt><trkpt lat="44.32581443107642" lon="10.767933381574174"><ele>855.0</ele><time>2026-04-18T17:00:29.999Z</time></trkpt><trkpt lat="44.325828819411086" lon="10.768041618694424"><ele>855.0</ele><time>2026-04-18T17:00:30.999Z</time></trkpt><trkpt lat="44.32582633638057" lon="10.76814625252306"><ele>855.0</ele><time>2026-04-18T17:00:31.999Z</time></trkpt><trkpt lat="44.32581490668537" lon="10.768262920860096"><ele>855.0</ele><time>2026-04-18T17:00:32.999Z</time></trkpt><trkpt lat="44.325797760683336" lon="10.76835199253727"><ele>855.0</ele><time>2026-04-18T17:00:33.999Z</time></trkpt><trkpt lat="44.32573545118854" lon="10.76848060301775"><ele>855.1666666666666</ele><time>2026-04-18T17:00:35.999Z</time></trkpt><trkpt lat="44.32568998603207" lon="10.768606294434353"><ele>855.3333333333333</ele><time>2026-04-18T17:00:36.999Z</time></trkpt><trkpt lat="44.325643464078816" lon="10.768733527062764"><ele>855.5</ele><time>2026-04-18T17:00:37.999Z</time></trkpt><trkpt lat="44.32560377756922" lon="10.768833141828917"><ele>855.6666666666666</ele><time>2026-04-18T17:00:38.999Z</time></trkpt><trkpt lat="44.3255691293452" lon="10.768933126938665"><ele>855.8333333333333</ele><time>2026-04-18T17:00:39.999Z</time></trkpt><trkpt lat="44.32553866061692" lon="10.769029990446644"><ele>856.0</ele><time>2026-04-18T17:00:40.999Z</time></trkpt><trkpt lat="44.32550930069433" lon="10.76912987357621"><ele>853.9999999999999</ele><time>2026-04-18T17:00:41.999Z</time></trkpt><trkpt lat="44.32546857056083" lon="10.769241389468654"><ele>852.0</ele><time>2026-04-18T17:00:42.999Z</time></trkpt><trkpt lat="44.32543201552279" lon="10.76934870939598"><ele>850.0</ele><time>2026-04-18T17:00:43.999Z</time></trkpt><trkpt lat="44.32539091794497" lon="10.769449504435595"><ele>848.0</ele><time>2026-04-18T17:00:44.999Z</time></trkpt><trkpt lat="44.3253476904627" lon="10.769543170799198"><ele>845.9999999999999</ele><time>2026-04-18T17:00:45.999Z</time></trkpt><trkpt lat="44.32531001977421" lon="10.76964188047959"><ele>844.0</ele><time>2026-04-18T17:00:46.999Z</time></trkpt><trkpt lat="44.32528604201818" lon="10.769738750726875"><ele>843.9999999999999</ele><time>2026-04-18T17:00:47.999Z</time></trkpt><trkpt lat="44.32527552343957" lon="10.769847807043925"><ele>844.0</ele><time>2026-04-18T17:00:48.999Z</time></trkpt><trkpt lat="44.32528203198435" lon="10.769952024128566"><ele>844.0</ele><time>2026-04-18T17:00:49.999Z</time></trkpt><trkpt lat="44.32528501968497" lon="10.770056089269616"><ele>844.0</ele><time>2026-04-18T17:00:50.999Z</time></trkpt><trkpt lat="44.325282380021186" lon="10.770161742548886"><ele>843.9999999999999</ele><time>2026-04-18T17:00:51.999Z</time></trkpt><trkpt lat="44.325274282412394" lon="10.770260978594663"><ele>844.0</ele><time>2026-04-18T17:00:52.999Z</time></trkpt><trkpt lat="44.32526249314831" lon="10.770445728163361"><ele>843.4999999999999</ele><time>2026-04-18T17:00:54.999Z</time></trkpt><trkpt lat="44.325248036643856" lon="10.770544185537197"><ele>843.0</ele><time>2026-04-18T17:00:55.999Z</time></trkpt><trkpt lat="44.325242011370776" lon="10.770638444316672"><ele>842.5</ele><time>2026-04-18T17:00:56.999Z</time></trkpt><trkpt lat="44.325252890971605" lon="10.770737722385775"><ele>842.0</ele><time>2026-04-18T17:00:57.999Z</time></trkpt><trkpt lat="44.32528016769248" lon="10.770871856030421"><ele>841.4999999999999</ele><time>2026-04-18T17:00:58.999Z</time></trkpt><trkpt lat="44.32530178727855" lon="10.77099303777385"><ele>841.0</ele><time>2026-04-18T17:00:59.999Z</time></trkpt><trkpt lat="44.32531350060797" lon="10.771097973881627"><ele>840.1666666666666</ele><time>2026-04-18T17:01:00.999Z</time></trkpt><trkpt lat="44.325312273426555" lon="10.771208932400292"><ele>839.3333333333333</ele><time>2026-04-18T17:01:01.999Z</time></trkpt><trkpt lat="44.32531695677038" lon="10.771311021818956"><ele>838.5</ele><time>2026-04-18T17:01:02.999Z</time></trkpt><trkpt lat="44.325321229497966" lon="10.77143357068538"><ele>837.6666666666667</ele><time>2026-04-18T17:01:03.999Z</time></trkpt><trkpt lat="44.325325507248614" lon="10.7715533535132"><ele>836.8333333333334</ele><time>2026-04-18T17:01:04.999Z</time></trkpt><trkpt lat="44.3253358982079" lon="10.771684600091088"><ele>836.0</ele><time>2026-04-18T17:01:05.999Z</time></trkpt><trkpt lat="44.325354532990396" lon="10.771851559808164"><ele>836.0000000000001</ele><time>2026-04-18T17:01:06.999Z</time></trkpt><trkpt lat="44.32538278305169" lon="10.771974404936124"><ele>836.0</ele><time>2026-04-18T17:01:07.999Z</time></trkpt><trkpt lat="44.325402223935534" lon="10.772072587817055"><ele>836.0</ele><time>2026-04-18T17:01:08.999Z</time></trkpt><trkpt lat="44.325420229849165" lon="10.772158729159914"><ele>836.0</ele><time>2026-04-18T17:01:09.999Z</time></trkpt><trkpt lat="44.32544500440758" lon="10.772290389343606"><ele>836.0000000000001</ele><time>2026-04-18T17:01:10.999Z</time></trkpt><trkpt lat="44.325497853214465" lon="10.772363246314706"><ele>836.0</ele><time>2026-04-18T17:01:11.999Z</time></trkpt><trkpt lat="44.32551417725945" lon="10.772470466420101"><ele>836.0</ele><time>2026-04-18T17:01:12.999Z</time></trkpt><trkpt lat="44.325550035719836" lon="10.772617938939133"><ele>836.0</ele><time>2026-04-18T17:01:14.999Z</time></trkpt><trkpt lat="44.32554018283995" lon="10.772728082240478"><ele>836.0</ele><time>2026-04-18T17:01:16.999Z</time></trkpt><trkpt lat="44.325509528681806" lon="10.772882087371798"><ele>836.0</ele><time>2026-04-18T17:01:18.999Z</time></trkpt><trkpt lat="44.3254309899382" lon="10.77301212842342"><ele>836.0</ele><time>2026-04-18T17:01:20.999Z</time></trkpt><trkpt lat="44.325380457342334" lon="10.773078303317062"><ele>837.0</ele><time>2026-04-18T17:01:21.999Z</time></trkpt><trkpt lat="44.325335572235744" lon="10.773153921968978"><ele>838.0</ele><time>2026-04-18T17:01:22.999Z</time></trkpt><trkpt lat="44.325286169445704" lon="10.77321633412434"><ele>839.0</ele><time>2026-04-18T17:01:23.999Z</time></trkpt><trkpt lat="44.32518402272302" lon="10.77329752696721"><ele>840.0</ele><time>2026-04-18T17:01:25.999Z</time></trkpt><trkpt lat="44.32511165799307" lon="10.77333464520656"><ele>841.0</ele><time>2026-04-18T17:01:26.999Z</time></trkpt><trkpt lat="44.324954591935644" lon="10.773370044223448"><ele>841.0</ele><time>2026-04-18T17:01:28.999Z</time></trkpt><trkpt lat="44.32483138767201" lon="10.77344857571939"><ele>841.0</ele><time>2026-04-18T17:01:29.999Z</time></trkpt><trkpt lat="44.32475649952664" lon="10.773474625335005"><ele>841.0</ele><time>2026-04-18T17:01:30.999Z</time></trkpt><trkpt lat="44.32466873449651" lon="10.77350703599961"><ele>841.0</ele><time>2026-04-18T17:01:31.999Z</time></trkpt><trkpt lat="44.324587543758206" lon="10.773548767874779"><ele>841.0</ele><time>2026-04-18T17:01:32.999Z</time></trkpt><trkpt lat="44.32445779708661" lon="10.773624126311475"><ele>840.5999999999999</ele><time>2026-04-18T17:01:34.999Z</time></trkpt><trkpt lat="44.324338573596755" lon="10.773596931573316"><ele>840.2</ele><time>2026-04-18T17:01:36.999Z</time></trkpt><trkpt lat="44.32424754980692" lon="10.773560985105004"><ele>839.8</ele><time>2026-04-18T17:01:37.999Z</time></trkpt><trkpt lat="44.3241671848106" lon="10.77353285210174"><ele>839.4000000000001</ele><time>2026-04-18T17:01:38.999Z</time></trkpt><trkpt lat="44.32403354335003" lon="10.773528824019216"><ele>839.0</ele><time>2026-04-18T17:01:40.999Z</time></trkpt><trkpt lat="44.323954820629346" lon="10.773533241768787"><ele>836.4000000000001</ele><time>2026-04-18T17:01:41.998Z</time></trkpt><trkpt lat="44.32388390345286" lon="10.773559797500793"><ele>833.8</ele><time>2026-04-18T17:01:42.998Z</time></trkpt><trkpt lat="44.3237796449728" lon="10.773654880770474"><ele>831.2</ele><time>2026-04-18T17:01:44.998Z</time></trkpt><trkpt lat="44.323732394059334" lon="10.773833348055605"><ele>828.5999999999999</ele><time>2026-04-18T17:01:46.998Z</time></trkpt><trkpt lat="44.323738318525535" lon="10.77393011069463"><ele>826.0</ele><time>2026-04-18T17:01:47.998Z</time></trkpt><trkpt lat="44.323791252675335" lon="10.77408110820359"><ele>826.0</ele><time>2026-04-18T17:01:49.998Z</time></trkpt><trkpt lat="44.32383995753531" lon="10.774156260579272"><ele>826.0</ele><time>2026-04-18T17:01:50.998Z</time></trkpt><trkpt lat="44.32390774702019" lon="10.774248802992709"><ele>826.0</ele><time>2026-04-18T17:01:52.998Z</time></trkpt><trkpt lat="44.323912285117665" lon="10.774367101408837"><ele>826.0</ele><time>2026-04-18T17:01:54.998Z</time></trkpt><trkpt lat="44.32382040065961" lon="10.774482304879308"><ele>826.0</ele><time>2026-04-18T17:01:56.998Z</time></trkpt><trkpt lat="44.32370322480123" lon="10.77456531743505"><ele>824.8</ele><time>2026-04-18T17:01:58.998Z</time></trkpt><trkpt lat="44.323628059314196" lon="10.774714581933432"><ele>823.5999999999999</ele><time>2026-04-18T17:02:00.998Z</time></trkpt><trkpt lat="44.3235722046294" lon="10.774784530654848"><ele>822.4</ele><time>2026-04-18T17:02:01.998Z</time></trkpt><trkpt lat="44.32351074218217" lon="10.77484675635438"><ele>821.2</ele><time>2026-04-18T17:02:02.998Z</time></trkpt><trkpt lat="44.32346943814236" lon="10.774920943902451"><ele>820.0</ele><time>2026-04-18T17:02:03.998Z</time></trkpt><trkpt lat="44.32348809273124" lon="10.775068970352155"><ele>820.0</ele><time>2026-04-18T17:02:05.998Z</time></trkpt><trkpt lat="44.3235209192236" lon="10.775166699309239"><ele>820.0</ele><time>2026-04-18T17:02:06.998Z</time></trkpt><trkpt lat="44.323559227662294" lon="10.77533784262722"><ele>820.0</ele><time>2026-04-18T17:02:08.998Z</time></trkpt><trkpt lat="44.323599095381034" lon="10.775425810415873"><ele>820.0</ele><time>2026-04-18T17:02:09.998Z</time></trkpt><trkpt lat="44.323631044213556" lon="10.775596236900675"><ele>820.0</ele><time>2026-04-18T17:02:11.998Z</time></trkpt><trkpt lat="44.323611256746034" lon="10.775684520951895"><ele>820.0</ele><time>2026-04-18T17:02:13Z</time></trkpt><trkpt lat="44.32355872829628" lon="10.775827949067592"><ele>820.0</ele><time>2026-04-18T17:02:15Z</time></trkpt><trkpt lat="44.32349625666681" lon="10.775915999411504"><ele>820.0</ele><time>2026-04-18T17:02:17Z</time></trkpt><trkpt lat="44.32344688108719" lon="10.775977966153636"><ele>820.0</ele><time>2026-04-18T17:02:18Z</time></trkpt><trkpt lat="44.32333305291638" lon="10.77608533214297"><ele>820.0</ele><time>2026-04-18T17:02:20Z</time></trkpt><trkpt lat="44.32327454470902" lon="10.776156274775516"><ele>820.25</ele><time>2026-04-18T17:02:21Z</time></trkpt><trkpt lat="44.32322803033171" lon="10.776251438300473"><ele>820.5</ele><time>2026-04-18T17:02:22Z</time></trkpt><trkpt lat="44.323180286208164" lon="10.776418188554032"><ele>820.75</ele><time>2026-04-18T17:02:24Z</time></trkpt><trkpt lat="44.3231393752085" lon="10.776537471617113"><ele>821.0</ele><time>2026-04-18T17:02:26Z</time></trkpt><trkpt lat="44.32310382332119" lon="10.776780880891256"><ele>820.6666666666667</ele><time>2026-04-18T17:02:27Z</time></trkpt><trkpt lat="44.32310149635833" lon="10.776902871963834"><ele>820.3333333333334</ele><time>2026-04-18T17:02:28Z</time></trkpt><trkpt lat="44.323093259642185" lon="10.77702783990939"><ele>820.0</ele><time>2026-04-18T17:02:29Z</time></trkpt><trkpt lat="44.32308985345066" lon="10.777123899470965"><ele>819.6666666666667</ele><time>2026-04-18T17:02:30Z</time></trkpt><trkpt lat="44.323094903836044" lon="10.777261863751916"><ele>819.3333333333334</ele><time>2026-04-18T17:02:32Z</time></trkpt><trkpt lat="44.3230499567736" lon="10.777385219087135"><ele>819.0</ele><time>2026-04-18T17:02:34Z</time></trkpt><trkpt lat="44.322920604108766" lon="10.777411004541921"><ele>817.4000000000001</ele><time>2026-04-18T17:02:36Z</time></trkpt><trkpt lat="44.32282491312601" lon="10.777405168820856"><ele>815.8</ele><time>2026-04-18T17:02:37Z</time></trkpt><trkpt lat="44.32272816719107" lon="10.77738902925394"><ele>814.2</ele><time>2026-04-18T17:02:38Z</time></trkpt><trkpt lat="44.32264168100031" lon="10.777385432702516"><ele>812.5999999999999</ele><time>2026-04-18T17:02:39Z</time></trkpt><trkpt lat="44.32255286295017" lon="10.77739694886679"><ele>811.0</ele><time>2026-04-18T17:02:39.999Z</time></trkpt><trkpt lat="44.3224615428401" lon="10.777422383127067"><ele>811.0</ele><time>2026-04-18T17:02:40.999Z</time></trkpt><trkpt lat="44.32238324045197" lon="10.777444982564717"><ele>811.0</ele><time>2026-04-18T17:02:41.999Z</time></trkpt><trkpt lat="44.32232073174675" lon="10.777473156024977"><ele>811.0</ele><time>2026-04-18T17:02:42.999Z</time></trkpt><trkpt lat="44.32226426258089" lon="10.777515264827576"><ele>811.0</ele><time>2026-04-18T17:02:44.999Z</time></trkpt><trkpt lat="44.32220159925373" lon="10.777572142259809"><ele>811.0</ele><time>2026-04-18T17:02:47.999Z</time></trkpt><trkpt lat="44.32216083756759" lon="10.777651710205495"><ele>811.0</ele><time>2026-04-18T17:02:48.999Z</time></trkpt><trkpt lat="44.322117609386765" lon="10.77775111814274"><ele>811.0</ele><time>2026-04-18T17:02:49.999Z</time></trkpt><trkpt lat="44.32209467946772" lon="10.777871143500201"><ele>809.1999999999999</ele><time>2026-04-18T17:02:50.999Z</time></trkpt><trkpt lat="44.322021910021434" lon="10.778027544086779"><ele>807.4</ele><time>2026-04-18T17:02:51.999Z</time></trkpt><trkpt lat="44.32198246458321" lon="10.778184874808057"><ele>805.6</ele><time>2026-04-18T17:02:52.999Z</time></trkpt><trkpt lat="44.32193782872019" lon="10.778297814425935"><ele>803.8</ele><time>2026-04-18T17:02:53.999Z</time></trkpt><trkpt lat="44.32190331397689" lon="10.77841964875088"><ele>802.0</ele><time>2026-04-18T17:02:54.999Z</time></trkpt><trkpt lat="44.32189155795011" lon="10.778533740063729"><ele>801.9999999999999</ele><time>2026-04-18T17:02:55.999Z</time></trkpt><trkpt lat="44.32186146501134" lon="10.778646390702207"><ele>802.0</ele><time>2026-04-18T17:02:56.999Z</time></trkpt><trkpt lat="44.32184464732409" lon="10.77875314074969"><ele>802.0</ele><time>2026-04-18T17:02:57.999Z</time></trkpt><trkpt lat="44.321836190411986" lon="10.778873551825486"><ele>802.0</ele><time>2026-04-18T17:02:58.999Z</time></trkpt><trkpt lat="44.321822567398186" lon="10.778990396080362"><ele>801.9999999999999</ele><time>2026-04-18T17:02:59.999Z</time></trkpt><trkpt lat="44.321819201518544" lon="10.779133536310162"><ele>802.0</ele><time>2026-04-18T17:03:00.999Z</time></trkpt><trkpt lat="44.32181678990187" lon="10.77930270621428"><ele>799.5</ele><time>2026-04-18T17:03:01.999Z</time></trkpt><trkpt lat="44.32182425900896" lon="10.779484461134253"><ele>797.0</ele><time>2026-04-18T17:03:02.999Z</time></trkpt><trkpt lat="44.32182685235242" lon="10.779660303814158"><ele>794.5</ele><time>2026-04-18T17:03:03.999Z</time></trkpt><trkpt lat="44.321840526918265" lon="10.779832683249042"><ele>792.0</ele><time>2026-04-18T17:03:04.999Z</time></trkpt><trkpt lat="44.32185331567296" lon="10.779999244973782"><ele>792.0</ele><time>2026-04-18T17:03:05.999Z</time></trkpt><trkpt lat="44.32187006356655" lon="10.78015327313417"><ele>792.0</ele><time>2026-04-18T17:03:06.999Z</time></trkpt><trkpt lat="44.32188394333224" lon="10.78031124748186"><ele>792.0</ele><time>2026-04-18T17:03:07.999Z</time></trkpt><trkpt lat="44.32189009477099" lon="10.780464109017739"><ele>792.0</ele><time>2026-04-18T17:03:08.999Z</time></trkpt><trkpt lat="44.32190528961786" lon="10.780626186805343"><ele>790.5</ele><time>2026-04-18T17:03:09.999Z</time></trkpt><trkpt lat="44.321922960616206" lon="10.780791121899659"><ele>789.0</ele><time>2026-04-18T17:03:10.999Z</time></trkpt><trkpt lat="44.32195406292227" lon="10.780954807395766"><ele>787.5</ele><time>2026-04-18T17:03:11.999Z</time></trkpt><trkpt lat="44.32199302061504" lon="10.781100399872667"><ele>786.0</ele><time>2026-04-18T17:03:12.999Z</time></trkpt><trkpt lat="44.32203546138665" lon="10.781238892147893"><ele>786.0</ele><time>2026-04-18T17:03:13.999Z</time></trkpt><trkpt lat="44.322086562781244" lon="10.781372253620109"><ele>786.0</ele><time>2026-04-18T17:03:14.999Z</time></trkpt><trkpt lat="44.322138357768154" lon="10.781505837265982"><ele>786.0</ele><time>2026-04-18T17:03:15.999Z</time></trkpt><trkpt lat="44.322211103044175" lon="10.781632945509333"><ele>786.0</ele><time>2026-04-18T17:03:16.999Z</time></trkpt><trkpt lat="44.322282214578266" lon="10.781762354160204"><ele>783.25</ele><time>2026-04-18T17:03:17.999Z</time></trkpt><trkpt lat="44.32234883875188" lon="10.781903786977974"><ele>780.5</ele><time>2026-04-18T17:03:18.999Z</time></trkpt><trkpt lat="44.322391989677804" lon="10.78206447912852"><ele>777.75</ele><time>2026-04-18T17:03:19.999Z</time></trkpt><trkpt lat="44.322437082587975" lon="10.782243319085332"><ele>775.0</ele><time>2026-04-18T17:03:20.999Z</time></trkpt><trkpt lat="44.32249253868897" lon="10.782410630435947"><ele>775.0</ele><time>2026-04-18T17:03:21.999Z</time></trkpt><trkpt lat="44.322538585579444" lon="10.782588124553149"><ele>775.0</ele><time>2026-04-18T17:03:22.999Z</time></trkpt><trkpt lat="44.32258962664868" lon="10.782771209889127"><ele>775.0</ele><time>2026-04-18T17:03:23.999Z</time></trkpt><trkpt lat="44.32264342573812" lon="10.782944024783372"><ele>775.0</ele><time>2026-04-18T17:03:24.999Z</time></trkpt><trkpt lat="44.322677704334104" lon="10.783125016748816"><ele>773.5</ele><time>2026-04-18T17:03:25.999Z</time></trkpt><trkpt lat="44.32269198204065" lon="10.783332726643069"><ele>772.0</ele><time>2026-04-18T17:03:26.999Z</time></trkpt><trkpt lat="44.32273913940313" lon="10.783495853536365"><ele>770.5</ele><time>2026-04-18T17:03:27.999Z</time></trkpt><trkpt lat="44.322801111836796" lon="10.783657042807029"><ele>769.0</ele><time>2026-04-18T17:03:28.999Z</time></trkpt><trkpt lat="44.32284007820332" lon="10.783819005543405"><ele>768.25</ele><time>2026-04-18T17:03:29.999Z</time></trkpt><trkpt lat="44.32290147285413" lon="10.783975505011503"><ele>767.5</ele><time>2026-04-18T17:03:30.999Z</time></trkpt><trkpt lat="44.32294279734737" lon="10.784141290402683"><ele>766.75</ele><time>2026-04-18T17:03:31.999Z</time></trkpt><trkpt lat="44.32298243982102" lon="10.784300640755893"><ele>766.0</ele><time>2026-04-18T17:03:32.999Z</time></trkpt><trkpt lat="44.32302922621394" lon="10.78447202950661"><ele>766.5</ele><time>2026-04-18T17:03:33.999Z</time></trkpt><trkpt lat="44.32306897873032" lon="10.784631752088996"><ele>767.0</ele><time>2026-04-18T17:03:34.999Z</time></trkpt><trkpt lat="44.323103393838096" lon="10.784797371443046"><ele>767.5</ele><time>2026-04-18T17:03:35.999Z</time></trkpt><trkpt lat="44.3231644502437" lon="10.78492997614638"><ele>768.0</ele><time>2026-04-18T17:03:36.999Z</time></trkpt><trkpt lat="44.3232153111046" lon="10.785064117574215"><ele>768.5999999999999</ele><time>2026-04-18T17:03:37.999Z</time></trkpt><trkpt lat="44.323250463445426" lon="10.785199604965324"><ele>769.1999999999999</ele><time>2026-04-18T17:03:38.999Z</time></trkpt><trkpt lat="44.32330928171339" lon="10.785319946906512"><ele>769.8</ele><time>2026-04-18T17:03:39.999Z</time></trkpt><trkpt lat="44.323389236640274" lon="10.785398574916986"><ele>770.4</ele><time>2026-04-18T17:03:40.999Z</time></trkpt><trkpt lat="44.32346610301944" lon="10.785485836596669"><ele>771.0</ele><time>2026-04-18T17:03:41.999Z</time></trkpt><trkpt lat="44.3235345226153" lon="10.785577575420657"><ele>771.0</ele><time>2026-04-18T17:03:42.999Z</time></trkpt><trkpt lat="44.32362159419223" lon="10.785620857785965"><ele>771.0</ele><time>2026-04-18T17:03:43.999Z</time></trkpt><trkpt lat="44.323688249054925" lon="10.785682440233021"><ele>771.0</ele><time>2026-04-18T17:03:44.999Z</time></trkpt><trkpt lat="44.32374801493251" lon="10.78575197652779"><ele>771.0</ele><time>2026-04-18T17:03:45.999Z</time></trkpt><trkpt lat="44.32381100342025" lon="10.78584264527173"><ele>771.0</ele><time>2026-04-18T17:03:46.999Z</time></trkpt><trkpt lat="44.32386651898646" lon="10.785941638777839"><ele>771.0</ele><time>2026-04-18T17:03:47.999Z</time></trkpt><trkpt lat="44.32392868769524" lon="10.786035795926773"><ele>768.8</ele><time>2026-04-18T17:03:48.999Z</time></trkpt><trkpt lat="44.32399998406572" lon="10.786135586906582"><ele>766.5999999999999</ele><time>2026-04-18T17:03:49.999Z</time></trkpt><trkpt lat="44.324071872626696" lon="10.786258605830074"><ele>764.4</ele><time>2026-04-18T17:03:50.999Z</time></trkpt><trkpt lat="44.3241557507282" lon="10.786322604052852"><ele>762.2</ele><time>2026-04-18T17:03:51.999Z</time></trkpt><trkpt lat="44.32423014873941" lon="10.786388691503332"><ele>760.0</ele><time>2026-04-18T17:03:52.999Z</time></trkpt><trkpt lat="44.32431528372743" lon="10.786449896160773"><ele>760.0</ele><time>2026-04-18T17:03:53.999Z</time></trkpt><trkpt lat="44.32443853928153" lon="10.78658313123658"><ele>760.0</ele><time>2026-04-18T17:03:55.998Z</time></trkpt><trkpt lat="44.3245227200304" lon="10.786665382105491"><ele>760.0</ele><time>2026-04-18T17:03:56.998Z</time></trkpt><trkpt lat="44.3246011821429" lon="10.78671669006185"><ele>760.0</ele><time>2026-04-18T17:03:57.998Z</time></trkpt><trkpt lat="44.324728654448116" lon="10.78684532920662"><ele>757.5</ele><time>2026-04-18T17:03:59.998Z</time></trkpt><trkpt lat="44.324794094783144" lon="10.786907504130863"><ele>755.0</ele><time>2026-04-18T17:04:00.998Z</time></trkpt><trkpt lat="44.324866258893486" lon="10.786980039145615"><ele>752.5</ele><time>2026-04-18T17:04:01.998Z</time></trkpt><trkpt lat="44.324915798628325" lon="10.787054654575217"><ele>750.0</ele><time>2026-04-18T17:04:02.998Z</time></trkpt><trkpt lat="44.32498394432082" lon="10.787096679312688"><ele>747.5</ele><time>2026-04-18T17:04:03.998Z</time></trkpt><trkpt lat="44.325058406141956" lon="10.787176789814625"><ele>745.0</ele><time>2026-04-18T17:04:04.998Z</time></trkpt><trkpt lat="44.32511899538535" lon="10.787240860016759"><ele>745.0</ele><time>2026-04-18T17:04:05.998Z</time></trkpt><trkpt lat="44.325177423804504" lon="10.787306032732296"><ele>745.0</ele><time>2026-04-18T17:04:06.998Z</time></trkpt><trkpt lat="44.3252339419073" lon="10.787376942707617"><ele>745.0</ele><time>2026-04-18T17:04:07.998Z</time></trkpt><trkpt lat="44.325289147455614" lon="10.787465382826399"><ele>745.0</ele><time>2026-04-18T17:04:08.998Z</time></trkpt><trkpt lat="44.32534042063123" lon="10.787544100291571"><ele>745.0</ele><time>2026-04-18T17:04:09.998Z</time></trkpt><trkpt lat="44.325431425633994" lon="10.787647603975548"><ele>745.0</ele><time>2026-04-18T17:04:11.998Z</time></trkpt><trkpt lat="44.32551400861366" lon="10.787747697734346"><ele>742.8</ele><time>2026-04-18T17:04:13.998Z</time></trkpt><trkpt lat="44.32560526329636" lon="10.787823967730015"><ele>740.6</ele><time>2026-04-18T17:04:15.998Z</time></trkpt><trkpt lat="44.325655844150674" lon="10.78791824360491"><ele>738.4000000000001</ele><time>2026-04-18T17:04:19Z</time></trkpt><trkpt lat="44.32557696180605" lon="10.787971282898413"><ele>736.2</ele><time>2026-04-18T17:04:22Z</time></trkpt><trkpt lat="44.325508226773145" lon="10.78802909806576"><ele>734.0</ele><time>2026-04-18T17:04:23Z</time></trkpt><trkpt lat="44.32542869910846" lon="10.788111196831455"><ele>734.0</ele><time>2026-04-18T17:04:24Z</time></trkpt><trkpt lat="44.325341578596564" lon="10.788188653519112"><ele>734.0</ele><time>2026-04-18T17:04:25Z</time></trkpt><trkpt lat="44.32525559003994" lon="10.78826429171008"><ele>734.0</ele><time>2026-04-18T17:04:26Z</time></trkpt><trkpt lat="44.32517320272888" lon="10.788331171235193"><ele>734.0</ele><time>2026-04-18T17:04:27Z</time></trkpt><trkpt lat="44.32508667681737" lon="10.788395982417372"><ele>734.0</ele><time>2026-04-18T17:04:28Z</time></trkpt><trkpt lat="44.325047277476756" lon="10.788509005892067"><ele>732.3333333333333</ele><time>2026-04-18T17:04:30Z</time></trkpt><trkpt lat="44.32501069523035" lon="10.788589501647342"><ele>730.6666666666666</ele><time>2026-04-18T17:04:31Z</time></trkpt><trkpt lat="44.32497875305243" lon="10.788669152740193"><ele>729.0</ele><time>2026-04-18T17:04:32Z</time></trkpt><trkpt lat="44.32488392869444" lon="10.788784964813683"><ele>727.3333333333334</ele><time>2026-04-18T17:04:34Z</time></trkpt><trkpt lat="44.32482263556979" lon="10.788822258787656"><ele>725.6666666666667</ele><time>2026-04-18T17:04:35Z</time></trkpt><trkpt lat="44.324729464925746" lon="10.788849707640606"><ele>724.0</ele><time>2026-04-18T17:04:36Z</time></trkpt><trkpt lat="44.32460828169228" lon="10.78889155539539"><ele>724.0</ele><time>2026-04-18T17:04:37Z</time></trkpt><trkpt lat="44.32446604063407" lon="10.788938192333491"><ele>724.0</ele><time>2026-04-18T17:04:38Z</time></trkpt><trkpt lat="44.32434727596313" lon="10.788973938880645"><ele>724.0</ele><time>2026-04-18T17:04:39Z</time></trkpt><trkpt lat="44.32423172483951" lon="10.789039981043778"><ele>724.0</ele><time>2026-04-18T17:04:40Z</time></trkpt><trkpt lat="44.32413828335923" lon="10.789088091363979"><ele>724.0</ele><time>2026-04-18T17:04:41Z</time></trkpt><trkpt lat="44.324069980642065" lon="10.789175699218678"><ele>724.0</ele><time>2026-04-18T17:04:42Z</time></trkpt><trkpt lat="44.32399308322517" lon="10.789317166173452"><ele>724.0</ele><time>2026-04-18T17:04:43Z</time></trkpt><trkpt lat="44.32391781245119" lon="10.7894758701226"><ele>724.0</ele><time>2026-04-18T17:04:44Z</time></trkpt><trkpt lat="44.32384762849238" lon="10.78962371421413"><ele>725.0</ele><time>2026-04-18T17:04:45Z</time></trkpt><trkpt lat="44.3237951826666" lon="10.789762868457439"><ele>726.0</ele><time>2026-04-18T17:04:46Z</time></trkpt><trkpt lat="44.323730882762625" lon="10.789891974791377"><ele>727.0</ele><time>2026-04-18T17:04:47Z</time></trkpt><trkpt lat="44.32366799115711" lon="10.789979817995476"><ele>728.0</ele><time>2026-04-18T17:04:47.999Z</time></trkpt><trkpt lat="44.32358361951249" lon="10.79006417232387"><ele>729.0</ele><time>2026-04-18T17:04:49.999Z</time></trkpt><trkpt lat="44.32355126585037" lon="10.790178487330214"><ele>725.5</ele><time>2026-04-18T17:04:52.999Z</time></trkpt><trkpt lat="44.32368036479101" lon="10.790443710397218"><ele>722.0</ele><time>2026-04-18T17:04:54.999Z</time></trkpt><trkpt lat="44.323710646594066" lon="10.790593943694164"><ele>718.5</ele><time>2026-04-18T17:04:56.999Z</time></trkpt><trkpt lat="44.32371066041747" lon="10.79071134780856"><ele>715.0</ele><time>2026-04-18T17:04:58.999Z</time></trkpt><trkpt lat="44.3237662824694" lon="10.79077303034257"><ele>715.0</ele><time>2026-04-18T17:05:00.999Z</time></trkpt><trkpt lat="44.323861952732415" lon="10.79080879722162"><ele>715.0</ele><time>2026-04-18T17:05:02.999Z</time></trkpt><trkpt lat="44.323945518424175" lon="10.790826641339907"><ele>715.0</ele><time>2026-04-18T17:05:04.999Z</time></trkpt><trkpt lat="44.32401233785119" lon="10.790778957325676"><ele>715.0</ele><time>2026-04-18T17:05:06.999Z</time></trkpt><trkpt lat="44.324064813818964" lon="10.79060409817594"><ele>715.0</ele><time>2026-04-18T17:05:08.999Z</time></trkpt><trkpt lat="44.32410453632847" lon="10.790510100569458"><ele>715.0</ele><time>2026-04-18T17:05:09.999Z</time></trkpt><trkpt lat="44.32415540928699" lon="10.790430737393875"><ele>715.0</ele><time>2026-04-18T17:05:10.999Z</time></trkpt><trkpt lat="44.32421503610621" lon="10.790384770464332"><ele>715.0</ele><time>2026-04-18T17:05:11.999Z</time></trkpt><trkpt lat="44.32428910007951" lon="10.790322238778707"><ele>715.0</ele><time>2026-04-18T17:05:13.999Z</time></trkpt><trkpt lat="44.32433425214967" lon="10.790201502206882"><ele>715.0</ele><time>2026-04-18T17:05:15.999Z</time></trkpt><trkpt lat="44.32437104540299" lon="10.79011202914427"><ele>715.0</ele><time>2026-04-18T17:05:17.999Z</time></trkpt><trkpt lat="44.324435199040565" lon="10.790123727557994"><ele>713.2</ele><time>2026-04-18T17:05:21.999Z</time></trkpt><trkpt lat="44.32439726323437" lon="10.790245259154338"><ele>711.4</ele><time>2026-04-18T17:05:23.999Z</time></trkpt><trkpt lat="44.3244029881842" lon="10.790364298717526"><ele>709.5999999999999</ele><time>2026-04-18T17:05:24.999Z</time></trkpt><trkpt lat="44.32443414218151" lon="10.790511469980144"><ele>707.8</ele><time>2026-04-18T17:05:25.999Z</time></trkpt><trkpt lat="44.32445200656703" lon="10.790667811024496"><ele>706.0</ele><time>2026-04-18T17:05:26.999Z</time></trkpt><trkpt lat="44.3244613400165" lon="10.790808459578477"><ele>706.0</ele><time>2026-04-18T17:05:27.999Z</time></trkpt><trkpt lat="44.32447113080863" lon="10.790961162931943"><ele>706.0</ele><time>2026-04-18T17:05:28.999Z</time></trkpt><trkpt lat="44.32449305055854" lon="10.791094477057058"><ele>706.0</ele><time>2026-04-18T17:05:29.999Z</time></trkpt><trkpt lat="44.32448105294284" lon="10.791227769229764"><ele>706.0</ele><time>2026-04-18T17:05:30.999Z</time></trkpt><trkpt lat="44.32447441880847" lon="10.791339622281786"><ele>706.0</ele><time>2026-04-18T17:05:31.999Z</time></trkpt><trkpt lat="44.32446230130182" lon="10.791451849446608"><ele>702.25</ele><time>2026-04-18T17:05:32.999Z</time></trkpt><trkpt lat="44.324358133560494" lon="10.791597989510603"><ele>698.5</ele><time>2026-04-18T17:05:34.999Z</time></trkpt><trkpt lat="44.32426952803195" lon="10.791685038216915"><ele>694.75</ele><time>2026-04-18T17:05:35.999Z</time></trkpt><trkpt lat="44.324181129691084" lon="10.791751842480446"><ele>691.0</ele><time>2026-04-18T17:05:36.999Z</time></trkpt><trkpt lat="44.32408753589837" lon="10.791751966445894"><ele>691.0</ele><time>2026-04-18T17:05:37.999Z</time></trkpt><trkpt lat="44.32399330865352" lon="10.791750792549665"><ele>691.0</ele><time>2026-04-18T17:05:38.999Z</time></trkpt><trkpt lat="44.32388905473989" lon="10.791770470904032"><ele>691.0</ele><time>2026-04-18T17:05:39.999Z</time></trkpt><trkpt lat="44.323796462884445" lon="10.791783296363391"><ele>691.0</ele><time>2026-04-18T17:05:40.999Z</time></trkpt><trkpt lat="44.32371627723322" lon="10.791843080951905"><ele>691.0</ele><time>2026-04-18T17:05:41.999Z</time></trkpt><trkpt lat="44.32365204260583" lon="10.791949134318203"><ele>689.5</ele><time>2026-04-18T17:05:42.999Z</time></trkpt><trkpt lat="44.32362025217538" lon="10.792098638840143"><ele>688.0</ele><time>2026-04-18T17:05:43.999Z</time></trkpt><trkpt lat="44.32361373202925" lon="10.792244470021677"><ele>686.5</ele><time>2026-04-18T17:05:44.999Z</time></trkpt><trkpt lat="44.32359661992854" lon="10.79235718466548"><ele>685.0</ele><time>2026-04-18T17:05:45.999Z</time></trkpt><trkpt lat="44.323565110182436" lon="10.792444115382368"><ele>683.5</ele><time>2026-04-18T17:05:46.999Z</time></trkpt><trkpt lat="44.323510091793466" lon="10.792508444810682"><ele>682.0</ele><time>2026-04-18T17:05:47.999Z</time></trkpt><trkpt lat="44.32342447096461" lon="10.792487652775048"><ele>682.0</ele><time>2026-04-18T17:05:48.999Z</time></trkpt><trkpt lat="44.323329890877375" lon="10.792481813346093"><ele>682.0</ele><time>2026-04-18T17:05:49.999Z</time></trkpt><trkpt lat="44.32320531654644" lon="10.792481011168631"><ele>682.0</ele><time>2026-04-18T17:05:50.999Z</time></trkpt><trkpt lat="44.32306853033877" lon="10.792479177569502"><ele>682.0</ele><time>2026-04-18T17:05:51.999Z</time></trkpt><trkpt lat="44.3229415728676" lon="10.792481451840183"><ele>681.2</ele><time>2026-04-18T17:05:52.999Z</time></trkpt><trkpt lat="44.32282677953298" lon="10.792519081799451"><ele>680.4000000000001</ele><time>2026-04-18T17:05:53.999Z</time></trkpt><trkpt lat="44.32272810452701" lon="10.792543960854763"><ele>679.5999999999999</ele><time>2026-04-18T17:05:54.999Z</time></trkpt><trkpt lat="44.32264608038692" lon="10.792588374329386"><ele>678.8</ele><time>2026-04-18T17:05:55.999Z</time></trkpt><trkpt lat="44.322572611634726" lon="10.792650046967022"><ele>678.0</ele><time>2026-04-18T17:05:56.999Z</time></trkpt><trkpt lat="44.32250489881807" lon="10.792673475593864"><ele>678.0</ele><time>2026-04-18T17:05:57.998Z</time></trkpt><trkpt lat="44.322440833390964" lon="10.792657365108049"><ele>678.0</ele><time>2026-04-18T17:05:58.998Z</time></trkpt><trkpt lat="44.322399686955066" lon="10.792580575143095"><ele>678.0</ele><time>2026-04-18T17:05:59.998Z</time></trkpt><trkpt lat="44.32234455482105" lon="10.7925191664381"><ele>678.0</ele><time>2026-04-18T17:06:00.998Z</time></trkpt><trkpt lat="44.32229029196183" lon="10.792467218317881"><ele>678.0</ele><time>2026-04-18T17:06:01.998Z</time></trkpt><trkpt lat="44.32221851498342" lon="10.792398503175917"><ele>678.0</ele><time>2026-04-18T17:06:03.998Z</time></trkpt><trkpt lat="44.32217684003295" lon="10.79251048873998"><ele>678.0</ele><time>2026-04-18T17:06:06.998Z</time></trkpt><trkpt lat="44.32218780366454" lon="10.792693191980739"><ele>675.8333333333334</ele><time>2026-04-18T17:06:08.998Z</time></trkpt><trkpt lat="44.322313279693375" lon="10.79278233089597"><ele>673.6666666666666</ele><time>2026-04-18T17:06:10.998Z</time></trkpt><trkpt lat="44.322373518853674" lon="10.792863427231781"><ele>671.5</ele><time>2026-04-18T17:06:11.998Z</time></trkpt><trkpt lat="44.322441892061185" lon="10.792912972065672"><ele>669.3333333333333</ele><time>2026-04-18T17:06:12.998Z</time></trkpt><trkpt lat="44.32249866240035" lon="10.792970637948358"><ele>667.1666666666666</ele><time>2026-04-18T17:06:13.998Z</time></trkpt><trkpt lat="44.32247365398653" lon="10.793053429874993"><ele>665.0</ele><time>2026-04-18T17:06:14.998Z</time></trkpt><trkpt lat="44.322512386241705" lon="10.793169524160692"><ele>665.0</ele><time>2026-04-18T17:06:16.998Z</time></trkpt><trkpt lat="44.32255048782346" lon="10.793282608267377"><ele>665.0</ele><time>2026-04-18T17:06:18.998Z</time></trkpt><trkpt lat="44.322729579560715" lon="10.793275132805313"><ele>665.0</ele><time>2026-04-18T17:07:00.999Z</time></trkpt><trkpt lat="44.32274688811013" lon="10.793186367715386"><ele>665.0</ele><time>2026-04-18T17:07:02.999Z</time></trkpt><trkpt lat="44.32271308442275" lon="10.793080837591468"><ele>665.0</ele><time>2026-04-18T17:07:04.999Z</time></trkpt><trkpt lat="44.322637998380074" lon="10.793014679869993"><ele>665.0</ele><time>2026-04-18T17:07:06.999Z</time></trkpt><trkpt lat="44.32253286519741" lon="10.792916426110999"><ele>665.0</ele><time>2026-04-18T17:07:08.999Z</time></trkpt><trkpt lat="44.32244354609856" lon="10.792879710709997"><ele>665.0</ele><time>2026-04-18T17:07:10.999Z</time></trkpt><trkpt lat="44.32247661610834" lon="10.793002562001435"><ele>665.0</ele><time>2026-04-18T17:07:13.999Z</time></trkpt><trkpt lat="44.32249586946611" lon="10.793129676002582"><ele>665.0</ele><time>2026-04-18T17:07:14.999Z</time></trkpt><trkpt lat="44.32253432915416" lon="10.793245989941685"><ele>665.0</ele><time>2026-04-18T17:07:15.999Z</time></trkpt><trkpt lat="44.32257350435898" lon="10.793416900998734"><ele>665.0</ele><time>2026-04-18T17:07:17.999Z</time></trkpt><trkpt lat="44.32256701488002" lon="10.793563997941499"><ele>665.0</ele><time>2026-04-18T17:07:19.999Z</time></trkpt><trkpt lat="44.322539965124356" lon="10.793759442679447"><ele>665.0</ele><time>2026-04-18T17:07:21.999Z</time></trkpt><trkpt lat="44.32251773729773" lon="10.79385267348446"><ele>665.0</ele><time>2026-04-18T17:07:22.999Z</time></trkpt><trkpt lat="44.32247770299208" lon="10.793966351890903"><ele>663.4</ele><time>2026-04-18T17:07:23.999Z</time></trkpt><trkpt lat="44.322455123103815" lon="10.794049838891622"><ele>661.8</ele><time>2026-04-18T17:07:24.999Z</time></trkpt><trkpt lat="44.32246911074869" lon="10.794197874454367"><ele>660.2</ele><time>2026-04-18T17:07:26.999Z</time></trkpt><trkpt lat="44.32259096003133" lon="10.794289253682784"><ele>658.6</ele><time>2026-04-18T17:07:28.999Z</time></trkpt><trkpt lat="44.32265720476015" lon="10.794361700784844"><ele>657.0</ele><time>2026-04-18T17:07:29.999Z</time></trkpt><trkpt lat="44.32276942812026" lon="10.794452649106276"><ele>655.0</ele><time>2026-04-18T17:07:31.999Z</time></trkpt><trkpt lat="44.32283994996508" lon="10.794509801477346"><ele>653.0</ele><time>2026-04-18T17:07:32.999Z</time></trkpt><trkpt lat="44.32290115409295" lon="10.79453282912574"><ele>651.0</ele><time>2026-04-18T17:07:33.999Z</time></trkpt><trkpt lat="44.322962865252826" lon="10.794589448001004"><ele>649.0</ele><time>2026-04-18T17:07:34.999Z</time></trkpt><trkpt lat="44.323022877770704" lon="10.794644421212249"><ele>647.0</ele><time>2026-04-18T17:07:35.999Z</time></trkpt><trkpt lat="44.323083894956916" lon="10.794679781392617"><ele>645.0</ele><time>2026-04-18T17:07:36.999Z</time></trkpt><trkpt lat="44.3231450588658" lon="10.794792307400884"><ele>644.2</ele><time>2026-04-18T17:07:38.999Z</time></trkpt><trkpt lat="44.32318658729764" lon="10.794929751843862"><ele>643.4</ele><time>2026-04-18T17:07:40.999Z</time></trkpt><trkpt lat="44.32322040991738" lon="10.795045287842298"><ele>642.5999999999999</ele><time>2026-04-18T17:07:42.999Z</time></trkpt><trkpt lat="44.32327397944412" lon="10.795153921970991"><ele>641.8</ele><time>2026-04-18T17:07:44.999Z</time></trkpt><trkpt lat="44.323309919657476" lon="10.795290101517006"><ele>641.0</ele><time>2026-04-18T17:07:47.999Z</time></trkpt><trkpt lat="44.32320577045237" lon="10.795425817763507"><ele>637.5</ele><time>2026-04-18T17:07:48.999Z</time></trkpt><trkpt lat="44.32316089880427" lon="10.795572452991845"><ele>634.0</ele><time>2026-04-18T17:07:50.999Z</time></trkpt><trkpt lat="44.32308968428287" lon="10.7957203637351"><ele>630.5</ele><time>2026-04-18T17:07:52.999Z</time></trkpt><trkpt lat="44.32303858792252" lon="10.795858761321576"><ele>627.0</ele><time>2026-04-18T17:07:54.999Z</time></trkpt><trkpt lat="44.323014236529595" lon="10.79605092536505"><ele>626.2</ele><time>2026-04-18T17:07:56.999Z</time></trkpt><trkpt lat="44.3230049131562" lon="10.796167046514952"><ele>625.4000000000001</ele><time>2026-04-18T17:07:57.999Z</time></trkpt><trkpt lat="44.323015039733505" lon="10.796283467824793"><ele>624.5999999999999</ele><time>2026-04-18T17:07:59.999Z</time></trkpt><trkpt lat="44.32299043491665" lon="10.796447057847475"><ele>623.8</ele><time>2026-04-18T17:08:00.999Z</time></trkpt><trkpt lat="44.32299156696448" lon="10.796580798047632"><ele>623.0</ele><time>2026-04-18T17:08:02.998Z</time></trkpt><trkpt lat="44.322998160072785" lon="10.796686716351394"><ele>623.0</ele><time>2026-04-18T17:08:04.998Z</time></trkpt><trkpt lat="44.323012085507536" lon="10.796811459048522"><ele>623.0</ele><time>2026-04-18T17:08:07.998Z</time></trkpt><trkpt lat="44.32296562650537" lon="10.796875078710961"><ele>623.0</ele><time>2026-04-18T17:08:38Z</time></trkpt><trkpt lat="44.32291124502752" lon="10.796944527752027"><ele>623.0</ele><time>2026-04-18T17:08:40Z</time></trkpt><trkpt lat="44.322824762261426" lon="10.797037037849046"><ele>623.0</ele><time>2026-04-18T17:08:43Z</time></trkpt><trkpt lat="44.322765269297875" lon="10.797066824992712"><ele>623.0</ele><time>2026-04-18T17:08:46Z</time></trkpt><trkpt lat="44.322696449296195" lon="10.797032380487783"><ele>623.0</ele><time>2026-04-18T17:08:49.999Z</time></trkpt><trkpt lat="44.32259243844323" lon="10.796953328121731"><ele>623.0</ele><time>2026-04-18T17:08:51.999Z</time></trkpt><trkpt lat="44.322518819982456" lon="10.79689502226059"><ele>623.0</ele><time>2026-04-18T17:08:53.999Z</time></trkpt><trkpt lat="44.32244789664327" lon="10.796832698698399"><ele>623.0</ele><time>2026-04-18T17:08:55.999Z</time></trkpt><trkpt lat="44.32236935064903" lon="10.796882383374971"><ele>623.0</ele><time>2026-04-18T17:08:58.999Z</time></trkpt><trkpt lat="44.32230401603414" lon="10.796917450034147"><ele>623.0</ele><time>2026-04-18T17:09:01.999Z</time></trkpt><trkpt lat="44.322273063504596" lon="10.797013491520111"><ele>626.6666666666666</ele><time>2026-04-18T17:09:07.999Z</time></trkpt><trkpt lat="44.32221430176241" lon="10.797078415871429"><ele>630.3333333333333</ele><time>2026-04-18T17:09:10.999Z</time></trkpt><trkpt lat="44.32216174154502" lon="10.797151294024564"><ele>634.0</ele><time>2026-04-18T17:09:13Z</time></trkpt><trkpt lat="44.32210211839704" lon="10.79724153637494"><ele>637.6666666666666</ele><time>2026-04-18T17:09:15Z</time></trkpt><trkpt lat="44.32203688002751" lon="10.797326024016444"><ele>641.3333333333334</ele><time>2026-04-18T17:09:17Z</time></trkpt><trkpt lat="44.321978990915326" lon="10.797361705502897"><ele>645.0</ele><time>2026-04-18T17:09:19Z</time></trkpt><trkpt lat="44.32192651581338" lon="10.797420059599725"><ele>645.0</ele><time>2026-04-18T17:09:24Z</time></trkpt><trkpt lat="44.3218428194684" lon="10.797443605238682"><ele>645.0</ele><time>2026-04-18T17:09:41Z</time></trkpt><trkpt lat="44.32174968866104" lon="10.797407756233781"><ele>645.0</ele><time>2026-04-18T17:09:43Z</time></trkpt><trkpt lat="44.32165490705151" lon="10.797382806135523"><ele>645.0</ele><time>2026-04-18T17:09:45Z</time></trkpt><trkpt lat="44.32157402874676" lon="10.79737579534684"><ele>645.0</ele><time>2026-04-18T17:09:47Z</time></trkpt><trkpt lat="44.32150419903012" lon="10.797358981168646"><ele>645.0</ele><time>2026-04-18T17:09:49Z</time></trkpt><trkpt lat="44.32157613443668" lon="10.797356142727727"><ele>645.0</ele><time>2026-04-18T17:10:30.999Z</time></trkpt><trkpt lat="44.32165578374105" lon="10.797351755689878"><ele>645.0</ele><time>2026-04-18T17:10:33.999Z</time></trkpt><trkpt lat="44.321729819989805" lon="10.797361975304135"><ele>645.0</ele><time>2026-04-18T17:10:35.999Z</time></trkpt><trkpt lat="44.32179471182946" lon="10.797409581872282"><ele>645.0</ele><time>2026-04-18T17:10:38.001Z</time></trkpt><trkpt lat="44.32186005391577" lon="10.797411904307777"><ele>645.0</ele><time>2026-04-18T17:10:42.001Z</time></trkpt><trkpt lat="44.32192048290445" lon="10.79744220610158"><ele>645.0</ele><time>2026-04-18T17:11:00Z</time></trkpt><trkpt lat="44.32195556127397" lon="10.797347875851905"><ele>645.0</ele><time>2026-04-18T17:11:28Z</time></trkpt><trkpt lat="44.32204273662446" lon="10.797303020621497"><ele>645.0</ele><time>2026-04-18T17:11:30Z</time></trkpt><trkpt lat="44.322085956857975" lon="10.797210088364773"><ele>645.0</ele><time>2026-04-18T17:11:32Z</time></trkpt><trkpt lat="44.32213582264912" lon="10.79713663934827"><ele>645.0</ele><time>2026-04-18T17:11:34Z</time></trkpt><trkpt lat="44.32218974425754" lon="10.797061179308601"><ele>645.0</ele><time>2026-04-18T17:11:37Z</time></trkpt><trkpt lat="44.32225426561475" lon="10.796999148844877"><ele>645.0</ele><time>2026-04-18T17:11:39Z</time></trkpt><trkpt lat="44.3222844123008" lon="10.796919506591456"><ele>645.0</ele><time>2026-04-18T17:11:42Z</time></trkpt><trkpt lat="44.322371553824375" lon="10.796864489654398"><ele>642.7142857142858</ele><time>2026-04-18T17:11:56Z</time></trkpt><trkpt lat="44.32244070125541" lon="10.796827266113903"><ele>640.4285714285713</ele><time>2026-04-18T17:11:59Z</time></trkpt><trkpt lat="44.32250976801037" lon="10.79688094827082"><ele>638.1428571428571</ele><time>2026-04-18T17:12:01Z</time></trkpt><trkpt lat="44.3225727631116" lon="10.796947131568544"><ele>635.8571428571429</ele><time>2026-04-18T17:12:02Z</time></trkpt><trkpt lat="44.32264059193425" lon="10.797000390538269"><ele>633.5714285714287</ele><time>2026-04-18T17:12:03.999Z</time></trkpt><trkpt lat="44.322702831105765" lon="10.797033355661375"><ele>631.2857142857142</ele><time>2026-04-18T17:12:05.999Z</time></trkpt><trkpt lat="44.32273647311583" lon="10.797121139618982"><ele>629.0</ele><time>2026-04-18T17:12:08.999Z</time></trkpt><trkpt lat="44.32271100881957" lon="10.797212064716952"><ele>629.0</ele><time>2026-04-18T17:12:10.999Z</time></trkpt><trkpt lat="44.32267813187695" lon="10.797293397505602"><ele>629.0</ele><time>2026-04-18T17:12:12.999Z</time></trkpt><trkpt lat="44.32263141752961" lon="10.797368538980152"><ele>629.0</ele><time>2026-04-18T17:12:14.999Z</time></trkpt><trkpt lat="44.32261882709854" lon="10.797458910943389"><ele>629.0</ele><time>2026-04-18T17:12:18.999Z</time></trkpt><trkpt lat="44.32256261407267" lon="10.797506498916446"><ele>629.0</ele><time>2026-04-18T17:12:20.999Z</time></trkpt><trkpt lat="44.3224883012342" lon="10.797546168192628"><ele>629.0</ele><time>2026-04-18T17:12:23.999Z</time></trkpt><trkpt lat="44.322425034124784" lon="10.7976022099328"><ele>629.0</ele><time>2026-04-18T17:12:26.999Z</time></trkpt><trkpt lat="44.32242709040291" lon="10.797716179441867"><ele>629.6666666666666</ele><time>2026-04-18T17:12:29.999Z</time></trkpt><trkpt lat="44.322492328548506" lon="10.797774732725639"><ele>630.3333333333333</ele><time>2026-04-18T17:12:32.999Z</time></trkpt><trkpt lat="44.32251861860465" lon="10.797889079655034"><ele>631.0</ele><time>2026-04-18T17:12:35.999Z</time></trkpt><trkpt lat="44.322577977863716" lon="10.797947361417252"><ele>631.6666666666666</ele><time>2026-04-18T17:12:38.999Z</time></trkpt><trkpt lat="44.32263273388433" lon="10.798028722592306"><ele>632.3333333333334</ele><time>2026-04-18T17:12:41.999Z</time></trkpt><trkpt lat="44.32269146464755" lon="10.798130752595458"><ele>633.0</ele><time>2026-04-18T17:12:54Z</time></trkpt><trkpt lat="44.32273492213311" lon="10.79820991030895"><ele>633.0</ele><time>2026-04-18T17:12:55Z</time></trkpt><trkpt lat="44.32276386399063" lon="10.798342314011505"><ele>633.0</ele><time>2026-04-18T17:12:57Z</time></trkpt><trkpt lat="44.322701512613726" lon="10.798493355163355"><ele>633.0</ele><time>2026-04-18T17:12:59Z</time></trkpt><trkpt lat="44.32262345570583" lon="10.798632398796316"><ele>633.0</ele><time>2026-04-18T17:13:01Z</time></trkpt><trkpt lat="44.32258860393446" lon="10.798719530677314"><ele>633.0</ele><time>2026-04-18T17:13:02Z</time></trkpt><trkpt lat="44.322554736611224" lon="10.798796875074835"><ele>634.0</ele><time>2026-04-18T17:13:03Z</time></trkpt><trkpt lat="44.322502465656264" lon="10.798947549100035"><ele>635.0</ele><time>2026-04-18T17:13:05Z</time></trkpt><trkpt lat="44.3224502571326" lon="10.799076182094025"><ele>636.0</ele><time>2026-04-18T17:13:07Z</time></trkpt><trkpt lat="44.32241003930422" lon="10.799214373085805"><ele>637.0</ele><time>2026-04-18T17:13:09Z</time></trkpt><trkpt lat="44.32237619948543" lon="10.79934498488602"><ele>638.0</ele><time>2026-04-18T17:13:11Z</time></trkpt><trkpt lat="44.32233064045086" lon="10.799459862964369"><ele>639.0</ele><time>2026-04-18T17:13:13Z</time></trkpt><trkpt lat="44.322352895106164" lon="10.799592355796108"><ele>640.0</ele><time>2026-04-18T17:13:15Z</time></trkpt><trkpt lat="44.322294893854114" lon="10.79968122348448"><ele>641.0</ele><time>2026-04-18T17:13:17Z</time></trkpt><trkpt lat="44.32225921994015" lon="10.799800354493302"><ele>642.0</ele><time>2026-04-18T17:13:19Z</time></trkpt><trkpt lat="44.3222269459314" lon="10.79990661627065"><ele>643.0</ele><time>2026-04-18T17:13:21Z</time></trkpt><trkpt lat="44.32220797581426" lon="10.799996446023496"><ele>644.0</ele><time>2026-04-18T17:13:24Z</time></trkpt><trkpt lat="44.32217554006837" lon="10.800103388507264"><ele>644.0</ele><time>2026-04-18T17:13:27Z</time></trkpt><trkpt lat="44.32213635230372" lon="10.800198311509707"><ele>644.0</ele><time>2026-04-18T17:13:31Z</time></trkpt><trkpt lat="44.322077207660904" lon="10.800257971190012"><ele>644.0</ele><time>2026-04-18T17:13:33Z</time></trkpt><trkpt lat="44.322002253379736" lon="10.800277938987339"><ele>644.0</ele><time>2026-04-18T17:13:36Z</time></trkpt><trkpt lat="44.3219326440419" lon="10.800217132362672"><ele>644.0</ele><time>2026-04-18T17:13:38Z</time></trkpt><trkpt lat="44.32185715200756" lon="10.800145902831606"><ele>644.0</ele><time>2026-04-18T17:13:40Z</time></trkpt><trkpt lat="44.32180013453908" lon="10.800091667282114"><ele>644.0</ele><time>2026-04-18T17:13:42Z</time></trkpt><trkpt lat="44.32172678879435" lon="10.80009627655891"><ele>644.0</ele><time>2026-04-18T17:13:44Z</time></trkpt><trkpt lat="44.3216549277106" lon="10.800153099465803"><ele>644.0</ele><time>2026-04-18T17:13:47Z</time></trkpt><trkpt lat="44.32158038920799" lon="10.800178655081883"><ele>644.0</ele><time>2026-04-18T17:13:49Z</time></trkpt><trkpt lat="44.32149945494393" lon="10.800250047725916"><ele>644.0</ele><time>2026-04-18T17:13:51Z</time></trkpt><trkpt lat="44.32141405768814" lon="10.800277513979955"><ele>644.0</ele><time>2026-04-18T17:13:53Z</time></trkpt><trkpt lat="44.32135238285972" lon="10.800316137647396"><ele>645.3333333333333</ele><time>2026-04-18T17:13:55Z</time></trkpt><trkpt lat="44.321289065047125" lon="10.800349978480128"><ele>646.6666666666666</ele><time>2026-04-18T17:13:57Z</time></trkpt><trkpt lat="44.32120142702574" lon="10.800366397817672"><ele>648.0</ele><time>2026-04-18T17:14:00Z</time></trkpt><trkpt lat="44.3211203732576" lon="10.800317088547805"><ele>649.3333333333334</ele><time>2026-04-18T17:14:01.999Z</time></trkpt><trkpt lat="44.32105992477361" lon="10.800283330683275"><ele>650.6666666666667</ele><time>2026-04-18T17:14:03.999Z</time></trkpt><trkpt lat="44.32099248375411" lon="10.800263771983582"><ele>652.0</ele><time>2026-04-18T17:14:05.999Z</time></trkpt><trkpt lat="44.320921012395395" lon="10.800270637919747"><ele>652.0</ele><time>2026-04-18T17:14:08.999Z</time></trkpt><trkpt lat="44.320847607748696" lon="10.800262313223062"><ele>652.0</ele><time>2026-04-18T17:14:10.999Z</time></trkpt><trkpt lat="44.32077550310609" lon="10.800263176180412"><ele>652.0</ele><time>2026-04-18T17:14:12.999Z</time></trkpt><trkpt lat="44.32068142120286" lon="10.80029577097801"><ele>652.0</ele><time>2026-04-18T17:14:15.999Z</time></trkpt><trkpt lat="44.32061693742034" lon="10.80029382697316"><ele>652.0</ele><time>2026-04-18T17:14:17.999Z</time></trkpt><trkpt lat="44.32054156861002" lon="10.80030562119785"><ele>652.0</ele><time>2026-04-18T17:14:20.999Z</time></trkpt><trkpt lat="44.32047749730278" lon="10.800347597162842"><ele>652.1666666666667</ele><time>2026-04-18T17:14:29.999Z</time></trkpt><trkpt lat="44.32049491303837" lon="10.800257465622158"><ele>652.3333333333334</ele><time>2026-04-18T17:15:18Z</time></trkpt><trkpt lat="44.32041254220182" lon="10.800240620302747"><ele>652.5</ele><time>2026-04-18T17:15:46Z</time></trkpt><trkpt lat="44.320341694721876" lon="10.80023136504934"><ele>652.6666666666666</ele><time>2026-04-18T17:15:50Z</time></trkpt><trkpt lat="44.32036566994152" lon="10.800343218299354"><ele>652.8333333333333</ele><time>2026-04-18T17:15:52Z</time></trkpt><trkpt lat="44.320395271800805" lon="10.800426432121897"><ele>653.0</ele><time>2026-04-18T17:15:53Z</time></trkpt><trkpt lat="44.32041582948437" lon="10.800557835058406"><ele>653.0</ele><time>2026-04-18T17:15:55Z</time></trkpt><trkpt lat="44.32041140550884" lon="10.800702549864187"><ele>653.0</ele><time>2026-04-18T17:15:57Z</time></trkpt><trkpt lat="44.32038851052506" lon="10.80080867479323"><ele>653.0</ele><time>2026-04-18T17:15:59Z</time></trkpt><trkpt lat="44.320385731260025" lon="10.800911277079331"><ele>653.0</ele><time>2026-04-18T17:16:10.999Z</time></trkpt><trkpt lat="44.320364587197176" lon="10.80103223841175"><ele>653.0</ele><time>2026-04-18T17:16:12.999Z</time></trkpt><trkpt lat="44.32038329821557" lon="10.80111964571523"><ele>653.0</ele><time>2026-04-18T17:16:15.999Z</time></trkpt><trkpt lat="44.32045772401999" lon="10.801189027170171"><ele>654.0</ele><time>2026-04-18T17:16:26.999Z</time></trkpt><trkpt lat="44.32049617235222" lon="10.801281070985546"><ele>655.0</ele><time>2026-04-18T17:16:29.999Z</time></trkpt><trkpt lat="44.320551115613874" lon="10.801367524029022"><ele>656.0</ele><time>2026-04-18T17:16:31.999Z</time></trkpt><trkpt lat="44.32059655985131" lon="10.801460299044322"><ele>657.0</ele><time>2026-04-18T17:16:33.999Z</time></trkpt><trkpt lat="44.32064531703325" lon="10.801565981465204"><ele>658.0</ele><time>2026-04-18T17:16:35.999Z</time></trkpt><trkpt lat="44.32070266692863" lon="10.80164435851908"><ele>659.0</ele><time>2026-04-18T17:16:37.999Z</time></trkpt><trkpt lat="44.32077351729904" lon="10.801740277013122"><ele>659.0</ele><time>2026-04-18T17:16:39.999Z</time></trkpt><trkpt lat="44.32082800153797" lon="10.801815105641209"><ele>659.0</ele><time>2026-04-18T17:16:41.999Z</time></trkpt><trkpt lat="44.32080953517449" lon="10.801931566744331"><ele>659.0</ele><time>2026-04-18T17:16:43.999Z</time></trkpt><trkpt lat="44.3208708417114" lon="10.802022216724962"><ele>659.0</ele><time>2026-04-18T17:16:46.999Z</time></trkpt><trkpt lat="44.32097696453624" lon="10.802124153272684"><ele>659.0</ele><time>2026-04-18T17:16:48.999Z</time></trkpt><trkpt lat="44.32103028735969" lon="10.802183008588917"><ele>659.0</ele><time>2026-04-18T17:16:49.999Z</time></trkpt><trkpt lat="44.321092402494166" lon="10.802247318362651"><ele>658.6666666666666</ele><time>2026-04-18T17:16:50.999Z</time></trkpt><trkpt lat="44.32114573566391" lon="10.802298945514478"><ele>658.3333333333333</ele><time>2026-04-18T17:16:51.999Z</time></trkpt><trkpt lat="44.32123561153649" lon="10.80240550235374"><ele>658.0</ele><time>2026-04-18T17:16:53.999Z</time></trkpt><trkpt lat="44.32127440393392" lon="10.802478590894667"><ele>657.6666666666666</ele><time>2026-04-18T17:16:55Z</time></trkpt><trkpt lat="44.32130846835413" lon="10.802570725106467"><ele>657.3333333333334</ele><time>2026-04-18T17:16:56Z</time></trkpt><trkpt lat="44.32130481598228" lon="10.80273090831497"><ele>657.0</ele><time>2026-04-18T17:16:58Z</time></trkpt><trkpt lat="44.321294650491765" lon="10.802893764788887"><ele>658.1666666666666</ele><time>2026-04-18T17:17:00Z</time></trkpt><trkpt lat="44.32127774718807" lon="10.803029674661335"><ele>659.3333333333334</ele><time>2026-04-18T17:17:02Z</time></trkpt><trkpt lat="44.321255296381864" lon="10.803125589510874"><ele>660.5</ele><time>2026-04-18T17:17:04Z</time></trkpt><trkpt lat="44.32121162733004" lon="10.803207880320187"><ele>661.6666666666667</ele><time>2026-04-18T17:17:06Z</time></trkpt><trkpt lat="44.3211468771975" lon="10.803313251477736"><ele>662.8333333333334</ele><time>2026-04-18T17:17:08Z</time></trkpt><trkpt lat="44.32108935241239" lon="10.803352372303511"><ele>664.0</ele><time>2026-04-18T17:17:10Z</time></trkpt><trkpt lat="44.32103498175827" lon="10.803406715202245"><ele>664.0</ele><time>2026-04-18T17:17:12Z</time></trkpt><trkpt lat="44.32096101044835" lon="10.803462801450952"><ele>664.0</ele><time>2026-04-18T17:17:14Z</time></trkpt><trkpt lat="44.3208861638433" lon="10.803527942947452"><ele>664.0</ele><time>2026-04-18T17:17:16Z</time></trkpt><trkpt lat="44.32079608266314" lon="10.80357156817119"><ele>664.0</ele><time>2026-04-18T17:17:18Z</time></trkpt><trkpt lat="44.320687618495626" lon="10.80363553617351"><ele>664.0</ele><time>2026-04-18T17:17:20Z</time></trkpt><trkpt lat="44.32062750320436" lon="10.803677469989957"><ele>665.1666666666667</ele><time>2026-04-18T17:17:22Z</time></trkpt><trkpt lat="44.32064165707328" lon="10.803786346184655"><ele>666.3333333333334</ele><time>2026-04-18T17:17:25Z</time></trkpt><trkpt lat="44.320708685585004" lon="10.80381472402969"><ele>667.5</ele><time>2026-04-18T17:17:27Z</time></trkpt><trkpt lat="44.32076517596984" lon="10.803873022891105"><ele>668.6666666666666</ele><time>2026-04-18T17:17:29Z</time></trkpt><trkpt lat="44.32080467785148" lon="10.80397876039509"><ele>669.8333333333333</ele><time>2026-04-18T17:17:32Z</time></trkpt><trkpt lat="44.32085014644665" lon="10.80406827863294"><ele>671.0</ele><time>2026-04-18T17:17:34Z</time></trkpt><trkpt lat="44.32090338700158" lon="10.804128342348235"><ele>671.0</ele><time>2026-04-18T17:17:36Z</time></trkpt><trkpt lat="44.32095620304337" lon="10.804197591725355"><ele>671.0</ele><time>2026-04-18T17:17:38Z</time></trkpt><trkpt lat="44.32099526779335" lon="10.804280692306799"><ele>671.0</ele><time>2026-04-18T17:17:40Z</time></trkpt><trkpt lat="44.32102899314409" lon="10.804415999755156"><ele>671.0</ele><time>2026-04-18T17:18:01Z</time></trkpt><trkpt lat="44.32103354034622" lon="10.804525230856527"><ele>671.0</ele><time>2026-04-18T17:18:03Z</time></trkpt><trkpt lat="44.32106642001601" lon="10.804602618071396"><ele>671.0</ele><time>2026-04-18T17:18:05Z</time></trkpt><trkpt lat="44.32110272930892" lon="10.804697611832928"><ele>671.1666666666666</ele><time>2026-04-18T17:18:07Z</time></trkpt><trkpt lat="44.3211322030566" lon="10.80478991055265"><ele>671.3333333333333</ele><time>2026-04-18T17:18:08.999Z</time></trkpt><trkpt lat="44.32116739606528" lon="10.804915998270893"><ele>671.5</ele><time>2026-04-18T17:18:10.999Z</time></trkpt><trkpt lat="44.32119235546419" lon="10.805038897268606"><ele>671.6666666666666</ele><time>2026-04-18T17:18:12.999Z</time></trkpt><trkpt lat="44.32121470246856" lon="10.805122136527814"><ele>671.8333333333334</ele><time>2026-04-18T17:18:14.999Z</time></trkpt><trkpt lat="44.32126550993538" lon="10.805208071030206"><ele>672.0</ele><time>2026-04-18T17:18:16.999Z</time></trkpt><trkpt lat="44.321292214793694" lon="10.805303852061726"><ele>672.0</ele><time>2026-04-18T17:18:18.999Z</time></trkpt><trkpt lat="44.32129293194367" lon="10.80542994338829"><ele>672.0</ele><time>2026-04-18T17:18:20.999Z</time></trkpt><trkpt lat="44.32127906461908" lon="10.805530403720503"><ele>672.0</ele><time>2026-04-18T17:18:22.999Z</time></trkpt><trkpt lat="44.321192533768794" lon="10.805565084625792"><ele>672.0</ele><time>2026-04-18T17:18:31.999Z</time></trkpt><trkpt lat="44.321107241567226" lon="10.805550712621743"><ele>672.0</ele><time>2026-04-18T17:18:33.999Z</time></trkpt><trkpt lat="44.32102027432924" lon="10.80553309387521"><ele>672.0</ele><time>2026-04-18T17:18:35.999Z</time></trkpt><trkpt lat="44.320929627029074" lon="10.805510341928391"><ele>672.0</ele><time>2026-04-18T17:18:37.999Z</time></trkpt><trkpt lat="44.320855138791266" lon="10.805488011254589"><ele>672.0</ele><time>2026-04-18T17:18:39.999Z</time></trkpt><trkpt lat="44.32078516361534" lon="10.805488114570414"><ele>672.0</ele><time>2026-04-18T17:18:40.999Z</time></trkpt><trkpt lat="44.320715894999424" lon="10.805485024694036"><ele>672.0</ele><time>2026-04-18T17:18:41.999Z</time></trkpt><trkpt lat="44.32063748985893" lon="10.80546212718842"><ele>672.0</ele><time>2026-04-18T17:18:44.999Z</time></trkpt><trkpt lat="44.32055272462608" lon="10.80545992805384"><ele>672.0</ele><time>2026-04-18T17:18:46.999Z</time></trkpt><trkpt lat="44.32046925640588" lon="10.80544796291266"><ele>671.4285714285714</ele><time>2026-04-18T17:18:48.999Z</time></trkpt><trkpt lat="44.320391657700384" lon="10.80543075901234"><ele>670.8571428571429</ele><time>2026-04-18T17:18:50.999Z</time></trkpt><trkpt lat="44.32032064003428" lon="10.805418357873993"><ele>670.2857142857142</ele><time>2026-04-18T17:18:52.999Z</time></trkpt><trkpt lat="44.32025671349678" lon="10.80541309940544"><ele>669.7142857142858</ele><time>2026-04-18T17:18:54.999Z</time></trkpt><trkpt lat="44.320180441757714" lon="10.805448019920146"><ele>669.1428571428571</ele><time>2026-04-18T17:18:57.999Z</time></trkpt><trkpt lat="44.32017373721089" lon="10.805545925219329"><ele>668.5714285714286</ele><time>2026-04-18T17:18:59.999Z</time></trkpt><trkpt lat="44.32017570303118" lon="10.805656466749639"><ele>668.0</ele><time>2026-04-18T17:19:02Z</time></trkpt><trkpt lat="44.32017304386447" lon="10.805802943952854"><ele>668.0</ele><time>2026-04-18T17:19:05Z</time></trkpt><trkpt lat="44.32018349703758" lon="10.805906245583177"><ele>668.0</ele><time>2026-04-18T17:19:07Z</time></trkpt><trkpt lat="44.320206929802474" lon="10.806039451625372"><ele>668.0</ele><time>2026-04-18T17:19:09Z</time></trkpt><trkpt lat="44.32023962133956" lon="10.806166954304093"><ele>668.0</ele><time>2026-04-18T17:19:11Z</time></trkpt><trkpt lat="44.32024942337954" lon="10.806288320655202"><ele>668.0</ele><time>2026-04-18T17:19:13Z</time></trkpt><trkpt lat="44.32019503381665" lon="10.806417830820518"><ele>668.1666666666666</ele><time>2026-04-18T17:19:15Z</time></trkpt><trkpt lat="44.32011533096206" lon="10.80653574578001"><ele>668.3333333333333</ele><time>2026-04-18T17:19:17Z</time></trkpt><trkpt lat="44.32007186302675" lon="10.806610501309393"><ele>668.5</ele><time>2026-04-18T17:19:18Z</time></trkpt><trkpt lat="44.32003601720729" lon="10.806718301991545"><ele>668.6666666666666</ele><time>2026-04-18T17:19:20Z</time></trkpt><trkpt lat="44.32003164647774" lon="10.806827530824705"><ele>668.8333333333334</ele><time>2026-04-18T17:19:22Z</time></trkpt><trkpt lat="44.32002222944235" lon="10.806933493006257"><ele>669.0</ele><time>2026-04-18T17:19:24Z</time></trkpt><trkpt lat="44.31998747404722" lon="10.80706140137289"><ele>669.5</ele><time>2026-04-18T17:19:31Z</time></trkpt><trkpt lat="44.31996153983028" lon="10.807154271802009"><ele>670.0</ele><time>2026-04-18T17:19:32Z</time></trkpt><trkpt lat="44.319934845845715" lon="10.80723849758915"><ele>670.5</ele><time>2026-04-18T17:19:34Z</time></trkpt><trkpt lat="44.31990355151292" lon="10.807355999238219"><ele>671.0</ele><time>2026-04-18T17:19:36Z</time></trkpt><trkpt lat="44.31990324452824" lon="10.807459709370796"><ele>671.5</ele><time>2026-04-18T17:19:38Z</time></trkpt><trkpt lat="44.31991614612831" lon="10.807569148202468"><ele>672.0</ele><time>2026-04-18T17:19:40Z</time></trkpt><trkpt lat="44.31992273376026" lon="10.807702523361153"><ele>672.1666666666666</ele><time>2026-04-18T17:19:42Z</time></trkpt><trkpt lat="44.31990573488352" lon="10.807800155568728"><ele>672.3333333333334</ele><time>2026-04-18T17:19:44Z</time></trkpt><trkpt lat="44.31988804022006" lon="10.807902681132445"><ele>672.5</ele><time>2026-04-18T17:19:46Z</time></trkpt><trkpt lat="44.319876732478555" lon="10.80801648644578"><ele>672.6666666666667</ele><time>2026-04-18T17:19:48Z</time></trkpt><trkpt lat="44.31987179122116" lon="10.808120055871791"><ele>672.8333333333334</ele><time>2026-04-18T17:19:50Z</time></trkpt><trkpt lat="44.31985156735716" lon="10.80825363536352"><ele>673.0</ele><time>2026-04-18T17:19:52Z</time></trkpt><trkpt lat="44.31984041853911" lon="10.808369625319402"><ele>673.0</ele><time>2026-04-18T17:19:54Z</time></trkpt><trkpt lat="44.319859658955735" lon="10.808488827409713"><ele>673.0</ele><time>2026-04-18T17:19:56Z</time></trkpt><trkpt lat="44.319913635382676" lon="10.80859637826538"><ele>673.0</ele><time>2026-04-18T17:19:58Z</time></trkpt><trkpt lat="44.320025893854066" lon="10.80869718616497"><ele>673.0</ele><time>2026-04-18T17:20:00Z</time></trkpt><trkpt lat="44.32012802398459" lon="10.808764273206705"><ele>673.0</ele><time>2026-04-18T17:20:02Z</time></trkpt><trkpt lat="44.320233413809014" lon="10.808849185277285"><ele>674.4</ele><time>2026-04-18T17:20:04Z</time></trkpt><trkpt lat="44.32029380293292" lon="10.80888848626709"><ele>675.8</ele><time>2026-04-18T17:20:05Z</time></trkpt><trkpt lat="44.32035990318083" lon="10.80892306858808"><ele>677.2</ele><time>2026-04-18T17:20:06Z</time></trkpt><trkpt lat="44.32051204319879" lon="10.808953465115913"><ele>678.6</ele><time>2026-04-18T17:20:08Z</time></trkpt><trkpt lat="44.320593782932995" lon="10.808971491245677"><ele>680.0</ele><time>2026-04-18T17:20:09Z</time></trkpt><trkpt lat="44.32067750829328" lon="10.808998863635491"><ele>680.8</ele><time>2026-04-18T17:20:10Z</time></trkpt><trkpt lat="44.32075912004981" lon="10.809010909683169"><ele>681.6</ele><time>2026-04-18T17:20:11Z</time></trkpt><trkpt lat="44.32087612302336" lon="10.809029482579666"><ele>682.4000000000001</ele><time>2026-04-18T17:20:12.999Z</time></trkpt><trkpt lat="44.320955680080296" lon="10.809111828680386"><ele>683.2</ele><time>2026-04-18T17:20:14.999Z</time></trkpt><trkpt lat="44.321004067481255" lon="10.80922227286834"><ele>684.0</ele><time>2026-04-18T17:20:16.999Z</time></trkpt><trkpt lat="44.321080468150605" lon="10.809336277270999"><ele>684.8333333333334</ele><time>2026-04-18T17:20:18.999Z</time></trkpt><trkpt lat="44.32113879452363" lon="10.809399057312966"><ele>685.6666666666666</ele><time>2026-04-18T17:20:19.999Z</time></trkpt><trkpt lat="44.3212322586752" lon="10.809467116220638"><ele>686.5</ele><time>2026-04-18T17:20:21.999Z</time></trkpt><trkpt lat="44.321315095086604" lon="10.809562444880486"><ele>687.3333333333333</ele><time>2026-04-18T17:20:23.999Z</time></trkpt><trkpt lat="44.321358540012355" lon="10.809662067997063"><ele>688.1666666666666</ele><time>2026-04-18T17:20:25.999Z</time></trkpt><trkpt lat="44.32137728819519" lon="10.809748773499196"><ele>689.0</ele><time>2026-04-18T17:20:26.999Z</time></trkpt><trkpt lat="44.32143633090683" lon="10.809879559610899"><ele>689.4000000000001</ele><time>2026-04-18T17:20:28.999Z</time></trkpt><trkpt lat="44.32149776315114" lon="10.809996480594062"><ele>689.8</ele><time>2026-04-18T17:20:30.999Z</time></trkpt><trkpt lat="44.32157125033125" lon="10.810110423718847"><ele>690.2</ele><time>2026-04-18T17:20:32.999Z</time></trkpt><trkpt lat="44.3216828011213" lon="10.810169959859728"><ele>690.5999999999999</ele><time>2026-04-18T17:20:34.999Z</time></trkpt><trkpt lat="44.32175062067134" lon="10.81018420260803"><ele>691.0</ele><time>2026-04-18T17:20:35.999Z</time></trkpt><trkpt lat="44.32181928772359" lon="10.810194124770087"><ele>691.0</ele><time>2026-04-18T17:20:36.999Z</time></trkpt><trkpt lat="44.321886876830526" lon="10.810196158829271"><ele>691.0</ele><time>2026-04-18T17:20:37.999Z</time></trkpt><trkpt lat="44.32199378726231" lon="10.810213170529215"><ele>691.0</ele><time>2026-04-18T17:20:39.999Z</time></trkpt><trkpt lat="44.32210043596833" lon="10.810194592890372"><ele>691.0</ele><time>2026-04-18T17:20:40.999Z</time></trkpt><trkpt lat="44.322218200049534" lon="10.810132388800278"><ele>691.0</ele><time>2026-04-18T17:20:42.999Z</time></trkpt><trkpt lat="44.322303771254504" lon="10.810017149998536"><ele>694.1999999999999</ele><time>2026-04-18T17:20:44.999Z</time></trkpt><trkpt lat="44.32236128815661" lon="10.809910347219237"><ele>697.4</ele><time>2026-04-18T17:20:46.999Z</time></trkpt><trkpt lat="44.3224592039504" lon="10.809841021709715"><ele>700.6</ele><time>2026-04-18T17:20:48.999Z</time></trkpt><trkpt lat="44.32257379958429" lon="10.809810080880748"><ele>703.8</ele><time>2026-04-18T17:20:50.999Z</time></trkpt><trkpt lat="44.32263730871842" lon="10.809806519550994"><ele>707.0</ele><time>2026-04-18T17:20:51.999Z</time></trkpt><trkpt lat="44.322772711837764" lon="10.809808828535742"><ele>707.0</ele><time>2026-04-18T17:20:53.999Z</time></trkpt><trkpt lat="44.322837599337326" lon="10.809829555499668"><ele>707.0</ele><time>2026-04-18T17:20:54.999Z</time></trkpt><trkpt lat="44.32293059571255" lon="10.80988726382319"><ele>707.0</ele><time>2026-04-18T17:20:56.999Z</time></trkpt><trkpt lat="44.323014372481694" lon="10.809960292285005"><ele>707.0</ele><time>2026-04-18T17:20:58.999Z</time></trkpt><trkpt lat="44.32306294559223" lon="10.810083751592673"><ele>707.0</ele><time>2026-04-18T17:21:00.999Z</time></trkpt><trkpt lat="44.32311227356381" lon="10.810194999090914"><ele>707.4000000000001</ele><time>2026-04-18T17:21:02.999Z</time></trkpt><trkpt lat="44.32315918660327" lon="10.81031747825993"><ele>707.8000000000001</ele><time>2026-04-18T17:21:04.999Z</time></trkpt><trkpt lat="44.32316725647454" lon="10.810466370331909"><ele>708.2</ele><time>2026-04-18T17:21:07Z</time></trkpt><trkpt lat="44.32315792824896" lon="10.81059864799322"><ele>708.6</ele><time>2026-04-18T17:21:08Z</time></trkpt><trkpt lat="44.323154743749036" lon="10.810725391778208"><ele>709.0</ele><time>2026-04-18T17:21:09Z</time></trkpt><trkpt lat="44.32312287620953" lon="10.810830542954628"><ele>709.0</ele><time>2026-04-18T17:21:10Z</time></trkpt><trkpt lat="44.32310726091888" lon="10.810927016989945"><ele>709.0</ele><time>2026-04-18T17:21:11Z</time></trkpt><trkpt lat="44.323092497209544" lon="10.811021838803969"><ele>709.0</ele><time>2026-04-18T17:21:12Z</time></trkpt><trkpt lat="44.32308174539194" lon="10.81119961376282"><ele>709.0</ele><time>2026-04-18T17:21:14Z</time></trkpt><trkpt lat="44.32307959280179" lon="10.811315041336856"><ele>709.0</ele><time>2026-04-18T17:21:15Z</time></trkpt><trkpt lat="44.323090684528374" lon="10.81141159693405"><ele>709.0</ele><time>2026-04-18T17:21:16Z</time></trkpt><trkpt lat="44.32309677725658" lon="10.811518789852089"><ele>709.75</ele><time>2026-04-18T17:21:17Z</time></trkpt><trkpt lat="44.32309333371471" lon="10.811666718567812"><ele>710.5</ele><time>2026-04-18T17:21:18Z</time></trkpt><trkpt lat="44.3231048493226" lon="10.81185047629742"><ele>711.25</ele><time>2026-04-18T17:21:19Z</time></trkpt><trkpt lat="44.32311399420132" lon="10.81202550793038"><ele>712.0</ele><time>2026-04-18T17:21:20Z</time></trkpt><trkpt lat="44.323137953881314" lon="10.812165580970015"><ele>713.2</ele><time>2026-04-18T17:21:21Z</time></trkpt><trkpt lat="44.323135778744366" lon="10.812265575710784"><ele>714.4000000000001</ele><time>2026-04-18T17:21:22Z</time></trkpt><trkpt lat="44.323053379901" lon="10.812389533110244"><ele>715.5999999999999</ele><time>2026-04-18T17:21:24Z</time></trkpt><trkpt lat="44.32296294133211" lon="10.812407744653129"><ele>716.8</ele><time>2026-04-18T17:21:25Z</time></trkpt><trkpt lat="44.32286123990709" lon="10.812443848529174"><ele>718.0</ele><time>2026-04-18T17:21:26Z</time></trkpt><trkpt lat="44.32276774017551" lon="10.812493228481674"><ele>718.0</ele><time>2026-04-18T17:21:27Z</time></trkpt><trkpt lat="44.32271391928231" lon="10.812558277726483"><ele>718.0</ele><time>2026-04-18T17:21:28Z</time></trkpt><trkpt lat="44.32265627976991" lon="10.812639948280944"><ele>718.0</ele><time>2026-04-18T17:21:30Z</time></trkpt><trkpt lat="44.322604219127065" lon="10.812743209320521"><ele>718.0</ele><time>2026-04-18T17:21:32Z</time></trkpt><trkpt lat="44.32266752367602" lon="10.81284154915129"><ele>718.0</ele><time>2026-04-18T17:21:33Z</time></trkpt><trkpt lat="44.32246788357926" lon="10.812685462467496"><ele>720.25</ele><time>2026-04-18T17:21:34Z</time></trkpt><trkpt lat="44.32238948285645" lon="10.812689549060357"><ele>722.5</ele><time>2026-04-18T17:21:35Z</time></trkpt><trkpt lat="44.322294348104734" lon="10.812685376870153"><ele>724.75</ele><time>2026-04-18T17:21:37Z</time></trkpt><trkpt lat="44.32220083404784" lon="10.81265390655044"><ele>727.0</ele><time>2026-04-18T17:21:39Z</time></trkpt><trkpt lat="44.3220331917904" lon="10.813197532035764"><ele>729.0</ele><time>2026-04-18T17:21:41Z</time></trkpt><trkpt lat="44.32197414823917" lon="10.813230174227751"><ele>731.0</ele><time>2026-04-18T17:21:42Z</time></trkpt><trkpt lat="44.321914757177694" lon="10.813276429478247"><ele>733.0</ele><time>2026-04-18T17:21:43Z</time></trkpt><trkpt lat="44.3218527514621" lon="10.813320450456567"><ele>735.0</ele><time>2026-04-18T17:21:44Z</time></trkpt><trkpt lat="44.32174683881786" lon="10.813420722114966"><ele>737.0</ele><time>2026-04-18T17:21:46Z</time></trkpt><trkpt lat="44.321685437188854" lon="10.813490859448914"><ele>739.0</ele><time>2026-04-18T17:21:47Z</time></trkpt><trkpt lat="44.3216368710382" lon="10.813573282402483"><ele>742.0</ele><time>2026-04-18T17:21:48Z</time></trkpt><trkpt lat="44.3215432643717" lon="10.813671082401244"><ele>745.0</ele><time>2026-04-18T17:21:50Z</time></trkpt><trkpt lat="44.32147749076994" lon="10.813714746076151"><ele>748.0</ele><time>2026-04-18T17:21:51Z</time></trkpt><trkpt lat="44.32139974776471" lon="10.813845552518853"><ele>751.0</ele><time>2026-04-18T17:21:53Z</time></trkpt><trkpt lat="44.3213563680552" lon="10.81398456286866"><ele>754.0</ele><time>2026-04-18T17:21:55Z</time></trkpt><trkpt lat="44.321285647628656" lon="10.81404607898438"><ele>755.2</ele><time>2026-04-18T17:22:06Z</time></trkpt><trkpt lat="44.32123625797114" lon="10.814106844810167"><ele>756.4000000000001</ele><time>2026-04-18T17:22:07Z</time></trkpt><trkpt lat="44.321160158333484" lon="10.81418263541501"><ele>757.6</ele><time>2026-04-18T17:22:08Z</time></trkpt><trkpt lat="44.32110899848624" lon="10.814322613249866"><ele>758.8</ele><time>2026-04-18T17:22:10Z</time></trkpt><trkpt lat="44.321076939152604" lon="10.81442472818293"><ele>760.0</ele><time>2026-04-18T17:22:11Z</time></trkpt><trkpt lat="44.32099319542157" lon="10.814511313240475"><ele>761.5</ele><time>2026-04-18T17:22:13Z</time></trkpt><trkpt lat="44.32088279158904" lon="10.814514604259513"><ele>763.0</ele><time>2026-04-18T17:22:15Z</time></trkpt><trkpt lat="44.32082755450701" lon="10.814561045860266"><ele>764.5</ele><time>2026-04-18T17:22:16.999Z</time></trkpt><trkpt lat="44.32077836123071" lon="10.814619757429405"><ele>766.0</ele><time>2026-04-18T17:22:18.999Z</time></trkpt><trkpt lat="44.3206887054155" lon="10.814654311154488"><ele>767.4999999999999</ele><time>2026-04-18T17:22:20.999Z</time></trkpt><trkpt lat="44.32061505601016" lon="10.8146514395966"><ele>769.0</ele><time>2026-04-18T17:22:23.999Z</time></trkpt><trkpt lat="44.32054679061479" lon="10.814622207357743"><ele>771.4999999999999</ele><time>2026-04-18T17:22:25.999Z</time></trkpt><trkpt lat="44.320463784380685" lon="10.814578902870815"><ele>774.0</ele><time>2026-04-18T17:22:28.999Z</time></trkpt><trkpt lat="44.32038422111271" lon="10.814543113022394"><ele>776.5</ele><time>2026-04-18T17:22:30.999Z</time></trkpt><trkpt lat="44.32029811225421" lon="10.814514729846776"><ele>779.0</ele><time>2026-04-18T17:22:32.999Z</time></trkpt><trkpt lat="44.32022197814981" lon="10.814490500450752"><ele>781.4999999999999</ele><time>2026-04-18T17:22:34.999Z</time></trkpt><trkpt lat="44.32017174209104" lon="10.814428824766622"><ele>784.0</ele><time>2026-04-18T17:22:36.999Z</time></trkpt><trkpt lat="44.320167186083495" lon="10.814333449321609"><ele>782.1666666666666</ele><time>2026-04-18T17:22:38.999Z</time></trkpt><trkpt lat="44.320176930019095" lon="10.814232751608376"><ele>780.3333333333333</ele><time>2026-04-18T17:22:41.999Z</time></trkpt><trkpt lat="44.32016293357419" lon="10.814127337418947"><ele>778.5</ele><time>2026-04-18T17:22:43.999Z</time></trkpt><trkpt lat="44.32011890612634" lon="10.814061667353158"><ele>776.6666666666667</ele><time>2026-04-18T17:22:45.999Z</time></trkpt><trkpt lat="44.320031812808516" lon="10.814046240497671"><ele>774.8333333333334</ele><time>2026-04-18T17:22:47.999Z</time></trkpt><trkpt lat="44.31991140195428" lon="10.814097701599042"><ele>773.0</ele><time>2026-04-18T17:22:49.999Z</time></trkpt><trkpt lat="44.31980297371961" lon="10.814194768814497"><ele>773.0</ele><time>2026-04-18T17:22:51.999Z</time></trkpt><trkpt lat="44.31974199974415" lon="10.81426109534859"><ele>773.0</ele><time>2026-04-18T17:22:52.999Z</time></trkpt><trkpt lat="44.31968318599557" lon="10.814318060923496"><ele>773.0</ele><time>2026-04-18T17:22:53.999Z</time></trkpt><trkpt lat="44.31962347107778" lon="10.814380845604662"><ele>773.0</ele><time>2026-04-18T17:22:54.999Z</time></trkpt><trkpt lat="44.319553896637984" lon="10.814427449556307"><ele>773.0</ele><time>2026-04-18T17:22:55.999Z</time></trkpt><trkpt lat="44.31947950594968" lon="10.814403024329682"><ele>773.0</ele><time>2026-04-18T17:22:57.999Z</time></trkpt><trkpt lat="44.31943913372681" lon="10.81432809609818"><ele>773.0</ele><time>2026-04-18T17:22:58.999Z</time></trkpt><trkpt lat="44.31943037520482" lon="10.814170801913912"><ele>775.0000000000001</ele><time>2026-04-18T17:23:00.999Z</time></trkpt><trkpt lat="44.31939166094671" lon="10.814085502774942"><ele>777.0</ele><time>2026-04-18T17:23:02.999Z</time></trkpt><trkpt lat="44.319366568827924" lon="10.813999399035387"><ele>779.0</ele><time>2026-04-18T17:23:06.999Z</time></trkpt><trkpt lat="44.31943417892716" lon="10.81399338748172"><ele>781.0</ele><time>2026-04-18T17:23:11.999Z</time></trkpt><trkpt lat="44.31945725199674" lon="10.814109414644062"><ele>783.0000000000001</ele><time>2026-04-18T17:23:15Z</time></trkpt><trkpt lat="44.319453099131756" lon="10.814274806728397"><ele>785.0</ele><time>2026-04-18T17:23:17Z</time></trkpt><trkpt lat="44.31947181790979" lon="10.814405703415908"><ele>790.75</ele><time>2026-04-18T17:23:19Z</time></trkpt><trkpt lat="44.319441564808926" lon="10.814517294172465"><ele>796.5</ele><time>2026-04-18T17:23:22Z</time></trkpt><trkpt lat="44.31945006306963" lon="10.814621935277856"><ele>802.25</ele><time>2026-04-18T17:23:24Z</time></trkpt><trkpt lat="44.3192437260557" lon="10.814701935835608"><ele>808.0</ele><time>2026-04-18T17:23:25Z</time></trkpt><trkpt lat="44.31922173297694" lon="10.814813573464829"><ele>808.0</ele><time>2026-04-18T17:23:31Z</time></trkpt><trkpt lat="44.31919734438515" lon="10.814895377925954"><ele>808.0</ele><time>2026-04-18T17:23:34Z</time></trkpt><trkpt lat="44.31919866681871" lon="10.814985740426119"><ele>808.0</ele><time>2026-04-18T17:23:35Z</time></trkpt><trkpt lat="44.319202722676096" lon="10.81508374946331"><ele>808.0</ele><time>2026-04-18T17:23:37Z</time></trkpt><trkpt lat="44.319312484699324" lon="10.815229000846102"><ele>808.0</ele><time>2026-04-18T17:23:38Z</time></trkpt><trkpt lat="44.31952303983188" lon="10.815248484130015"><ele>807.3333333333333</ele><time>2026-04-18T17:23:39Z</time></trkpt><trkpt lat="44.31970180304261" lon="10.815600603563494"><ele>806.6666666666667</ele><time>2026-04-18T17:23:43Z</time></trkpt><trkpt lat="44.31976654368388" lon="10.815696368072414"><ele>806.0</ele><time>2026-04-18T17:23:44Z</time></trkpt><trkpt lat="44.31987126273287" lon="10.815856132751737"><ele>806.0000000000001</ele><time>2026-04-18T17:23:45Z</time></trkpt><trkpt lat="44.31994298644016" lon="10.815929259645705"><ele>806.0</ele><time>2026-04-18T17:23:46Z</time></trkpt><trkpt lat="44.32001131144193" lon="10.816017781752551"><ele>806.0</ele><time>2026-04-18T17:23:48Z</time></trkpt><trkpt lat="44.32006772456676" lon="10.816111357812362"><ele>806.0</ele><time>2026-04-18T17:23:50Z</time></trkpt><trkpt lat="44.320136375809476" lon="10.816169475591094"><ele>806.0000000000001</ele><time>2026-04-18T17:23:52Z</time></trkpt><trkpt lat="44.3201510966622" lon="10.816277249266555"><ele>806.0</ele><time>2026-04-18T17:23:55Z</time></trkpt><trkpt lat="44.32016363468421" lon="10.816394452018896"><ele>811.1666666666667</ele><time>2026-04-18T17:24:00Z</time></trkpt><trkpt lat="44.320218030116166" lon="10.816497691375195"><ele>816.3333333333334</ele><time>2026-04-18T17:24:38.999Z</time></trkpt><trkpt lat="44.32027180866673" lon="10.816557955057194"><ele>821.5</ele><time>2026-04-18T17:25:03.999Z</time></trkpt><trkpt lat="44.32032525407178" lon="10.816613375192958"><ele>826.6666666666667</ele><time>2026-04-18T17:25:05.999Z</time></trkpt><trkpt lat="44.32038566321472" lon="10.816700429714444"><ele>831.8333333333334</ele><time>2026-04-18T17:25:07.999Z</time></trkpt><trkpt lat="44.32045440519443" lon="10.816797622233466"><ele>837.0</ele><time>2026-04-18T17:25:09.999Z</time></trkpt><trkpt lat="44.320523717355556" lon="10.816895633574505"><ele>838.75</ele><time>2026-04-18T17:25:13.999Z</time></trkpt><trkpt lat="44.32059778711609" lon="10.816941511898442"><ele>840.5</ele><time>2026-04-18T17:25:15.999Z</time></trkpt><trkpt lat="44.32071667907117" lon="10.817045721148546"><ele>842.25</ele><time>2026-04-18T17:25:18Z</time></trkpt><trkpt lat="44.320798640723126" lon="10.817086073016778"><ele>844.0</ele><time>2026-04-18T17:25:19Z</time></trkpt><trkpt lat="44.32093715544409" lon="10.81712699407011"><ele>844.0</ele><time>2026-04-18T17:25:21Z</time></trkpt><trkpt lat="44.3210333320441" lon="10.817183011066803"><ele>844.0</ele><time>2026-04-18T17:25:22Z</time></trkpt><trkpt lat="44.3211483644953" lon="10.817248291509047"><ele>844.0</ele><time>2026-04-18T17:25:23Z</time></trkpt><trkpt lat="44.32122404729593" lon="10.817338811327637"><ele>844.0</ele><time>2026-04-18T17:25:25Z</time></trkpt><trkpt lat="44.321260745407834" lon="10.817465654223165"><ele>844.0</ele><time>2026-04-18T17:25:27Z</time></trkpt><trkpt lat="44.32126897408239" lon="10.817569302270874"><ele>843.9999999999999</ele><time>2026-04-18T17:25:30Z</time></trkpt><trkpt lat="44.32118999580814" lon="10.817603391478269"><ele>844.0</ele><time>2026-04-18T17:25:31Z</time></trkpt><trkpt lat="44.32110957295475" lon="10.817670355946019"><ele>844.0</ele><time>2026-04-18T17:25:35Z</time></trkpt><trkpt lat="44.32109616680094" lon="10.817768829245919"><ele>844.0</ele><time>2026-04-18T17:25:37Z</time></trkpt><trkpt lat="44.321003487871025" lon="10.817764326090339"><ele>843.9999999999999</ele><time>2026-04-18T17:25:38Z</time></trkpt><trkpt lat="44.32091688749744" lon="10.817765896846097"><ele>844.0</ele><time>2026-04-18T17:25:40Z</time></trkpt><trkpt lat="44.320891457232136" lon="10.817892797624719"><ele>844.6</ele><time>2026-04-18T17:25:42Z</time></trkpt><trkpt lat="44.32092779658453" lon="10.818036662136949"><ele>845.2</ele><time>2026-04-18T17:25:44Z</time></trkpt><trkpt lat="44.32096278784213" lon="10.818190161718931"><ele>845.8000000000001</ele><time>2026-04-18T17:25:46Z</time></trkpt><trkpt lat="44.32098480373996" lon="10.818274935983773"><ele>846.4000000000001</ele><time>2026-04-18T17:25:47Z</time></trkpt><trkpt lat="44.32100785451192" lon="10.818366774526773"><ele>847.0</ele><time>2026-04-18T17:25:49Z</time></trkpt><trkpt lat="44.32107106695781" lon="10.818608635111309"><ele>846.9999999999999</ele><time>2026-04-18T17:25:53Z</time></trkpt><trkpt lat="44.32105036131459" lon="10.818731780001755"><ele>847.0</ele><time>2026-04-18T17:25:55Z</time></trkpt><trkpt lat="44.321003621828446" lon="10.818808591396698"><ele>847.0</ele><time>2026-04-18T17:25:58Z</time></trkpt><trkpt lat="44.320921734614814" lon="10.818797004261928"><ele>847.0</ele><time>2026-04-18T17:26:01Z</time></trkpt><trkpt lat="44.32088185796017" lon="10.818720256294654"><ele>846.9999999999999</ele><time>2026-04-18T17:26:03Z</time></trkpt><trkpt lat="44.320803873818164" lon="10.818640166633287"><ele>847.0</ele><time>2026-04-18T17:26:05Z</time></trkpt><trkpt lat="44.32071992206737" lon="10.818593992044613"><ele>846.9999999999999</ele><time>2026-04-18T17:26:08Z</time></trkpt><trkpt lat="44.32063939514168" lon="10.818525854441672"><ele>847.0</ele><time>2026-04-18T17:26:11.999Z</time></trkpt><trkpt lat="44.32060703569594" lon="10.818439909178597"><ele>847.0</ele><time>2026-04-18T17:26:13.999Z</time></trkpt><trkpt lat="44.32055770724575" lon="10.818333424173925"><ele>847.0</ele><time>2026-04-18T17:26:16.999Z</time></trkpt><trkpt lat="44.3205227995538" lon="10.818240090204009"><ele>846.9999999999999</ele><time>2026-04-18T17:26:18.999Z</time></trkpt><trkpt lat="44.32045940836429" lon="10.818136434165204"><ele>847.0</ele><time>2026-04-18T17:26:20.999Z</time></trkpt><trkpt lat="44.32038232887959" lon="10.81808783614855"><ele>852.3333333333333</ele><time>2026-04-18T17:26:22.999Z</time></trkpt><trkpt lat="44.320351227634056" lon="10.818010120413264"><ele>857.6666666666666</ele><time>2026-04-18T17:26:24.999Z</time></trkpt><trkpt lat="44.32030458673717" lon="10.817924870283134"><ele>863.0</ele><time>2026-04-18T17:26:27.999Z</time></trkpt><trkpt lat="44.320257369967344" lon="10.817851832921088"><ele>868.3333333333333</ele><time>2026-04-18T17:26:29.999Z</time></trkpt><trkpt lat="44.32015348060676" lon="10.817832909714314"><ele>873.6666666666666</ele><time>2026-04-18T17:26:32.999Z</time></trkpt><trkpt lat="44.32006025468071" lon="10.817830970321934"><ele>879.0</ele><time>2026-04-18T17:26:34.999Z</time></trkpt><trkpt lat="44.31999726354593" lon="10.817802429737062"><ele>879.0</ele><time>2026-04-18T17:26:36.999Z</time></trkpt><trkpt lat="44.3199342858857" lon="10.81780315488738"><ele>879.0</ele><time>2026-04-18T17:26:40.999Z</time></trkpt><trkpt lat="44.31989403804363" lon="10.817729414609735"><ele>879.0</ele><time>2026-04-18T17:28:49.999Z</time></trkpt><trkpt lat="44.31981440879804" lon="10.81772498894752"><ele>879.0</ele><time>2026-04-18T17:28:58.999Z</time></trkpt><trkpt lat="44.319705225377945" lon="10.81769917063396"><ele>879.0</ele><time>2026-04-18T17:29:04.999Z</time></trkpt><trkpt lat="44.3196426133753" lon="10.817673386368355"><ele>879.0</ele><time>2026-04-18T17:29:06.999Z</time></trkpt><trkpt lat="44.31958183786533" lon="10.817625151339856"><ele>879.2857142857143</ele><time>2026-04-18T17:29:20.999Z</time></trkpt><trkpt lat="44.319519643713946" lon="10.817590013796961"><ele>879.5714285714287</ele><time>2026-04-18T17:29:23.999Z</time></trkpt><trkpt lat="44.31945459257397" lon="10.817586646213265"><ele>879.8571428571429</ele><time>2026-04-18T17:29:26.998Z</time></trkpt><trkpt lat="44.31937056172517" lon="10.817544330466344"><ele>880.1428571428571</ele><time>2026-04-18T17:29:30Z</time></trkpt><trkpt lat="44.31928282748582" lon="10.817532952258398"><ele>880.4285714285714</ele><time>2026-04-18T17:29:32Z</time></trkpt><trkpt lat="44.319213927553406" lon="10.81752210268592"><ele>880.7142857142857</ele><time>2026-04-18T17:29:34Z</time></trkpt><trkpt lat="44.3191486820618" lon="10.817521896856311"><ele>881.0</ele><time>2026-04-18T17:29:36Z</time></trkpt><trkpt lat="44.319074393736955" lon="10.817494724512748"><ele>881.0000000000001</ele><time>2026-04-18T17:29:38Z</time></trkpt><trkpt lat="44.31900102539029" lon="10.817520750540616"><ele>881.0</ele><time>2026-04-18T17:29:41Z</time></trkpt><trkpt lat="44.31893764621523" lon="10.817520976221328"><ele>881.0</ele><time>2026-04-18T17:29:42Z</time></trkpt><trkpt lat="44.318865383116226" lon="10.81750971422519"><ele>881.0</ele><time>2026-04-18T17:29:44Z</time></trkpt><trkpt lat="44.31878511021458" lon="10.81752515038574"><ele>881.0000000000001</ele><time>2026-04-18T17:29:46Z</time></trkpt><trkpt lat="44.31869558295539" lon="10.817538873261281"><ele>881.0</ele><time>2026-04-18T17:29:48Z</time></trkpt><trkpt lat="44.31862548415102" lon="10.817515929287113"><ele>880.6666666666667</ele><time>2026-04-18T17:29:50Z</time></trkpt><trkpt lat="44.318545061219815" lon="10.81744589653353"><ele>880.3333333333334</ele><time>2026-04-18T17:29:54Z</time></trkpt><trkpt lat="44.31845520333073" lon="10.817407921268476"><ele>880.0</ele><time>2026-04-18T17:29:56Z</time></trkpt><trkpt lat="44.318383924406895" lon="10.817361902159043"><ele>879.6666666666667</ele><time>2026-04-18T17:29:58Z</time></trkpt><trkpt lat="44.31832951384115" lon="10.81730348096195"><ele>879.3333333333334</ele><time>2026-04-18T17:30:00Z</time></trkpt><trkpt lat="44.318260118848976" lon="10.817305269713334"><ele>879.0</ele><time>2026-04-18T17:30:03Z</time></trkpt><trkpt lat="44.31817692502342" lon="10.817225137551643"><ele>879.1666666666666</ele><time>2026-04-18T17:30:07Z</time></trkpt><trkpt lat="44.31803823337636" lon="10.817161157431888"><ele>879.3333333333333</ele><time>2026-04-18T17:30:09Z</time></trkpt><trkpt lat="44.31798309953138" lon="10.817113568793637"><ele>879.5</ele><time>2026-04-18T17:30:10Z</time></trkpt><trkpt lat="44.31793347864137" lon="10.817054962219826"><ele>879.6666666666666</ele><time>2026-04-18T17:30:11Z</time></trkpt><trkpt lat="44.317836529658344" lon="10.816995069410803"><ele>879.8333333333333</ele><time>2026-04-18T17:30:13Z</time></trkpt><trkpt lat="44.31777302648892" lon="10.816984693728196"><ele>880.0</ele><time>2026-04-18T17:30:14Z</time></trkpt><trkpt lat="44.31770221997678" lon="10.816970283508764"><ele>879.9999999999999</ele><time>2026-04-18T17:30:16Z</time></trkpt><trkpt lat="44.31763034664528" lon="10.816946747343847"><ele>880.0</ele><time>2026-04-18T17:30:18Z</time></trkpt><trkpt lat="44.31754249129067" lon="10.81690879136403"><ele>880.0</ele><time>2026-04-18T17:30:21Z</time></trkpt><trkpt lat="44.31747443880885" lon="10.816898096403792"><ele>880.0</ele><time>2026-04-18T17:30:22.999Z</time></trkpt><trkpt lat="44.3173935059274" lon="10.816883692419294"><ele>879.9999999999999</ele><time>2026-04-18T17:30:25.999Z</time></trkpt><trkpt lat="44.31732245258285" lon="10.816849652212625"><ele>880.0</ele><time>2026-04-18T17:30:27.999Z</time></trkpt><trkpt lat="44.317243924341966" lon="10.816832529075844"><ele>879.1666666666666</ele><time>2026-04-18T17:30:29.999Z</time></trkpt><trkpt lat="44.31717770279072" lon="10.81680826535565"><ele>878.3333333333333</ele><time>2026-04-18T17:30:31.999Z</time></trkpt><trkpt lat="44.317144244445025" lon="10.816883141672061"><ele>877.5</ele><time>2026-04-18T17:30:41.999Z</time></trkpt><trkpt lat="44.317157547685746" lon="10.816986743654624"><ele>876.6666666666667</ele><time>2026-04-18T17:30:43.999Z</time></trkpt><trkpt lat="44.31709666794853" lon="10.817050505449126"><ele>875.8333333333334</ele><time>2026-04-18T17:30:48.999Z</time></trkpt><trkpt lat="44.31706241290533" lon="10.817165720914824"><ele>875.0</ele><time>2026-04-18T17:30:51.999Z</time></trkpt><trkpt lat="44.317055237411004" lon="10.817317113711807"><ele>874.5000000000001</ele><time>2026-04-18T17:30:53.999Z</time></trkpt><trkpt lat="44.317066346690446" lon="10.817431852128903"><ele>874.0</ele><time>2026-04-18T17:30:55.999Z</time></trkpt><trkpt lat="44.31699614703557" lon="10.81749460036064"><ele>873.5</ele><time>2026-04-18T17:30:59.999Z</time></trkpt><trkpt lat="44.31692708020017" lon="10.817515722266652"><ele>873.0</ele><time>2026-04-18T17:31:01.999Z</time></trkpt><trkpt lat="44.316861405797226" lon="10.817609920361392"><ele>872.5000000000001</ele><time>2026-04-18T17:31:03.999Z</time></trkpt><trkpt lat="44.31679126692556" lon="10.81765601109188"><ele>872.0</ele><time>2026-04-18T17:31:05.999Z</time></trkpt><trkpt lat="44.31667042140536" lon="10.81760941290162"><ele>872.0000000000001</ele><time>2026-04-18T17:31:07.999Z</time></trkpt><trkpt lat="44.31659434702998" lon="10.817597645803371"><ele>872.0</ele><time>2026-04-18T17:31:08.999Z</time></trkpt><trkpt lat="44.31649838440791" lon="10.817637868913334"><ele>872.0</ele><time>2026-04-18T17:31:10.999Z</time></trkpt><trkpt lat="44.31643462320654" lon="10.817679713049111"><ele>872.0</ele><time>2026-04-18T17:31:12.999Z</time></trkpt><trkpt lat="44.31640110257008" lon="10.817775994010677"><ele>872.0000000000001</ele><time>2026-04-18T17:31:15.999Z</time></trkpt><trkpt lat="44.316333436727845" lon="10.817846448619132"><ele>872.0</ele><time>2026-04-18T17:31:17.999Z</time></trkpt><trkpt lat="44.31627341286152" lon="10.817924428569347"><ele>870.3333333333334</ele><time>2026-04-18T17:31:19.999Z</time></trkpt><trkpt lat="44.316182255967924" lon="10.817903501010774"><ele>868.6666666666667</ele><time>2026-04-18T17:31:22.999Z</time></trkpt><trkpt lat="44.3161086020164" lon="10.817896896123711"><ele>867.0</ele><time>2026-04-18T17:31:23.999Z</time></trkpt><trkpt lat="44.31602304877344" lon="10.81787271184008"><ele>865.3333333333333</ele><time>2026-04-18T17:31:24.999Z</time></trkpt><trkpt lat="44.31594621725616" lon="10.81785727969834"><ele>863.6666666666666</ele><time>2026-04-18T17:31:25.999Z</time></trkpt><trkpt lat="44.315872171216924" lon="10.817824486148737"><ele>862.0</ele><time>2026-04-18T17:31:26.999Z</time></trkpt><trkpt lat="44.31577599514614" lon="10.817881161384959"><ele>862.0</ele><time>2026-04-18T17:31:28.998Z</time></trkpt><trkpt lat="44.31571930462092" lon="10.817925995077994"><ele>862.0</ele><time>2026-04-18T17:31:29.998Z</time></trkpt><trkpt lat="44.31567364353703" lon="10.818004158872844"><ele>862.0</ele><time>2026-04-18T17:31:30.998Z</time></trkpt><trkpt lat="44.31562176944045" lon="10.8181795343614"><ele>862.0</ele><time>2026-04-18T17:31:32.998Z</time></trkpt><trkpt lat="44.3155828100708" lon="10.818307687768334"><ele>862.0</ele><time>2026-04-18T17:31:34Z</time></trkpt><trkpt lat="44.31556137958873" lon="10.81841620781321"><ele>862.1666666666666</ele><time>2026-04-18T17:31:36Z</time></trkpt><trkpt lat="44.31553045063004" lon="10.818497188610433"><ele>862.3333333333333</ele><time>2026-04-18T17:31:37Z</time></trkpt><trkpt lat="44.31544363176405" lon="10.81852372869665"><ele>862.5</ele><time>2026-04-18T17:31:39Z</time></trkpt><trkpt lat="44.31534163231014" lon="10.818462893150146"><ele>862.6666666666667</ele><time>2026-04-18T17:31:41Z</time></trkpt><trkpt lat="44.31529731174908" lon="10.818384117025458"><ele>862.8333333333334</ele><time>2026-04-18T17:31:42Z</time></trkpt><trkpt lat="44.315222660582414" lon="10.818288454403953"><ele>863.0</ele><time>2026-04-18T17:31:44Z</time></trkpt><trkpt lat="44.31518291808888" lon="10.818204181838066"><ele>863.0</ele><time>2026-04-18T17:31:45Z</time></trkpt><trkpt lat="44.315135229170124" lon="10.818044921953039"><ele>863.0</ele><time>2026-04-18T17:31:47Z</time></trkpt><trkpt lat="44.31509199441445" lon="10.817952657633489"><ele>863.0</ele><time>2026-04-18T17:31:48Z</time></trkpt><trkpt lat="44.31497136584449" lon="10.817818680586958"><ele>863.0</ele><time>2026-04-18T17:31:50Z</time></trkpt><trkpt lat="44.31491309217653" lon="10.817751167567891"><ele>863.0</ele><time>2026-04-18T17:31:52Z</time></trkpt><trkpt lat="44.31501776728128" lon="10.817852199144047"><ele>863.0</ele><time>2026-04-18T17:31:57Z</time></trkpt><trkpt lat="44.31506773403431" lon="10.817919763898557"><ele>863.0</ele><time>2026-04-18T17:31:58Z</time></trkpt><trkpt lat="44.31512999428632" lon="10.817999046646124"><ele>863.0</ele><time>2026-04-18T17:31:59Z</time></trkpt><trkpt lat="44.315182686131344" lon="10.81812533646507"><ele>863.0</ele><time>2026-04-18T17:32:01Z</time></trkpt><trkpt lat="44.31524012525094" lon="10.818243909131573"><ele>863.0</ele><time>2026-04-18T17:32:03Z</time></trkpt><trkpt lat="44.31529249204877" lon="10.818359115628411"><ele>863.0000000000001</ele><time>2026-04-18T17:32:05Z</time></trkpt><trkpt lat="44.31536099155139" lon="10.818407397126473"><ele>863.0</ele><time>2026-04-18T17:32:07Z</time></trkpt><trkpt lat="44.31539982549698" lon="10.818479667039234"><ele>863.0</ele><time>2026-04-18T17:32:09Z</time></trkpt><trkpt lat="44.315442053181314" lon="10.8185641537639"><ele>863.0</ele><time>2026-04-18T17:32:11Z</time></trkpt><trkpt lat="44.315487219337896" lon="10.818657375436256"><ele>863.0</ele><time>2026-04-18T17:32:13Z</time></trkpt><trkpt lat="44.31554436131227" lon="10.818714235308725"><ele>863.0000000000001</ele><time>2026-04-18T17:32:15Z</time></trkpt><trkpt lat="44.31561867041679" lon="10.818738511471816"><ele>863.0</ele><time>2026-04-18T17:32:18Z</time></trkpt><trkpt lat="44.315657754543295" lon="10.818829029268581"><ele>861.3333333333334</ele><time>2026-04-18T17:32:20Z</time></trkpt><trkpt lat="44.31571239332744" lon="10.818889650905207"><ele>859.6666666666667</ele><time>2026-04-18T17:32:22Z</time></trkpt><trkpt lat="44.315767428990036" lon="10.81893806740536"><ele>858.0</ele><time>2026-04-18T17:32:24Z</time></trkpt><trkpt lat="44.31584238392853" lon="10.819008297161279"><ele>856.3333333333333</ele><time>2026-04-18T17:32:26Z</time></trkpt><trkpt lat="44.31585603484445" lon="10.819124749675076"><ele>854.6666666666666</ele><time>2026-04-18T17:32:27.999Z</time></trkpt><trkpt lat="44.31587151741878" lon="10.819228800209006"><ele>853.0</ele><time>2026-04-18T17:32:29.999Z</time></trkpt><trkpt lat="44.31589101576531" lon="10.819340744593338"><ele>850.0</ele><time>2026-04-18T17:32:33.999Z</time></trkpt><trkpt lat="44.31591956555528" lon="10.819429082179916"><ele>847.0</ele><time>2026-04-18T17:32:38.999Z</time></trkpt><trkpt lat="44.31597174816794" lon="10.819491243760941"><ele>844.0</ele><time>2026-04-18T17:32:44.999Z</time></trkpt><trkpt lat="44.31606887756584" lon="10.819485763585682"><ele>841.0</ele><time>2026-04-18T17:32:47.999Z</time></trkpt><trkpt lat="44.31613425545911" lon="10.819453890747917"><ele>838.0</ele><time>2026-04-18T17:32:49.999Z</time></trkpt><trkpt lat="44.316176650552876" lon="10.81951994386527"><ele>835.0</ele><time>2026-04-18T17:32:52.999Z</time></trkpt><trkpt lat="44.31616424394311" lon="10.819621318498093"><ele>832.0</ele><time>2026-04-18T17:32:56.999Z</time></trkpt><trkpt lat="44.31609961906102" lon="10.819696544119802"><ele>831.9999999999999</ele><time>2026-04-18T17:32:59.999Z</time></trkpt><trkpt lat="44.316025470764245" lon="10.81975567659915"><ele>832.0</ele><time>2026-04-18T17:33:03.999Z</time></trkpt><trkpt lat="44.315950409267636" lon="10.819775412568534"><ele>832.0</ele><time>2026-04-18T17:33:08.999Z</time></trkpt><trkpt lat="44.31588311231185" lon="10.819792987157207"><ele>832.0</ele><time>2026-04-18T17:33:16.999Z</time></trkpt><trkpt lat="44.315768632097566" lon="10.819766392147548"><ele>831.9999999999999</ele><time>2026-04-18T17:33:18.999Z</time></trkpt><trkpt lat="44.31568640642674" lon="10.819727337491265"><ele>832.0</ele><time>2026-04-18T17:33:19.999Z</time></trkpt><trkpt lat="44.31560317273766" lon="10.819680018984903"><ele>829.5</ele><time>2026-04-18T17:33:20.999Z</time></trkpt><trkpt lat="44.315507331515654" lon="10.819607621104574"><ele>827.0</ele><time>2026-04-18T17:33:21.999Z</time></trkpt><trkpt lat="44.31541948504171" lon="10.81951005682449"><ele>824.5</ele><time>2026-04-18T17:33:22.999Z</time></trkpt><trkpt lat="44.31532858294446" lon="10.819406860736704"><ele>822.0</ele><time>2026-04-18T17:33:23.999Z</time></trkpt><trkpt lat="44.315217965134956" lon="10.819268643184076"><ele>827.5</ele><time>2026-04-18T17:33:24.999Z</time></trkpt><trkpt lat="44.31509687435091" lon="10.8191152711847"><ele>833.0</ele><time>2026-04-18T17:33:25.999Z</time></trkpt><trkpt lat="44.314970204693125" lon="10.818999746803303"><ele>838.5</ele><time>2026-04-18T17:33:26.999Z</time></trkpt><trkpt lat="44.31489328571418" lon="10.81890359944533"><ele>844.0</ele><time>2026-04-18T17:33:27.999Z</time></trkpt><trkpt lat="44.31483924073244" lon="10.818841926048176"><ele>844.0</ele><time>2026-04-18T17:33:28.999Z</time></trkpt><trkpt lat="44.31474870379175" lon="10.818727494305561"><ele>844.0</ele><time>2026-04-18T17:33:30.999Z</time></trkpt><trkpt lat="44.314701352283436" lon="10.818638663681325"><ele>844.0</ele><time>2026-04-18T17:33:31.999Z</time></trkpt><trkpt lat="44.314625706637784" lon="10.818554239791814"><ele>844.0</ele><time>2026-04-18T17:33:32.998Z</time></trkpt><trkpt lat="44.31456010558482" lon="10.818466479389004"><ele>844.0</ele><time>2026-04-18T17:33:33.998Z</time></trkpt><trkpt lat="44.314489779611705" lon="10.818395593673696"><ele>844.1666666666666</ele><time>2026-04-18T17:33:34.998Z</time></trkpt><trkpt lat="44.31442172637082" lon="10.81834435689806"><ele>844.3333333333333</ele><time>2026-04-18T17:33:35.998Z</time></trkpt><trkpt lat="44.31435088639073" lon="10.81827777694019"><ele>844.5</ele><time>2026-04-18T17:33:36.998Z</time></trkpt><trkpt lat="44.31427800066717" lon="10.818193724323406"><ele>844.6666666666667</ele><time>2026-04-18T17:33:37.998Z</time></trkpt><trkpt lat="44.314211049543566" lon="10.81810301500756"><ele>844.8333333333334</ele><time>2026-04-18T17:33:38.998Z</time></trkpt><trkpt lat="44.31415645316649" lon="10.817998523772085"><ele>845.0</ele><time>2026-04-18T17:33:40Z</time></trkpt><trkpt lat="44.314108130846456" lon="10.81790471516456"><ele>845.0</ele><time>2026-04-18T17:33:41Z</time></trkpt><trkpt lat="44.314058563322824" lon="10.81778776825636"><ele>845.0</ele><time>2026-04-18T17:33:42Z</time></trkpt><trkpt lat="44.31402627198778" lon="10.817670011362393"><ele>845.0</ele><time>2026-04-18T17:33:43Z</time></trkpt><trkpt lat="44.313990987329014" lon="10.817520616397218"><ele>845.0</ele><time>2026-04-18T17:33:44Z</time></trkpt><trkpt lat="44.3139847659932" lon="10.817344965375561"><ele>845.0</ele><time>2026-04-18T17:33:45Z</time></trkpt><trkpt lat="44.313974914999925" lon="10.817152510043634"><ele>849.0</ele><time>2026-04-18T17:33:46Z</time></trkpt><trkpt lat="44.31399288167371" lon="10.81695704121613"><ele>853.0</ele><time>2026-04-18T17:33:47Z</time></trkpt><trkpt lat="44.31401482121672" lon="10.816767988947241"><ele>857.0</ele><time>2026-04-18T17:33:48Z</time></trkpt><trkpt lat="44.3140282033071" lon="10.81663057957728"><ele>861.0</ele><time>2026-04-18T17:33:49Z</time></trkpt><trkpt lat="44.314036818014486" lon="10.816502960243763"><ele>861.3333333333334</ele><time>2026-04-18T17:33:50Z</time></trkpt><trkpt lat="44.31404530259695" lon="10.816394287985078"><ele>861.6666666666667</ele><time>2026-04-18T17:33:51Z</time></trkpt><trkpt lat="44.3140560084629" lon="10.816286879436301"><ele>862.0</ele><time>2026-04-18T17:33:52Z</time></trkpt><trkpt lat="44.31406451533013" lon="10.816159662415735"><ele>862.3333333333334</ele><time>2026-04-18T17:33:53Z</time></trkpt><trkpt lat="44.3140736302851" lon="10.816054975904663"><ele>862.6666666666667</ele><time>2026-04-18T17:33:54Z</time></trkpt><trkpt lat="44.314079000728" lon="10.815964451030416"><ele>863.0</ele><time>2026-04-18T17:33:55Z</time></trkpt><trkpt lat="44.3140729195375" lon="10.815815998340527"><ele>863.0000000000001</ele><time>2026-04-18T17:33:57Z</time></trkpt><trkpt lat="44.3140396255713" lon="10.815729972354319"><ele>863.0</ele><time>2026-04-18T17:34:01Z</time></trkpt><trkpt lat="44.31410722483355" lon="10.815864315638743"><ele>863.0</ele><time>2026-04-18T17:34:05Z</time></trkpt><trkpt lat="44.314092081746814" lon="10.815963389202784"><ele>863.0</ele><time>2026-04-18T17:34:06Z</time></trkpt><trkpt lat="44.31407425933589" lon="10.816101794947793"><ele>863.0000000000001</ele><time>2026-04-18T17:34:08Z</time></trkpt><trkpt lat="44.314061273796895" lon="10.81620476048896"><ele>863.0</ele><time>2026-04-18T17:34:10Z</time></trkpt><trkpt lat="44.31405067142164" lon="10.816296524722844"><ele>863.0000000000001</ele><time>2026-04-18T17:34:12Z</time></trkpt><trkpt lat="44.31403704878599" lon="10.816385620659085"><ele>863.0</ele><time>2026-04-18T17:34:14Z</time></trkpt><trkpt lat="44.314024969292355" lon="10.816528054628046"><ele>863.0</ele><time>2026-04-18T17:34:17Z</time></trkpt><trkpt lat="44.314021846169176" lon="10.816622734121463"><ele>863.0</ele><time>2026-04-18T17:34:18Z</time></trkpt><trkpt lat="44.314011987129085" lon="10.816724975415916"><ele>863.0000000000001</ele><time>2026-04-18T17:34:19Z</time></trkpt><trkpt lat="44.31399525936295" lon="10.816878120515709"><ele>863.0</ele><time>2026-04-18T17:34:20Z</time></trkpt><trkpt lat="44.31396669980397" lon="10.817036164287055"><ele>862.5999999999999</ele><time>2026-04-18T17:34:21Z</time></trkpt><trkpt lat="44.31397083286265" lon="10.817200912677645"><ele>862.1999999999999</ele><time>2026-04-18T17:34:22Z</time></trkpt><trkpt lat="44.31395205332201" lon="10.817340013622736"><ele>861.8</ele><time>2026-04-18T17:34:23Z</time></trkpt><trkpt lat="44.31395809380801" lon="10.817480010246344"><ele>861.4</ele><time>2026-04-18T17:34:24Z</time></trkpt><trkpt lat="44.31398050282516" lon="10.81762341426059"><ele>861.0</ele><time>2026-04-18T17:34:25Z</time></trkpt><trkpt lat="44.314016569911594" lon="10.817756252838896"><ele>857.8</ele><time>2026-04-18T17:34:26Z</time></trkpt><trkpt lat="44.31406378898437" lon="10.817879788024966"><ele>854.5999999999999</ele><time>2026-04-18T17:34:27Z</time></trkpt><trkpt lat="44.31412635827176" lon="10.818002721441745"><ele>851.4</ele><time>2026-04-18T17:34:28Z</time></trkpt><trkpt lat="44.31418715335633" lon="10.818118154735734"><ele>848.2</ele><time>2026-04-18T17:34:28.999Z</time></trkpt><trkpt lat="44.31427898859611" lon="10.818240350181702"><ele>845.0</ele><time>2026-04-18T17:34:29.999Z</time></trkpt><trkpt lat="44.314371503622354" lon="10.818336706237224"><ele>845.0</ele><time>2026-04-18T17:34:30.999Z</time></trkpt><trkpt lat="44.31446884391953" lon="10.818430396267068"><ele>845.0</ele><time>2026-04-18T17:34:31.999Z</time></trkpt><trkpt lat="44.314565711883574" lon="10.818526406004965"><ele>845.0</ele><time>2026-04-18T17:34:32.999Z</time></trkpt><trkpt lat="44.314657203727876" lon="10.818639857839285"><ele>845.0</ele><time>2026-04-18T17:34:33.999Z</time></trkpt><trkpt lat="44.314763906070645" lon="10.818779710437282"><ele>844.75</ele><time>2026-04-18T17:34:34.999Z</time></trkpt><trkpt lat="44.31486813378065" lon="10.81888423344475"><ele>844.5</ele><time>2026-04-18T17:34:35.999Z</time></trkpt><trkpt lat="44.314947153082414" lon="10.819005736831008"><ele>844.25</ele><time>2026-04-18T17:34:36.999Z</time></trkpt><trkpt lat="44.315039656180375" lon="10.81911387328191"><ele>844.0</ele><time>2026-04-18T17:34:37.999Z</time></trkpt><trkpt lat="44.31512708126537" lon="10.819216073505482"><ele>839.6</ele><time>2026-04-18T17:34:38.999Z</time></trkpt><trkpt lat="44.31521534811544" lon="10.819325107056146"><ele>835.2</ele><time>2026-04-18T17:34:39.999Z</time></trkpt><trkpt lat="44.31530337599872" lon="10.819422389755225"><ele>830.8000000000001</ele><time>2026-04-18T17:34:40.999Z</time></trkpt><trkpt lat="44.315393384421526" lon="10.819519777866478"><ele>826.4000000000001</ele><time>2026-04-18T17:34:41.999Z</time></trkpt><trkpt lat="44.31547610520993" lon="10.819609280821602"><ele>822.0</ele><time>2026-04-18T17:34:42.999Z</time></trkpt><trkpt lat="44.31557023721388" lon="10.81969911709185"><ele>824.5</ele><time>2026-04-18T17:34:43.999Z</time></trkpt><trkpt lat="44.315682375327356" lon="10.819760963523883"><ele>827.0</ele><time>2026-04-18T17:34:44.999Z</time></trkpt><trkpt lat="44.31580025712501" lon="10.81980997377731"><ele>829.5</ele><time>2026-04-18T17:34:45.999Z</time></trkpt><trkpt lat="44.31591152234322" lon="10.819848768727127"><ele>832.0</ele><time>2026-04-18T17:34:46.999Z</time></trkpt><trkpt lat="44.3160143348609" lon="10.819900429599532"><ele>832.0</ele><time>2026-04-18T17:34:47.999Z</time></trkpt><trkpt lat="44.31610432351574" lon="10.81994569208157"><ele>832.0</ele><time>2026-04-18T17:34:48.999Z</time></trkpt><trkpt lat="44.316202122486814" lon="10.81998709429975"><ele>832.0</ele><time>2026-04-18T17:34:49.999Z</time></trkpt><trkpt lat="44.316293817419314" lon="10.820013339732713"><ele>832.0</ele><time>2026-04-18T17:34:50.999Z</time></trkpt><trkpt lat="44.31637817170756" lon="10.819989166199145"><ele>832.0</ele><time>2026-04-18T17:34:51.999Z</time></trkpt><trkpt lat="44.31644055235702" lon="10.819910553993312"><ele>831.6666666666666</ele><time>2026-04-18T17:34:52.999Z</time></trkpt><trkpt lat="44.31647509800424" lon="10.81979743951864"><ele>831.3333333333333</ele><time>2026-04-18T17:34:53.999Z</time></trkpt><trkpt lat="44.31646886064349" lon="10.81967673359502"><ele>831.0</ele><time>2026-04-18T17:34:54.999Z</time></trkpt><trkpt lat="44.316488422354816" lon="10.819580236110085"><ele>830.6666666666667</ele><time>2026-04-18T17:34:55.999Z</time></trkpt><trkpt lat="44.31649289152905" lon="10.8194902520531"><ele>830.3333333333334</ele><time>2026-04-18T17:34:56.999Z</time></trkpt><trkpt lat="44.3166144269356" lon="10.819423585170226"><ele>830.0</ele><time>2026-04-18T17:34:58.999Z</time></trkpt><trkpt lat="44.31667926514941" lon="10.819463699556986"><ele>830.0</ele><time>2026-04-18T17:34:59.999Z</time></trkpt><trkpt lat="44.31673233015746" lon="10.81957840264681"><ele>830.0</ele><time>2026-04-18T17:35:00.999Z</time></trkpt><trkpt lat="44.31681302978511" lon="10.819667167461155"><ele>830.0</ele><time>2026-04-18T17:35:01.999Z</time></trkpt><trkpt lat="44.3168907674443" lon="10.819781844482543"><ele>830.0</ele><time>2026-04-18T17:35:02.999Z</time></trkpt><trkpt lat="44.3169795093931" lon="10.819881563332912"><ele>830.0</ele><time>2026-04-18T17:35:03.999Z</time></trkpt><trkpt lat="44.317064995412494" lon="10.819949830545921"><ele>830.0</ele><time>2026-04-18T17:35:04.999Z</time></trkpt><trkpt lat="44.31716034267133" lon="10.819997525163442"><ele>830.0</ele><time>2026-04-18T17:35:05.999Z</time></trkpt><trkpt lat="44.31726872068783" lon="10.820008633646681"><ele>830.0</ele><time>2026-04-18T17:35:06.999Z</time></trkpt><trkpt lat="44.3173819621169" lon="10.820032908581874"><ele>830.0</ele><time>2026-04-18T17:35:07.999Z</time></trkpt><trkpt lat="44.3174782881281" lon="10.820113818027982"><ele>830.0</ele><time>2026-04-18T17:35:08.999Z</time></trkpt><trkpt lat="44.31755293373489" lon="10.82021676565082"><ele>825.2</ele><time>2026-04-18T17:35:09.999Z</time></trkpt><trkpt lat="44.31763616378829" lon="10.820314551666161"><ele>820.4</ele><time>2026-04-18T17:35:10.999Z</time></trkpt><trkpt lat="44.31771401093288" lon="10.8203986130245"><ele>815.5999999999999</ele><time>2026-04-18T17:35:11.999Z</time></trkpt><trkpt lat="44.31781675662482" lon="10.820431720047067"><ele>810.8</ele><time>2026-04-18T17:35:12.999Z</time></trkpt><trkpt lat="44.317916671154606" lon="10.820465998559479"><ele>806.0</ele><time>2026-04-18T17:35:13.999Z</time></trkpt><trkpt lat="44.31801443827712" lon="10.820464584464874"><ele>804.8</ele><time>2026-04-18T17:35:14.999Z</time></trkpt><trkpt lat="44.31812329655649" lon="10.820423906294305"><ele>803.5999999999999</ele><time>2026-04-18T17:35:15.999Z</time></trkpt><trkpt lat="44.318207973474856" lon="10.820360053348052"><ele>802.4</ele><time>2026-04-18T17:35:16.999Z</time></trkpt><trkpt lat="44.31830129105595" lon="10.820288163241461"><ele>801.2</ele><time>2026-04-18T17:35:17.999Z</time></trkpt><trkpt lat="44.318399912143214" lon="10.820226757592366"><ele>800.0</ele><time>2026-04-18T17:35:18.999Z</time></trkpt><trkpt lat="44.31849157651397" lon="10.820157331731528"><ele>800.0</ele><time>2026-04-18T17:35:19.999Z</time></trkpt><trkpt lat="44.31857592408187" lon="10.820093420124435"><ele>800.0</ele><time>2026-04-18T17:35:20.999Z</time></trkpt><trkpt lat="44.31865916387649" lon="10.820053344580057"><ele>800.0</ele><time>2026-04-18T17:35:21.999Z</time></trkpt><trkpt lat="44.31874648746303" lon="10.820083008598774"><ele>800.0</ele><time>2026-04-18T17:35:22.999Z</time></trkpt><trkpt lat="44.318835216977256" lon="10.820153525811635"><ele>800.0</ele><time>2026-04-18T17:35:23.999Z</time></trkpt><trkpt lat="44.31892766274457" lon="10.820245509633788"><ele>800.0</ele><time>2026-04-18T17:35:24.999Z</time></trkpt><trkpt lat="44.319039746483135" lon="10.82031549653395"><ele>800.0</ele><time>2026-04-18T17:35:25.999Z</time></trkpt><trkpt lat="44.319144304139414" lon="10.820361354694755"><ele>800.0</ele><time>2026-04-18T17:35:26.999Z</time></trkpt><trkpt lat="44.319242943598184" lon="10.820401590652098"><ele>800.0</ele><time>2026-04-18T17:35:27.999Z</time></trkpt><trkpt lat="44.31934101461748" lon="10.820424430544366"><ele>800.0</ele><time>2026-04-18T17:35:28.999Z</time></trkpt><trkpt lat="44.31943183511154" lon="10.82049487042396"><ele>800.0</ele><time>2026-04-18T17:35:29.999Z</time></trkpt><trkpt lat="44.31950771499822" lon="10.820588007914933"><ele>800.0</ele><time>2026-04-18T17:35:30.999Z</time></trkpt><trkpt lat="44.319597524927055" lon="10.820687477922272"><ele>800.0</ele><time>2026-04-18T17:35:31.999Z</time></trkpt><trkpt lat="44.31968025020288" lon="10.820785033464652"><ele>800.0</ele><time>2026-04-18T17:35:32.999Z</time></trkpt><trkpt lat="44.319768298573265" lon="10.820864223389606"><ele>800.0</ele><time>2026-04-18T17:35:33.999Z</time></trkpt><trkpt lat="44.319880508876196" lon="10.820901677750149"><ele>802.25</ele><time>2026-04-18T17:35:34.998Z</time></trkpt><trkpt lat="44.31999186561505" lon="10.82092208025247"><ele>804.5</ele><time>2026-04-18T17:35:35.998Z</time></trkpt><trkpt lat="44.32012245077883" lon="10.82096557893286"><ele>806.75</ele><time>2026-04-18T17:35:36.998Z</time></trkpt><trkpt lat="44.32024747770618" lon="10.821020635435776"><ele>809.0</ele><time>2026-04-18T17:35:37.998Z</time></trkpt><trkpt lat="44.32036534482895" lon="10.821129167524907"><ele>804.25</ele><time>2026-04-18T17:35:38.998Z</time></trkpt><trkpt lat="44.32049330177848" lon="10.821233699194654"><ele>799.5</ele><time>2026-04-18T17:35:39.998Z</time></trkpt><trkpt lat="44.32062020110985" lon="10.821340614425408"><ele>794.75</ele><time>2026-04-18T17:35:40.998Z</time></trkpt><trkpt lat="44.320725715516005" lon="10.821426997327853"><ele>790.0</ele><time>2026-04-18T17:35:41.998Z</time></trkpt><trkpt lat="44.320845923188685" lon="10.821520670030806"><ele>790.0</ele><time>2026-04-18T17:35:42.998Z</time></trkpt><trkpt lat="44.320961763272564" lon="10.82160030452005"><ele>790.0</ele><time>2026-04-18T17:35:43.998Z</time></trkpt><trkpt lat="44.321095887172866" lon="10.821677502348393"><ele>790.0</ele><time>2026-04-18T17:35:44.998Z</time></trkpt><trkpt lat="44.32120742737781" lon="10.821739506155486"><ele>790.0</ele><time>2026-04-18T17:35:46Z</time></trkpt><trkpt lat="44.321319304747476" lon="10.82181002885628"><ele>789.3333333333333</ele><time>2026-04-18T17:35:47Z</time></trkpt><trkpt lat="44.32143081127438" lon="10.821854783840735"><ele>788.6666666666666</ele><time>2026-04-18T17:35:48Z</time></trkpt><trkpt lat="44.32152266646274" lon="10.82190396991732"><ele>788.0</ele><time>2026-04-18T17:35:49Z</time></trkpt><trkpt lat="44.3216012144559" lon="10.821928364971585"><ele>787.3333333333333</ele><time>2026-04-18T17:35:50Z</time></trkpt><trkpt lat="44.32166799944198" lon="10.821904147456834"><ele>786.6666666666666</ele><time>2026-04-18T17:35:51Z</time></trkpt><trkpt lat="44.32170975141287" lon="10.821813169934526"><ele>786.0</ele><time>2026-04-18T17:35:52Z</time></trkpt><trkpt lat="44.321719905586065" lon="10.821687785007253"><ele>786.0</ele><time>2026-04-18T17:35:53Z</time></trkpt><trkpt lat="44.3216985701718" lon="10.821523667052439"><ele>786.0</ele><time>2026-04-18T17:35:54Z</time></trkpt><trkpt lat="44.32167181679481" lon="10.821382936063653"><ele>786.0</ele><time>2026-04-18T17:35:55Z</time></trkpt><trkpt lat="44.32165575105996" lon="10.82126012780435"><ele>786.0</ele><time>2026-04-18T17:35:56Z</time></trkpt><trkpt lat="44.321635304388344" lon="10.82115008300085"><ele>786.0</ele><time>2026-04-18T17:35:57Z</time></trkpt><trkpt lat="44.32162577946391" lon="10.820987331283385"><ele>786.0000000000001</ele><time>2026-04-18T17:35:59Z</time></trkpt><trkpt lat="44.32167132245572" lon="10.820921924294602"><ele>786.0</ele><time>2026-04-18T17:36:00Z</time></trkpt><trkpt lat="44.321743407386265" lon="10.820905151849816"><ele>786.0</ele><time>2026-04-18T17:36:01Z</time></trkpt><trkpt lat="44.32181586373349" lon="10.820968962137421"><ele>786.0</ele><time>2026-04-18T17:36:02Z</time></trkpt><trkpt lat="44.32188283969445" lon="10.821007729077998"><ele>786.0</ele><time>2026-04-18T17:36:03Z</time></trkpt><trkpt lat="44.321950488429756" lon="10.821006833144176"><ele>786.0000000000001</ele><time>2026-04-18T17:36:04Z</time></trkpt><trkpt lat="44.322016623762714" lon="10.820999002080905"><ele>786.0</ele><time>2026-04-18T17:36:05Z</time></trkpt><trkpt lat="44.32214412674486" lon="10.820879472919465"><ele>786.0</ele><time>2026-04-18T17:36:07Z</time></trkpt><trkpt lat="44.3222405990415" lon="10.820784789704504"><ele>786.0</ele><time>2026-04-18T17:36:08Z</time></trkpt><trkpt lat="44.32231663856078" lon="10.82073685953926"><ele>786.0</ele><time>2026-04-18T17:36:09Z</time></trkpt><trkpt lat="44.32241091818786" lon="10.820854859416835"><ele>786.0</ele><time>2026-04-18T17:36:11Z</time></trkpt><trkpt lat="44.32243632373093" lon="10.82096813296538"><ele>786.0</ele><time>2026-04-18T17:36:12Z</time></trkpt><trkpt lat="44.32246146644357" lon="10.821111716823019"><ele>783.4</ele><time>2026-04-18T17:36:13Z</time></trkpt><trkpt lat="44.32250106897905" lon="10.821275261128694"><ele>780.8</ele><time>2026-04-18T17:36:14Z</time></trkpt><trkpt lat="44.32254002545943" lon="10.821399617088904"><ele>778.1999999999999</ele><time>2026-04-18T17:36:15Z</time></trkpt><trkpt lat="44.32260171136539" lon="10.821494087518449"><ele>775.5999999999999</ele><time>2026-04-18T17:36:16Z</time></trkpt><trkpt lat="44.32267585906427" lon="10.821602940131422"><ele>773.0</ele><time>2026-04-18T17:36:17Z</time></trkpt><trkpt lat="44.322756111968374" lon="10.821725482415157"><ele>770.2</ele><time>2026-04-18T17:36:18Z</time></trkpt><trkpt lat="44.322846838282274" lon="10.821822531092817"><ele>767.4</ele><time>2026-04-18T17:36:19Z</time></trkpt><trkpt lat="44.322928832648515" lon="10.821907482624608"><ele>764.6</ele><time>2026-04-18T17:36:20Z</time></trkpt><trkpt lat="44.32300506040439" lon="10.821983176928356"><ele>761.8000000000001</ele><time>2026-04-18T17:36:21Z</time></trkpt><trkpt lat="44.32307797178152" lon="10.82205557806379"><ele>759.0</ele><time>2026-04-18T17:36:22Z</time></trkpt><trkpt lat="44.323154091463145" lon="10.822131165057057"><ele>758.6</ele><time>2026-04-18T17:36:23Z</time></trkpt><trkpt lat="44.323241597765076" lon="10.822217643382583"><ele>758.2</ele><time>2026-04-18T17:36:24Z</time></trkpt><trkpt lat="44.32332571162125" lon="10.82230052994814"><ele>757.8000000000001</ele><time>2026-04-18T17:36:25Z</time></trkpt><trkpt lat="44.323392537198146" lon="10.822366380503569"><ele>757.4000000000001</ele><time>2026-04-18T17:36:26Z</time></trkpt><trkpt lat="44.32345769425999" lon="10.822413638510898"><ele>757.0</ele><time>2026-04-18T17:36:27Z</time></trkpt><trkpt lat="44.32366753427051" lon="10.822510703145742"><ele>757.0</ele><time>2026-04-18T17:36:29Z</time></trkpt><trkpt lat="44.32376386799441" lon="10.822500396984978"><ele>757.0</ele><time>2026-04-18T17:36:30Z</time></trkpt><trkpt lat="44.32386070663325" lon="10.822442472928005"><ele>757.0</ele><time>2026-04-18T17:36:31Z</time></trkpt><trkpt lat="44.32394955183693" lon="10.822358633399933"><ele>757.0</ele><time>2026-04-18T17:36:32Z</time></trkpt><trkpt lat="44.324047892722476" lon="10.822286467933413"><ele>757.0</ele><time>2026-04-18T17:36:33Z</time></trkpt><trkpt lat="44.32415127107254" lon="10.822238717116871"><ele>756.5</ele><time>2026-04-18T17:36:34Z</time></trkpt><trkpt lat="44.32424946267351" lon="10.822258073702654"><ele>756.0</ele><time>2026-04-18T17:36:35Z</time></trkpt><trkpt lat="44.324345277000695" lon="10.822284847266161"><ele>755.5</ele><time>2026-04-18T17:36:35.999Z</time></trkpt><trkpt lat="44.32443521475554" lon="10.822312883518546"><ele>755.0</ele><time>2026-04-18T17:36:36.999Z</time></trkpt><trkpt lat="44.32450466401124" lon="10.822337238485867"><ele>754.5</ele><time>2026-04-18T17:36:37.999Z</time></trkpt><trkpt lat="44.32457214905613" lon="10.82236155619005"><ele>754.0</ele><time>2026-04-18T17:36:38.999Z</time></trkpt><trkpt lat="44.324639030722366" lon="10.822385658299801"><ele>754.0</ele><time>2026-04-18T17:36:39.999Z</time></trkpt><trkpt lat="44.32470582573475" lon="10.822409727347116"><ele>754.0</ele><time>2026-04-18T17:36:40.999Z</time></trkpt><trkpt lat="44.324840172445136" lon="10.822452659758815"><ele>754.0</ele><time>2026-04-18T17:36:42.999Z</time></trkpt><trkpt lat="44.324910685929886" lon="10.822451687766078"><ele>754.0</ele><time>2026-04-18T17:36:43.999Z</time></trkpt><trkpt lat="44.32499036166477" lon="10.82246054744861"><ele>754.0</ele><time>2026-04-18T17:36:44.999Z</time></trkpt><trkpt lat="44.32506978360758" lon="10.822465442623125"><ele>754.0</ele><time>2026-04-18T17:36:45.999Z</time></trkpt><trkpt lat="44.32514560416834" lon="10.822449347640358"><ele>752.3333333333334</ele><time>2026-04-18T17:36:46.999Z</time></trkpt><trkpt lat="44.3252183398411" lon="10.82241089097522"><ele>750.6666666666667</ele><time>2026-04-18T17:36:47.999Z</time></trkpt><trkpt lat="44.32529228600813" lon="10.822371006791618"><ele>749.0</ele><time>2026-04-18T17:36:48.999Z</time></trkpt><trkpt lat="44.32537725482398" lon="10.822364580453659"><ele>747.3333333333334</ele><time>2026-04-18T17:36:49.999Z</time></trkpt><trkpt lat="44.32545859093872" lon="10.822363655543922"><ele>745.6666666666666</ele><time>2026-04-18T17:36:50.999Z</time></trkpt><trkpt lat="44.325541892710056" lon="10.822375116300764"><ele>744.0</ele><time>2026-04-18T17:36:51.999Z</time></trkpt><trkpt lat="44.32564811290721" lon="10.822397553009173"><ele>744.0</ele><time>2026-04-18T17:36:52.999Z</time></trkpt><trkpt lat="44.32572253794366" lon="10.822412266643825"><ele>744.0</ele><time>2026-04-18T17:36:53.999Z</time></trkpt><trkpt lat="44.32579862542173" lon="10.82242603095637"><ele>744.0</ele><time>2026-04-18T17:36:54.999Z</time></trkpt><trkpt lat="44.32587183495125" lon="10.822441950368503"><ele>744.0</ele><time>2026-04-18T17:36:55.999Z</time></trkpt><trkpt lat="44.325982362030224" lon="10.822491314088149"><ele>744.0</ele><time>2026-04-18T17:36:57.999Z</time></trkpt><trkpt lat="44.32604800998313" lon="10.822596696014825"><ele>744.0</ele><time>2026-04-18T17:36:59.999Z</time></trkpt><trkpt lat="44.326030373277874" lon="10.822690178997911"><ele>741.0</ele><time>2026-04-18T17:37:00.999Z</time></trkpt><trkpt lat="44.32598411715049" lon="10.82276424723222"><ele>738.0</ele><time>2026-04-18T17:37:01.999Z</time></trkpt><trkpt lat="44.32586756465694" lon="10.822795416847299"><ele>735.0</ele><time>2026-04-18T17:37:03.999Z</time></trkpt><trkpt lat="44.32571151505175" lon="10.822811082936862"><ele>732.0</ele><time>2026-04-18T17:37:04.999Z</time></trkpt><trkpt lat="44.3256171215067" lon="10.822821844506509"><ele>729.0</ele><time>2026-04-18T17:37:05.999Z</time></trkpt><trkpt lat="44.325505950716376" lon="10.822848204483108"><ele>729.0</ele><time>2026-04-18T17:37:06.999Z</time></trkpt><trkpt lat="44.325406757725894" lon="10.822883377989228"><ele>729.0</ele><time>2026-04-18T17:37:07.999Z</time></trkpt><trkpt lat="44.325301541853825" lon="10.822933267911868"><ele>729.0</ele><time>2026-04-18T17:37:08.999Z</time></trkpt><trkpt lat="44.32520799040071" lon="10.822997262691292"><ele>729.0</ele><time>2026-04-18T17:37:09.999Z</time></trkpt><trkpt lat="44.32511237128113" lon="10.823070258146524"><ele>729.0</ele><time>2026-04-18T17:37:10.999Z</time></trkpt><trkpt lat="44.32504676996706" lon="10.823157208937559"><ele>729.0</ele><time>2026-04-18T17:37:11.999Z</time></trkpt><trkpt lat="44.32497403567914" lon="10.823274697297087"><ele>729.0</ele><time>2026-04-18T17:37:12.999Z</time></trkpt><trkpt lat="44.324910835868636" lon="10.823354133455172"><ele>729.0</ele><time>2026-04-18T17:37:13.999Z</time></trkpt><trkpt lat="44.3248779141834" lon="10.82346992437268"><ele>729.0</ele><time>2026-04-18T17:37:14.999Z</time></trkpt><trkpt lat="44.32483000742298" lon="10.82357432918582"><ele>729.0</ele><time>2026-04-18T17:37:15.999Z</time></trkpt><trkpt lat="44.32482060943276" lon="10.823714717082185"><ele>726.8000000000001</ele><time>2026-04-18T17:37:16.999Z</time></trkpt><trkpt lat="44.32485190945151" lon="10.82385171216759"><ele>724.6</ele><time>2026-04-18T17:37:17.999Z</time></trkpt><trkpt lat="44.32486094739745" lon="10.824000994643448"><ele>722.4</ele><time>2026-04-18T17:37:18.999Z</time></trkpt><trkpt lat="44.3248643890168" lon="10.824120847268784"><ele>720.2</ele><time>2026-04-18T17:37:19.999Z</time></trkpt><trkpt lat="44.32485140913919" lon="10.82423507538482"><ele>718.0</ele><time>2026-04-18T17:37:20.999Z</time></trkpt><trkpt lat="44.324805180693716" lon="10.824341829723597"><ele>717.0</ele><time>2026-04-18T17:37:21.999Z</time></trkpt><trkpt lat="44.32474147777289" lon="10.824449788523768"><ele>716.0</ele><time>2026-04-18T17:37:22.999Z</time></trkpt><trkpt lat="44.32466879252026" lon="10.824561428237006"><ele>715.0</ele><time>2026-04-18T17:37:23.999Z</time></trkpt><trkpt lat="44.32461395047896" lon="10.824679411535925"><ele>714.0</ele><time>2026-04-18T17:37:24.999Z</time></trkpt><trkpt lat="44.324587059728465" lon="10.824807800143518"><ele>713.0</ele><time>2026-04-18T17:37:25.999Z</time></trkpt><trkpt lat="44.32458785434097" lon="10.824984256530335"><ele>710.6666666666666</ele><time>2026-04-18T17:37:26.999Z</time></trkpt><trkpt lat="44.324611674974854" lon="10.825173629996867"><ele>708.3333333333334</ele><time>2026-04-18T17:37:27.999Z</time></trkpt><trkpt lat="44.324677721014496" lon="10.825382404210442"><ele>706.0</ele><time>2026-04-18T17:37:28.999Z</time></trkpt><trkpt lat="44.3247453951293" lon="10.825618148931397"><ele>706.0</ele><time>2026-04-18T17:37:29.999Z</time></trkpt><trkpt lat="44.32482008872977" lon="10.825876583938735"><ele>706.0</ele><time>2026-04-18T17:37:30.999Z</time></trkpt><trkpt lat="44.324886138043595" lon="10.826111213840429"><ele>706.0</ele><time>2026-04-18T17:37:31.999Z</time></trkpt><trkpt lat="44.32495788926919" lon="10.826368782359506"><ele>704.3333333333334</ele><time>2026-04-18T17:37:32.999Z</time></trkpt><trkpt lat="44.32502029613991" lon="10.826581759937593"><ele>702.6666666666666</ele><time>2026-04-18T17:37:33.999Z</time></trkpt><trkpt lat="44.32508083134783" lon="10.826789090868855"><ele>701.0</ele><time>2026-04-18T17:37:34.999Z</time></trkpt><trkpt lat="44.32514680080765" lon="10.827019878845835"><ele>699.6666666666666</ele><time>2026-04-18T17:37:35.999Z</time></trkpt><trkpt lat="44.325200655182" lon="10.827208283438374"><ele>698.3333333333334</ele><time>2026-04-18T17:37:36.999Z</time></trkpt><trkpt lat="44.3252643455616" lon="10.827431098282917"><ele>697.0</ele><time>2026-04-18T17:37:37.999Z</time></trkpt><trkpt lat="44.32532010851845" lon="10.827627210599333"><ele>693.6666666666667</ele><time>2026-04-18T17:37:38.999Z</time></trkpt><trkpt lat="44.325379121460486" lon="10.82783527612886"><ele>690.3333333333334</ele><time>2026-04-18T17:37:39.999Z</time></trkpt><trkpt lat="44.32543832676264" lon="10.828044019893786"><ele>687.0</ele><time>2026-04-18T17:37:40.999Z</time></trkpt><trkpt lat="44.32549501055232" lon="10.828243873409422"><ele>687.0</ele><time>2026-04-18T17:37:41.998Z</time></trkpt><trkpt lat="44.32555011224365" lon="10.828438148840318"><ele>687.0</ele><time>2026-04-18T17:37:42.998Z</time></trkpt><trkpt lat="44.32560441856882" lon="10.828629619956901"><ele>687.0</ele><time>2026-04-18T17:37:43.998Z</time></trkpt><trkpt lat="44.3256660516713" lon="10.828819422009152"><ele>687.0</ele><time>2026-04-18T17:37:44.998Z</time></trkpt><trkpt lat="44.32574848753998" lon="10.828982099823278"><ele>687.5</ele><time>2026-04-18T17:37:45.998Z</time></trkpt><trkpt lat="44.3258292412629" lon="10.829147904861149"><ele>688.0</ele><time>2026-04-18T17:37:46.998Z</time></trkpt><trkpt lat="44.32591366198022" lon="10.82931207694235"><ele>688.5</ele><time>2026-04-18T17:37:47.998Z</time></trkpt><trkpt lat="44.32597631925189" lon="10.829488734789454"><ele>689.0</ele><time>2026-04-18T17:37:48.998Z</time></trkpt><trkpt lat="44.32602674732954" lon="10.829661838776254"><ele>687.75</ele><time>2026-04-18T17:37:49.998Z</time></trkpt><trkpt lat="44.32606271527456" lon="10.829851996523715"><ele>686.5</ele><time>2026-04-18T17:37:50.998Z</time></trkpt><trkpt lat="44.32609102707668" lon="10.830038222465687"><ele>685.25</ele><time>2026-04-18T17:37:52Z</time></trkpt><trkpt lat="44.32611089248409" lon="10.830209047976366"><ele>684.0</ele><time>2026-04-18T17:37:53Z</time></trkpt><trkpt lat="44.326125403393945" lon="10.830377281223914"><ele>683.75</ele><time>2026-04-18T17:37:54Z</time></trkpt><trkpt lat="44.326131111008976" lon="10.830535870661045"><ele>683.5</ele><time>2026-04-18T17:37:55Z</time></trkpt><trkpt lat="44.32612642654809" lon="10.83069646421991"><ele>683.25</ele><time>2026-04-18T17:37:56Z</time></trkpt><trkpt lat="44.326101400873334" lon="10.83085972046063"><ele>683.0</ele><time>2026-04-18T17:37:57Z</time></trkpt><trkpt lat="44.32606366760966" lon="10.831029676821508"><ele>682.0</ele><time>2026-04-18T17:37:58Z</time></trkpt><trkpt lat="44.32603046776415" lon="10.831233349086787"><ele>681.0</ele><time>2026-04-18T17:37:59Z</time></trkpt><trkpt lat="44.32603347830513" lon="10.831434721465506"><ele>680.0</ele><time>2026-04-18T17:38:00Z</time></trkpt><trkpt lat="44.32604326018509" lon="10.83162447172758"><ele>679.0</ele><time>2026-04-18T17:38:01Z</time></trkpt><trkpt lat="44.32607728952048" lon="10.831790620692342"><ele>678.75</ele><time>2026-04-18T17:38:02Z</time></trkpt><trkpt lat="44.326103972885704" lon="10.831982119027167"><ele>678.5</ele><time>2026-04-18T17:38:03Z</time></trkpt><trkpt lat="44.326158603355765" lon="10.83215099549479"><ele>678.25</ele><time>2026-04-18T17:38:04Z</time></trkpt><trkpt lat="44.32620344052624" lon="10.832319059257603"><ele>678.0</ele><time>2026-04-18T17:38:05Z</time></trkpt><trkpt lat="44.32623641744512" lon="10.832489166506269"><ele>677.75</ele><time>2026-04-18T17:38:06Z</time></trkpt><trkpt lat="44.32629025908636" lon="10.832665516020654"><ele>677.5</ele><time>2026-04-18T17:38:07Z</time></trkpt><trkpt lat="44.32635081041144" lon="10.832839959194445"><ele>677.25</ele><time>2026-04-18T17:38:08Z</time></trkpt><trkpt lat="44.32640851065111" lon="10.833013823990182"><ele>677.0</ele><time>2026-04-18T17:38:09Z</time></trkpt><trkpt lat="44.32646181089037" lon="10.833203129932595"><ele>677.0</ele><time>2026-04-18T17:38:10Z</time></trkpt><trkpt lat="44.326533582985185" lon="10.833368667699073"><ele>677.0</ele><time>2026-04-18T17:38:11Z</time></trkpt><trkpt lat="44.326586237776375" lon="10.833537212197099"><ele>677.0</ele><time>2026-04-18T17:38:12Z</time></trkpt><trkpt lat="44.326624443192095" lon="10.833695864924985"><ele>677.0</ele><time>2026-04-18T17:38:13Z</time></trkpt><trkpt lat="44.326668135572135" lon="10.833827351537519"><ele>677.5</ele><time>2026-04-18T17:38:14Z</time></trkpt><trkpt lat="44.32671011030203" lon="10.83395499436232"><ele>678.0</ele><time>2026-04-18T17:38:15Z</time></trkpt><trkpt lat="44.32675415906807" lon="10.834090667222249"><ele>678.5</ele><time>2026-04-18T17:38:16Z</time></trkpt><trkpt lat="44.326807056943366" lon="10.834253595881188"><ele>679.0</ele><time>2026-04-18T17:38:17Z</time></trkpt><trkpt lat="44.32686627009214" lon="10.83443273849885"><ele>680.4000000000001</ele><time>2026-04-18T17:38:18Z</time></trkpt><trkpt lat="44.32691085339755" lon="10.83456666204208"><ele>681.8</ele><time>2026-04-18T17:38:19Z</time></trkpt><trkpt lat="44.3269552142028" lon="10.834700089412962"><ele>683.2</ele><time>2026-04-18T17:38:20Z</time></trkpt><trkpt lat="44.327000318156706" lon="10.834835847328753"><ele>684.5999999999999</ele><time>2026-04-18T17:38:21Z</time></trkpt><trkpt lat="44.32704642147165" lon="10.834974613224373"><ele>686.0</ele><time>2026-04-18T17:38:22Z</time></trkpt><trkpt lat="44.32709393299251" lon="10.83511761764967"><ele>686.25</ele><time>2026-04-18T17:38:23Z</time></trkpt><trkpt lat="44.32715724934314" lon="10.835255922002105"><ele>686.5</ele><time>2026-04-18T17:38:24Z</time></trkpt><trkpt lat="44.32719747172606" lon="10.835429392109962"><ele>686.75</ele><time>2026-04-18T17:38:25Z</time></trkpt><trkpt lat="44.327259543294055" lon="10.83556329388512"><ele>687.0</ele><time>2026-04-18T17:38:26Z</time></trkpt><trkpt lat="44.327288952313424" lon="10.835706257700455"><ele>686.2</ele><time>2026-04-18T17:38:27Z</time></trkpt><trkpt lat="44.3273444844458" lon="10.83583676154018"><ele>685.4000000000001</ele><time>2026-04-18T17:38:28Z</time></trkpt><trkpt lat="44.32738397758944" lon="10.835955736164575"><ele>684.5999999999999</ele><time>2026-04-18T17:38:29Z</time></trkpt><trkpt lat="44.32743030815636" lon="10.836086923500153"><ele>683.8</ele><time>2026-04-18T17:38:30Z</time></trkpt><trkpt lat="44.32746380145349" lon="10.836206424889093"><ele>683.0</ele><time>2026-04-18T17:38:31Z</time></trkpt><trkpt lat="44.32749444264576" lon="10.836318898341796"><ele>682.6666666666666</ele><time>2026-04-18T17:38:32Z</time></trkpt><trkpt lat="44.32752548621189" lon="10.836441355010388"><ele>682.3333333333333</ele><time>2026-04-18T17:38:33Z</time></trkpt><trkpt lat="44.32754552629022" lon="10.836540998520697"><ele>682.0</ele><time>2026-04-18T17:38:34Z</time></trkpt><trkpt lat="44.32756757810922" lon="10.836626071889555"><ele>681.6666666666666</ele><time>2026-04-18T17:38:35Z</time></trkpt><trkpt lat="44.32759442743841" lon="10.836715762167055"><ele>681.3333333333334</ele><time>2026-04-18T17:38:36Z</time></trkpt><trkpt lat="44.32763118016208" lon="10.836873228848727"><ele>681.0</ele><time>2026-04-18T17:38:37.999Z</time></trkpt><trkpt lat="44.327645636056765" lon="10.836999772068374"><ele>680.5</ele><time>2026-04-18T17:38:39.999Z</time></trkpt><trkpt lat="44.327602879631165" lon="10.837128922362481"><ele>680.0</ele><time>2026-04-18T17:38:44.999Z</time></trkpt><trkpt lat="44.32752553853101" lon="10.837130711453204"><ele>679.5</ele><time>2026-04-18T17:38:45.999Z</time></trkpt><trkpt lat="44.327432522158475" lon="10.837123637025774"><ele>679.0</ele><time>2026-04-18T17:38:46.999Z</time></trkpt><trkpt lat="44.3273474673656" lon="10.83714161799101"><ele>678.5</ele><time>2026-04-18T17:38:47.999Z</time></trkpt><trkpt lat="44.327259792552866" lon="10.837160580230368"><ele>678.0</ele><time>2026-04-18T17:38:48.999Z</time></trkpt><trkpt lat="44.32715744922888" lon="10.837174112851264"><ele>678.0</ele><time>2026-04-18T17:38:49.999Z</time></trkpt><trkpt lat="44.32705563569871" lon="10.837188740690467"><ele>678.0</ele><time>2026-04-18T17:38:50.999Z</time></trkpt><trkpt lat="44.3269592500008" lon="10.837202024460137"><ele>678.0</ele><time>2026-04-18T17:38:51.999Z</time></trkpt><trkpt lat="44.326858321642646" lon="10.837231856567385"><ele>678.0</ele><time>2026-04-18T17:38:52.999Z</time></trkpt><trkpt lat="44.3267735923882" lon="10.83725912759555"><ele>678.0</ele><time>2026-04-18T17:38:53.999Z</time></trkpt><trkpt lat="44.32667276082158" lon="10.837279517480413"><ele>678.0</ele><time>2026-04-18T17:38:54.999Z</time></trkpt><trkpt lat="44.32656917688504" lon="10.837307954856582"><ele>678.0</ele><time>2026-04-18T17:38:55.999Z</time></trkpt><trkpt lat="44.32647471721551" lon="10.837341483760476"><ele>678.0</ele><time>2026-04-18T17:38:56.999Z</time></trkpt><trkpt lat="44.326366605268746" lon="10.837370934750938"><ele>678.0</ele><time>2026-04-18T17:38:57.999Z</time></trkpt><trkpt lat="44.32628569612341" lon="10.837398890226511"><ele>678.0</ele><time>2026-04-18T17:38:58.999Z</time></trkpt><trkpt lat="44.32620266040204" lon="10.837437103942174"><ele>678.5999999999999</ele><time>2026-04-18T17:38:59.999Z</time></trkpt><trkpt lat="44.32611753666695" lon="10.837478822357063"><ele>679.1999999999999</ele><time>2026-04-18T17:39:00.999Z</time></trkpt><trkpt lat="44.326011262875376" lon="10.837508930917922"><ele>679.8</ele><time>2026-04-18T17:39:01.999Z</time></trkpt><trkpt lat="44.32591637388543" lon="10.837521402614046"><ele>680.4</ele><time>2026-04-18T17:39:02.999Z</time></trkpt><trkpt lat="44.32583924772316" lon="10.837531113136679"><ele>681.0</ele><time>2026-04-18T17:39:03.999Z</time></trkpt><trkpt lat="44.32574116441481" lon="10.837531585944765"><ele>681.0</ele><time>2026-04-18T17:39:04.999Z</time></trkpt><trkpt lat="44.325650730692736" lon="10.837542657193897"><ele>681.0</ele><time>2026-04-18T17:39:05.999Z</time></trkpt><trkpt lat="44.325555446531446" lon="10.837544833724449"><ele>681.0</ele><time>2026-04-18T17:39:06.999Z</time></trkpt><trkpt lat="44.325458459606125" lon="10.837529536009223"><ele>681.0</ele><time>2026-04-18T17:39:07.999Z</time></trkpt><trkpt lat="44.32537957457814" lon="10.837512382880037"><ele>681.0</ele><time>2026-04-18T17:39:08.999Z</time></trkpt><trkpt lat="44.325270381610956" lon="10.837493488627445"><ele>681.1999999999999</ele><time>2026-04-18T17:39:09.999Z</time></trkpt><trkpt lat="44.32517765481277" lon="10.837491204375917"><ele>681.4</ele><time>2026-04-18T17:39:10.999Z</time></trkpt><trkpt lat="44.3250704556726" lon="10.837482313966332"><ele>681.6</ele><time>2026-04-18T17:39:11.999Z</time></trkpt><trkpt lat="44.324957511067076" lon="10.837473625309839"><ele>681.8</ele><time>2026-04-18T17:39:12.999Z</time></trkpt><trkpt lat="44.32486537779406" lon="10.83748248081758"><ele>682.0</ele><time>2026-04-18T17:39:13.999Z</time></trkpt><trkpt lat="44.32477582770707" lon="10.837505375827945"><ele>682.0</ele><time>2026-04-18T17:39:14.999Z</time></trkpt><trkpt lat="44.32469484015029" lon="10.837527667432711"><ele>682.0</ele><time>2026-04-18T17:39:15.999Z</time></trkpt><trkpt lat="44.324617906869605" lon="10.83755192956111"><ele>682.0</ele><time>2026-04-18T17:39:16.999Z</time></trkpt><trkpt lat="44.324555777070955" lon="10.837574294895289"><ele>682.0</ele><time>2026-04-18T17:39:17.999Z</time></trkpt><trkpt lat="44.32449221164348" lon="10.837590500129833"><ele>682.0</ele><time>2026-04-18T17:39:18.999Z</time></trkpt><trkpt lat="44.324394293055605" lon="10.837609077751543"><ele>682.0</ele><time>2026-04-18T17:39:20.999Z</time></trkpt><trkpt lat="44.32427996343646" lon="10.837660377713455"><ele>681.2</ele><time>2026-04-18T17:39:22.999Z</time></trkpt><trkpt lat="44.3242055374059" lon="10.83768865997498"><ele>680.4000000000001</ele><time>2026-04-18T17:39:23.999Z</time></trkpt><trkpt lat="44.32413242759291" lon="10.837751784803697"><ele>679.5999999999999</ele><time>2026-04-18T17:39:24.999Z</time></trkpt><trkpt lat="44.324073798689525" lon="10.837837681147994"><ele>678.8</ele><time>2026-04-18T17:39:25.999Z</time></trkpt><trkpt lat="44.32402424624434" lon="10.837931194720953"><ele>678.0</ele><time>2026-04-18T17:39:26.999Z</time></trkpt><trkpt lat="44.324014139458235" lon="10.83810147851536"><ele>678.0</ele><time>2026-04-18T17:39:28.999Z</time></trkpt><trkpt lat="44.324000044690194" lon="10.838228921056977"><ele>678.0</ele><time>2026-04-18T17:39:30.999Z</time></trkpt><trkpt lat="44.323999572955344" lon="10.838346354610547"><ele>678.0</ele><time>2026-04-18T17:39:32.999Z</time></trkpt><trkpt lat="44.32396811653064" lon="10.838453742733465"><ele>678.0</ele><time>2026-04-18T17:39:35.999Z</time></trkpt><trkpt lat="44.32384943063319" lon="10.838481024165327"><ele>678.0</ele><time>2026-04-18T17:39:37.999Z</time></trkpt><trkpt lat="44.323773612649454" lon="10.838460245017899"><ele>677.3333333333334</ele><time>2026-04-18T17:39:38.999Z</time></trkpt><trkpt lat="44.32368103004008" lon="10.838461034875138"><ele>676.6666666666666</ele><time>2026-04-18T17:39:39.999Z</time></trkpt><trkpt lat="44.32360286716601" lon="10.838475399841354"><ele>676.0</ele><time>2026-04-18T17:39:40.999Z</time></trkpt><trkpt lat="44.32349882626014" lon="10.838383422335063"><ele>675.3333333333333</ele><time>2026-04-18T17:39:42.998Z</time></trkpt><trkpt lat="44.32348476752978" lon="10.838294252142216"><ele>674.6666666666666</ele><time>2026-04-18T17:39:43.998Z</time></trkpt><trkpt lat="44.32349009873161" lon="10.83819708657503"><ele>674.0</ele><time>2026-04-18T17:39:44.998Z</time></trkpt><trkpt lat="44.32349082355265" lon="10.838045208126115"><ele>674.0</ele><time>2026-04-18T17:39:46.998Z</time></trkpt><trkpt lat="44.323561778597416" lon="10.838026460205963"><ele>674.0</ele><time>2026-04-18T17:39:47.998Z</time></trkpt><trkpt lat="44.323662299198375" lon="10.838031679550577"><ele>674.0</ele><time>2026-04-18T17:41:21.999Z</time></trkpt><trkpt lat="44.323761687412244" lon="10.83801627010721"><ele>674.0</ele><time>2026-04-18T17:41:24.999Z</time></trkpt><trkpt lat="44.32382844732987" lon="10.838008533218261"><ele>674.0</ele><time>2026-04-18T17:41:25.999Z</time></trkpt><trkpt lat="44.32391080298812" lon="10.8380463915232"><ele>674.0</ele><time>2026-04-18T17:41:27.999Z</time></trkpt><trkpt lat="44.32389864614505" lon="10.838226463952948"><ele>674.5</ele><time>2026-04-18T17:41:29.999Z</time></trkpt><trkpt lat="44.323898130777486" lon="10.838338788277285"><ele>675.0</ele><time>2026-04-18T17:41:30.999Z</time></trkpt><trkpt lat="44.3239206845424" lon="10.838485866633611"><ele>675.5</ele><time>2026-04-18T17:41:32.999Z</time></trkpt><trkpt lat="44.32398744132521" lon="10.838496755227558"><ele>676.0</ele><time>2026-04-18T17:41:35.999Z</time></trkpt><trkpt lat="44.32404514149175" lon="10.83854287612421"><ele>676.5</ele><time>2026-04-18T17:41:39.999Z</time></trkpt><trkpt lat="44.32399732871612" lon="10.83861689003606"><ele>677.0</ele><time>2026-04-18T17:41:40.999Z</time></trkpt><trkpt lat="44.32398583205778" lon="10.838727108392485"><ele>677.0</ele><time>2026-04-18T17:41:42.999Z</time></trkpt></trkseg></trk></gpx>